[[{"header":{"parameterUnit":"m.s-1","parameterCategory":1,"la1":31.0,"la2":29.5877,"lo1":-88.7671,"lo2":-86.6584,"dy":0.0162,"dx":0.0185,"nx":115,"ny":88,"refTime":"2024-09-01T18:00:00:Z","depth":0,"parameterNumber":2,"parameterNumberName":"U-component_of_WINDS"},"data":[0.0,0.0,0.0,0.0,0.0,0.0,0.0,0.0,0.0,0.0,0.0,0.0,0.0,0.0,0.0,0.0,0.0,0.0,0.0,0.0,0.0,0.0,0.0,0.0,0.0,0.0,0.0,0.0,0.0,0.0,0.0,0.0,0.0,0.0,0.0,0.0,0.0,0.0,0.0,0.0,0.0,0.0,0.0,0.0,0.0,0.0,0.0,0.0,0.0,0.0,0.0,0.0,0.0,0.0,0.0,0.0,0.0,0.0,0.0,0.0,0.0,0.0,0.0,0.0,0.0,0.0,0.0,0.0,0.0,0.0,0.0,0.0,0.0,0.0,0.0,0.0,0.0,0.0,0.0,0.0,0.0,0.0,0.0,0.0,0.0,0.0,0.0,0.0,0.0,0.0,0.0,0.0,0.0,0.0,0.0,0.0,0.0,0.0,0.0,0.0,0.0,0.0,0.0,0.0,0.0,0.0,0.0,0.0,0.0,0.0,0.0,0.0,0.0,0.0,0.0,0.0,0.0,0.0,0.0,0.0,0.0,0.0,0.0,0.0,0.0,0.0,0.0,0.0,0.0,0.0,0.0,0.0,0.0,0.0,0.0,0.0,0.0,0.0,0.0,0.0,0.0,0.0,0.0,0.0,0.0,0.0,0.0,0.0,0.0,0.0,0.0,0.0,0.0,0.0,0.0,0.0,0.0,0.0,0.0,0.0,0.0,0.0,0.0,0.0,0.0,0.0,0.0,0.0,0.0,0.0,0.0,0.0,0.0,0.0,0.0,0.0,0.0,0.0,0.0,0.0,0.0,0.0,0.0,0.0,0.0,0.0,0.0,0.0,0.0,0.0,0.0,0.0,0.0,0.0,0.0,0.0,0.0,0.0,0.0,0.0,0.0,0.0,0.0,0.0,0.0,0.0,0.0,0.0,0.0,0.0,0.0,0.0,0.0,0.0,0.0,0.0,0.0,0.0,0.0,0.0,0.0,0.0,0.0,0.0,0.0,0.0,0.0,0.0,0.0,0.0,0.0,0.0,0.0,0.0,0.0,0.0,0.0,0.0,0.0,0.0,0.0,0.0,0.0,0.0,0.0,0.0,0.0,0.0,0.0,0.0,0.0,0.0,0.0,0.0,0.0,0.0,0.0,0.0,0.0,0.0,0.0,0.0,0.0,0.0,0.0,0.0,0.0,0.0,0.0,0.0,0.0,0.0,0.0,0.0,0.0,0.0,0.0,0.0,0.0,0.0,0.0,0.0,0.0,0.0,0.0,0.0,0.0,0.0,0.0,0.0,0.0,0.0,0.0,0.0,0.0,0.0,0.0,0.0,0.0,0.0,0.0,0.0,0.0,0.0,0.0,0.0,0.0,0.0,0.0,0.0,0.0,0.0,0.0,0.0,0.0,0.0,0.0,0.0,0.0,0.0,0.0,0.0,0.0,0.0,0.0,0.0,0.0,0.0,0.0,0.0,0.0,0.0,0.0,0.0,0.0,0.0,0.0,0.0,0.0,0.0,0.0,0.0,0.0,0.0,0.0,0.0,0.0,0.0,0.0,0.0,0.0,0.0,0.0,0.0,0.0,0.0,0.0,0.0,0.0,0.0,0.0,0.0,0.0,0.0,0.0,0.0,0.0,0.0,0.0,0.0,0.0,0.0,0.0,0.0,0.0,0.0,0.0,0.0,0.0,0.0,0.0,0.0,0.0,0.0,0.0,0.0,0.0,0.0,0.0,0.0,0.0,0.0,0.0,0.0,0.0,0.0,0.0,0.0,0.0,0.0,0.0,0.0,0.0,0.0,0.0,0.0,0.0,0.0,0.0,0.0,0.0,0.0,0.0,0.0,0.0,0.0,0.0,0.0,0.0,0.0,0.0,0.0,0.0,0.0,0.0,0.0,0.0,0.0,0.0,0.0,0.0,0.0,0.0,0.0,0.0,0.0,0.0,0.0,0.0,0.0,0.0,0.0,0.0,0.0,0.0,0.0,0.0,0.0,0.0,0.0,0.0,0.0,0.0,0.0,0.0,0.0,0.0,0.0,0.0,0.0,0.0,0.0,0.0,0.0,0.0,0.0,0.0,0.0,0.0,0.0,0.0,0.0,0.0,0.0,0.0,0.0,0.0,0.0,0.0,0.0,0.0,0.0,0.0,0.0,0.0,0.0,0.0,0.0,0.0,0.0,0.0,0.0,0.0,0.0,0.0,0.0,0.0,0.0,0.0,0.0,0.0,0.0,0.0,0.0,0.0,0.0,0.0,0.0,0.0,0.0,0.0,0.0,0.0,0.0,0.0,0.0,0.0,0.0,0.0,0.0,0.0,0.0,0.0,0.0,0.0,0.0,0.0,0.0,0.0,0.0,0.0,0.0,0.0,0.0,0.0,0.0,0.0,0.0,0.0,0.0,0.0,0.0,0.0,0.0,0.0,0.0,0.0,0.0,0.0,0.0,0.0,0.0,0.0,0.0,0.0,0.0,0.0,0.0,0.0,0.0,0.0,0.0,0.0,0.0,0.0,0.0,0.0,0.0,0.0,0.0,0.0,0.0,0.0,0.0,0.0,0.0,0.0,0.0,0.0,0.0,0.0,0.0,0.0,0.0,0.0,0.0,0.0,0.0,0.0,0.0,0.0,0.0,0.0,0.0,0.0,0.0,0.0,0.0,0.0,0.0,0.0,0.0,0.0,0.0,0.0,0.0,0.0,0.0,0.0,0.0,0.0,0.0,0.0,0.0,0.0,0.0,0.0,0.0,0.0,0.0,0.0,0.0,0.0,0.0,0.0,0.0,0.0,0.0,0.0,0.0,0.0,0.0,0.0,0.0,0.0,0.0,0.0,0.0,0.0,0.0,0.0,0.0,0.0,0.0,0.0,0.0,0.0,0.0,0.0,0.0,0.0,0.0,0.0,0.0,0.0,0.0,0.0,0.0,0.0,0.0,0.0,0.0,0.0,0.0,0.0,0.0,0.0,0.0,0.0,0.0,0.0,0.0,0.0,0.0,0.0,0.0,0.0,0.0,0.0,0.0,0.0,0.0,0.0,0.0,0.0,0.0,0.0,0.0,0.0,0.0,0.0,0.0,0.0,0.0,0.0,0.0,0.0,0.0,0.0,0.0,0.0,0.0,0.0,0.0,0.0,0.0,0.0,0.0,0.0,0.0,0.0,0.0,0.0,0.0,0.0,0.0,0.0,0.0,0.0,0.0,0.0,0.0,0.0,0.0,0.0,0.0,0.0,0.0,0.0,0.0,0.0,0.0,0.0,0.0,0.0,0.0,0.0,0.0,0.0,0.0,0.0,0.0,0.0,0.0,0.0,0.0,0.0,0.0,0.0,0.0,0.0,0.0,0.0,0.0,0.0,0.0,0.0,0.0,0.0,0.0,0.0,0.0,0.0,0.0,0.0,0.0,0.0,0.0,0.0,0.0,0.0,0.0,0.0,0.0,0.0,0.0,0.0,0.0,0.0,0.0,0.0,0.0,0.0,0.0,0.0,0.0,0.0,0.0,0.0,0.0,0.0,0.0,0.0,0.0,0.0,0.0,0.0,0.0,0.0,0.0,0.0,0.0,0.0,0.0,0.0,0.0,0.0,0.0,0.0,0.0,0.0,0.0,0.0,0.0,0.0,0.0,0.0,0.0,0.0,0.0,0.0,0.0,0.0,0.0,0.0,0.0,0.0,0.0,0.0,0.0,0.0,0.0,0.0,0.0,0.0,0.0,0.0,0.0,0.0,0.0,0.0,0.0,0.0,0.0,0.0,0.0,0.0,0.0,0.0,0.0,0.0,0.0,0.0,0.0,0.0,0.0,0.0,0.0,0.0,0.0,0.0,0.0,0.0,0.0,0.0,0.0,0.0,0.0,0.0,0.0,0.0,0.0,0.0,0.0,0.0,0.0,0.0,0.0,0.0,0.0,0.0,0.0,0.0,0.0,0.0,0.0,0.0,0.0,0.0,0.0,0.0,0.0,0.0,0.0,0.0,0.0,0.0,0.0,0.0,0.0,0.0,0.0,0.0,0.0,0.0,0.0,0.0,0.0,0.0,0.0,0.0,0.0,0.0,0.0,0.0,0.0,0.0,0.0,0.0,0.0,0.0,0.0,0.0,0.0,0.0,0.0,0.0,0.0,0.0,0.0,0.0,0.0,0.0,0.0,0.0,0.0,0.0,0.0,0.0,0.0,0.0,0.0,0.0,0.0,0.0,0.0,0.0,0.0,0.0,0.0,0.0,0.0,0.0,0.0,0.0,0.0,0.0,0.0,0.0,0.0,0.0,0.0,0.0,0.0,0.0,0.0,-0.0126,0.0,0.0,0.0,0.0,0.0,0.0,0.0,0.0,0.0,0.0,0.0,0.0,0.0,0.0,0.0,0.0,0.0,0.0,0.0,0.0,0.0,0.0,0.0,0.0,0.0,0.0,0.0,0.0,0.0,0.0,0.0,0.0,0.0,0.0,0.0,0.0,0.0,0.0,0.0,0.0,0.0,0.0,0.0,0.0,0.0,0.0,0.0,0.0,0.0,0.0,0.0,0.0,0.0,0.0,0.0,0.0,0.0,0.0,0.0,0.0,0.0,0.0,0.0,0.0,0.0,0.0,0.0,0.0,0.0,0.0,0.0,0.0,0.0,0.0,0.0,0.0,0.0,0.0,0.0,0.0,0.0,0.0,0.0,0.0,0.0,0.0,0.0,0.0,0.0,0.0,0.0,0.0,0.0,0.0,0.0,0.0,0.0,0.0,0.0,0.0,0.0,0.0,0.0,0.0,0.0,0.0,0.0,0.0,0.0,0.0,-0.0617,-0.0042,-0.1105,-0.1175,-0.007,0.0,0.0,0.0,0.0,0.0,0.0,0.0,0.0,0.0,0.0,0.0,0.0,0.0,0.0,0.0,0.0,0.0,0.0,0.0,0.0,0.0,0.0,0.0,0.0,0.0,0.0,0.0,0.0,0.0,0.0,0.0,0.0,0.0,0.0,0.0,0.0,0.0,0.0,0.0,0.0,0.0,0.0,0.0,0.0,0.0,0.0,0.0,0.0,0.0,0.0,0.0,0.0,0.0,0.0,0.0,0.0,0.0,0.0,0.0,0.0,0.0,0.0,0.0,0.0,0.0,0.0,0.0,0.0,0.0,0.0,0.0,0.0,0.0,0.0,0.0,0.0,0.0,0.0,0.0,0.0,0.0,0.0,0.0,0.0,0.0,0.0,0.0,0.0,0.0,0.0,0.0,0.0,0.0,0.0,0.0,0.0,0.0,0.0,0.0,0.0,0.0,0.0,0.0,0.0,0.0,0.0,0.0,0.0,0.0,0.0,0.0,0.0,-0.1149,-0.1155,-0.0255,0.0,0.0,0.0,0.0,0.0,0.0,0.0,0.0,0.0,0.0,0.0,0.0,0.0,0.0,0.0,0.0,0.0,0.0,0.0,0.0,0.0,0.0,0.0,0.0,0.0,0.0,0.0,0.0,0.0,0.0,0.0,0.0,0.0,0.0,0.0,0.0,0.0,0.0,0.0,0.0,0.0,0.0,0.0,0.0,0.0,0.0,0.0,0.0,0.0,0.0,0.0,0.0,0.0,0.0,0.0,0.0,0.0,0.0,0.0,0.0,0.0,0.0,0.0,0.0,0.0,0.0,0.0,0.0,0.0,0.0,0.0,0.0,0.0,0.0,0.0,0.0,0.0,0.0,0.0,0.0,0.0,0.0,0.0,0.0,0.0,0.0,0.0,0.0,0.0,0.0,0.0,0.0,0.0,0.0,0.0,0.0,0.0,0.0,0.0,0.0,0.0,0.0,0.0,0.0,0.0,0.0,0.0,0.0,0.0,0.0,-0.0468,-0.1253,-0.1083,0.0,-0.078,0.0,0.0,0.0,0.0,0.0,0.0,0.0,0.0,0.0,0.0,0.0,0.0,0.0,0.0,0.0,0.0,0.0,0.0,0.0,0.0,0.0,0.0,0.0,0.0,0.0,0.0,0.0,0.0,0.0,0.0,0.0,0.0,0.0,0.0,0.0,0.0,0.0,0.0,0.0,0.0,0.0,0.0,0.0,0.0,0.0,0.0,0.0,0.0,0.0,0.0,0.0,0.0,0.0,0.0,0.0,0.0,0.0,0.0,0.0,0.0,0.0,0.0,0.0,0.0,0.0,0.0,0.0,0.0,0.0,0.0,0.0,0.0,0.0,0.0,0.0,0.0,0.0,0.0,0.0,0.0,0.0,0.0,0.0,0.0,0.0,0.0,0.0,0.0,0.0,0.0,0.0,0.0,0.0,0.0,0.0,0.0,0.0,0.0,0.0,0.0,0.0,0.0,0.0,0.0,0.0,0.0,0.0,0.0,0.0,0.0,0.0,-0.1385,-0.1257,-0.0928,0.0,0.0,0.0,0.0,0.0,0.0,0.0,0.0,0.0,0.0,0.0,0.0,0.0,0.0,0.0,0.0,0.0,0.0,0.0,0.0,0.0,0.0,0.0,0.0,0.0,0.0,0.0,0.0,0.0,0.0,0.0,0.0,0.0,0.0,0.0,0.0,0.0,0.0,0.0,0.0,0.0,0.0,0.0,0.0,0.0,0.0,0.0,0.0,0.0,0.0,0.0,0.0,0.0,0.0,0.0,0.0,0.0,0.0,0.0,0.0,0.0,0.0,0.0,0.0,0.0,0.0,0.0,0.0,0.0,0.0,0.0,0.0,0.0,0.0,0.0,0.0,0.0,0.0,0.0,0.0,0.0,0.0,0.0,0.0,0.0,0.0,0.0,0.0,0.0,0.0,0.0,0.0,0.0,0.0,0.0,0.0,0.0,0.0,0.0,0.0,0.0,0.0,0.0,0.0,0.0,0.0,0.0,0.0,0.0,0.0,-0.0517,0.0,-0.142,-0.1088,-0.0677,-0.0268,0.0,0.0,0.0,0.0,0.0,0.0,0.0,0.0,0.0,0.0,0.0,0.0,0.0,0.0,0.0,0.0,0.0,0.0,0.0,0.0,0.0,0.0,0.0,0.0,0.0,0.0,0.0,0.0,0.0,0.0,0.0,0.0,0.0,0.0,0.0,0.0,0.0,0.0,0.0,0.0,0.0,0.0,0.0,0.0,0.0,0.0,0.0,0.0,0.0,0.0,0.0,0.0,0.0,0.0,0.0,0.0,0.0,0.0,0.0,0.0,0.0,0.0,0.0,0.0,0.0,0.0,0.0,0.0,0.0,0.0,0.0,0.0,0.0,0.0,0.0,0.0,0.0,0.0,0.0,0.0,0.0,0.0,0.0,0.0,0.0,0.0,0.0,0.0,0.0,0.0,0.0,0.0,0.0,0.0,0.0,0.0,0.0,0.0,0.0,0.0,0.0,0.0,0.0,0.0,0.0,0.0,0.0,0.0,0.0,-0.1225,-0.0996,-0.1626,-0.033,0.0018,0.0,0.0,0.0,0.0,0.0,0.0,0.0,0.0,0.0,0.0,0.0,0.0,0.0,0.0,0.0,0.0,0.0,0.0,0.0,0.0,0.0,0.0,0.0,0.0,0.0,0.0,0.0,0.0,0.0,0.0,0.0,0.0,0.0,0.0,0.0,0.0,0.0,0.0,0.0,0.0,0.0,0.0,0.0,0.0,0.0,0.0,0.0,0.0,0.0,0.0,0.0,0.0,0.0,0.0,0.0,0.0,0.0,0.0,0.0,0.0,0.0,0.0,0.0,0.0,0.0,0.0,0.0,0.0,0.0,0.0,0.0,0.0,0.0,0.0,0.0,0.0,0.0,0.0,0.0,0.0,0.0,0.0,0.0,0.0,0.0,0.0,0.0,0.0,0.0,0.0,0.0,0.0,0.0,0.0,0.0,0.0,0.0,0.0,0.0,0.0,0.0,0.0,0.0,0.0,0.0,0.0,0.0,0.0,0.0,-0.0619,-0.1033,-0.1204,-0.1061,-0.1001,-0.0937,0.0,0.0,0.0,0.0,0.0,0.0,0.0,0.0,0.0,0.0,0.0,0.0,0.0,0.0,0.0,0.0,0.0,0.0,0.0,0.0,0.0,0.0,0.0,0.0,0.0,0.0,0.0,0.0,0.0,0.0,0.0,0.0,0.0,0.0,0.0,0.0,0.0,0.0,0.0,0.0,0.0,0.0,0.0,0.0,0.0,0.0,0.0,0.0,0.0,0.0,0.0,0.0,0.0,0.0,0.0,0.0,0.0,0.0,0.0,0.0,0.0,0.0,0.0,0.0,0.0,0.0,0.0,0.0,0.0,0.0,0.0,0.0,0.0,0.0,0.0,0.0,0.0,0.0,0.0,0.0,0.0,0.0,0.0,0.0,0.0,0.0,0.0,0.0,0.0,0.0,0.0,0.0,0.0,0.0,0.0,0.0,0.0,0.0,0.0,0.0,0.0,0.0,0.0,0.0,0.0,0.0,0.0,0.0,0.0,-0.0538,0.0,-0.1804,0.0,-0.1429,-0.1202,0.0,0.0,0.0,0.0,0.0,0.0,0.0,0.0,0.0,0.0,0.0,0.0,0.0,0.0,0.0,0.0,0.0,0.0,0.0,0.0,0.0,0.0,0.0,0.0,0.0,0.0,0.0,0.0,0.0,0.0,0.0,0.0,0.0,0.0,0.0,0.0,0.0,0.0,0.0,0.0,0.0,0.0,0.0,0.0,0.0,0.0,0.0,0.0,0.0,0.0,0.0,0.0,0.0,0.0,0.0,0.0,0.0,0.0,0.0,0.0,0.0,0.0,0.0,0.0,0.0,0.0,0.0,0.0,0.0,0.0,0.0,0.0,0.0,0.0,0.0,0.0,0.0,0.0,0.0,0.0,0.0,0.0,0.0,0.0,0.0,0.0,0.0,0.0,0.0,0.0,0.0,0.0,0.0,0.0,0.0,0.0,0.0,0.0,0.0,0.0,0.0,0.0,0.0,0.0,0.0,0.0,0.0,0.0,-0.1277,-0.2287,-0.2578,-0.2836,-0.3126,-0.1558,-0.0605,0.0,0.0,0.0,0.0,0.0,0.0,0.0,0.0,0.0,0.0,0.0,0.0,0.0,0.0,0.0,0.0,0.0,0.0,0.0,0.0,0.0,0.0,0.0,0.0,0.0,0.0,0.0,0.0,0.0,0.0,0.0,0.0,0.0,0.0,0.0,0.0,0.0,0.0,0.0,0.0,0.0,0.0,0.0,0.0,0.0,0.0,0.0,0.0,0.0,0.0,0.0,0.0,0.0,0.0,0.0,0.0,0.0,0.0,0.0,0.0,0.0,0.0,0.0,0.0,0.0,0.0,0.0,0.0,0.0,0.0,0.0,0.0,0.0,0.0,0.0,0.0,0.0,0.0,0.0,0.0,0.0,0.0,0.0,0.0,0.0,0.0,0.0,0.0,0.0,0.0,0.0,0.0,0.0,0.0,0.0,0.0,0.0,0.0,0.0,0.0,0.0,0.0,0.0,0.0,0.0,0.0,0.0,0.0,0.0,-0.1828,-0.3028,-0.3612,-0.3458,-0.2421,-0.1959,0.0,0.0,0.0,0.0,0.0,0.0,0.0,0.0,0.0,0.0,0.0,0.0,0.0,0.0,0.0,0.0,0.0,0.0,0.0,0.0,0.0,0.0,0.0,0.0,0.0,0.0,0.0,0.0,0.0,0.0,0.0,0.0,0.0,0.0,0.0,0.0,0.0,0.0,0.0,0.0,0.0,0.0,0.0,0.0,0.0,0.0,0.0,0.0,0.0,0.0,0.0,0.0,0.0,0.0,0.0,0.0,0.0,0.0,0.0,0.0,0.0,0.0,0.0,0.0,0.0,0.0,0.0,0.0,0.0,0.0,0.0,0.0,0.0,0.0,0.0,0.0,0.0,0.0,0.0,0.0,0.0,0.0,0.0,0.0,0.0,0.0,0.0,0.0,0.0,0.0,0.0,0.0,0.0,0.0,0.0,0.0,0.0,0.0,0.0,0.0,0.0,0.0,0.0,0.0,0.0,0.0,0.0,0.0,0.0,-0.307,-0.4423,-0.5074,-0.4759,-0.3479,-0.2785,-0.2713,0.0,0.0,0.0,0.0,0.0,0.0,0.0,0.0,0.0,0.0,0.0,0.0,0.0,0.0,0.0,0.0,0.0,0.0,0.0,0.0,0.0,0.0,0.0,0.0,0.0,0.0,0.0,0.0,0.0,0.0,0.0,0.0,0.0,0.0,0.0,0.0,0.0,0.0,0.0,0.0,0.0,0.0,0.0,0.0,0.0,0.0,0.0,0.0,0.0,0.0,0.0,0.0,0.0,0.0,0.0,0.0,0.0,0.0,0.0,0.0,0.0,0.0,0.0,0.0,0.0,0.0,0.0,0.0,0.0,0.0,0.0,0.0,0.0,0.0,0.0,0.0,0.0,0.0,0.0,0.0,0.0,0.0,0.0,0.0,0.0,0.0,0.0,0.0,0.0,0.0,0.0,0.0,0.0,0.0,0.0,0.0,0.0,0.0,0.0,0.0,0.0,0.0,0.0,0.0,0.0,0.0,0.0,0.0,-0.5452,-0.657,-0.6979,-0.6663,-0.4579,-0.3151,0.0,0.0,0.0,0.0,0.0,0.0,0.0,0.0,0.0,0.0,0.0,0.0,0.0,0.0,0.0,0.0,0.0,0.0,0.0,0.0,0.0,0.0,0.0,0.0,0.0,0.0,0.0,0.0,0.0,0.0,0.0,0.0,0.0,0.0,0.0,0.0,0.0,0.0,0.0,0.0,0.0,0.0,0.0,0.0,0.0,0.0,0.0,0.0,0.0,0.0,0.0,0.0,0.0,0.0,0.0,0.0,0.0,0.0,0.0,0.0,0.0,0.0,0.0,0.0,0.0,0.0,0.0,0.0,0.0,0.0,0.0,0.0,0.0,0.0,0.0,0.0,0.0,0.0,0.0,0.0,0.0,0.0,0.0,0.0,0.0,0.0,0.0,0.0,0.0,0.0,0.0,0.0,0.0,0.0,0.0,0.0,0.0,0.0,0.0,0.0,0.0,0.0,0.0,0.0,0.0,0.0,0.0,0.0,0.0,-0.6272,-0.7399,-0.7583,-0.6706,-0.5002,-0.3905,0.0,0.0,0.0,0.0,0.0,0.0,0.0,0.0,0.0,0.0,0.0,0.0,0.0,0.0,0.0,0.0,0.0,0.0,0.0,0.0,0.0,0.0,0.0,0.0,0.0,0.0,0.0,0.0,0.0,0.0,0.0,0.0,0.0,0.0,0.0,0.0,0.0,0.0,0.0,0.0,0.0,0.0,0.0,0.0,0.0,0.0,0.0,0.0,0.0,0.0,0.0,0.0,0.0,0.0,0.0,0.0,0.0,0.0,0.0,0.0,0.0,0.0,0.0,0.0,0.0,0.0,0.0,0.0,0.0,0.0,0.0,0.0,0.0,0.0,0.0,0.0,0.0,0.0,0.0,0.0,0.0,0.0,0.0,0.0,0.0,0.0,0.0,0.0,0.0,0.0,0.0,0.0,0.0,0.0,0.0,0.0,0.0,0.0,0.0,0.0,0.0,0.0,0.0,0.0,0.0,0.0,0.0,0.0,-0.5594,-0.7283,-0.7971,-0.7968,-0.7185,-0.5889,-0.4898,0.0,0.0,0.0,0.0,0.0,0.0,0.0,0.0,0.0,0.0,0.0,0.0,0.0,0.0,0.0,0.0,0.0,0.0,0.0,0.0,0.0,0.0,0.0,0.0,0.0,0.0,0.0,0.0,0.0,0.0,0.0,0.0,0.0,0.0,0.0,0.0,0.0,0.0,0.0,0.0,0.0,0.0,0.0,0.0,0.0,0.0,0.0,0.0,0.0,0.0,0.0,0.0,0.0,0.0,0.0,0.0,0.0,0.0,0.0,0.0,0.0,0.0,0.0,0.0,0.0,0.0,0.0,0.0,0.0,0.0,0.0,0.0,0.0,0.0,0.0,0.0,0.0,0.0,0.0,0.0,0.0,0.0,0.0,0.0,0.0,0.0,0.0,0.0,0.0,0.0,0.0,0.0,0.0,0.0,0.0,0.0,0.0,0.0,0.0,0.0,0.0,0.0,0.0,0.0,0.0,0.0,0.0,0.0,-0.6059,-0.8275,-0.8366,-0.8241,-0.7897,-0.6905,-0.5794,0.0,0.0,0.0,0.0,0.0,0.0,0.0,0.0,0.0,0.0,0.0,0.0,0.0,0.0,0.0,0.0,0.0,0.0,0.0,0.0,0.0,0.0,0.0,0.0,0.0,0.0,0.0,0.0,0.0,0.0,0.0,0.0,0.0,0.0,0.0,0.0,0.0,0.0,0.0,0.0,0.0,0.0,0.0,0.0,0.0,0.0,0.0,0.0,0.0,0.0,0.0,0.0,0.0,0.0,0.0,0.0,0.0,0.0,0.0,0.0,0.0,0.0,0.0,0.0,0.0,0.0,0.0,0.0,0.0,0.0,0.0,0.0,0.0,0.0,0.0,0.0,0.0,0.0,0.0,0.0,0.0,0.0,0.0,0.0,0.0,0.0,0.0,0.0,0.0,0.0,0.0,0.0,0.0,0.0,0.0,0.0,0.0,0.0,0.0,0.0,0.0,0.0,0.0,0.0,0.0,0.0,0.0,0.0,-0.5954,-0.8532,-0.8463,-0.8439,-0.8576,-0.7024,-0.5568,0.0,0.0,0.0,0.0,0.0,0.0,0.0,0.0,0.0,0.0,0.0,0.0,0.0,0.0,0.0,0.0,0.0,0.0,0.0,0.0,0.0,0.0,0.0,0.0,0.0,0.0,0.0,0.0,0.0,0.0,0.0,0.0,0.0,0.0,0.0,0.0,0.0,0.0,0.0,0.0,0.0,0.0,0.0,0.0,0.0,0.0,0.0,0.0,0.2946,0.0,0.0,0.0,0.0,0.0,0.0,0.0,0.0,0.0,0.0,0.0,0.0,0.0,0.0,0.0,0.0,0.0,0.0,0.0,0.0,0.0,0.0,0.0,0.0,0.0,0.0,0.0,0.0,0.0,0.0,0.0,0.0,0.0,0.0,0.0,0.0,0.0,0.0,0.0,0.0,0.0,0.0,0.0,0.0,0.0,0.0,0.0,0.0,0.0,0.0,0.0,0.0,0.0,0.0,0.0,0.0,0.0,0.0,0.0,-0.6569,-0.8563,-0.8478,-0.8407,-0.8393,-0.7499,-0.6212,0.0,0.0,0.0,0.0,0.0,0.0,0.0,0.0,0.0,0.0,0.0,0.0,0.0,0.0,0.0,0.0,0.0,0.0,0.0,0.0,0.0,0.0,0.0,0.0,0.0,0.0,0.0,0.0,0.0,0.0,0.0,0.0,0.0,0.0,0.0,0.0,0.0,0.0,0.0,0.0,0.0,0.0,0.0,0.0,0.0,0.0,0.0,0.0,0.0,0.0,0.0,0.0,0.0,0.0,0.0,0.0,0.0,0.0,0.0,0.0,0.0,0.0,0.0,0.0,0.0,0.0,0.0,0.0,0.0,0.0,0.0,0.0,0.0,0.0,0.0,0.0,0.0,0.0,0.0,0.0,0.0,0.0,0.0,0.0,0.0,0.0,0.0,0.0,0.0,0.0,0.0,0.0,0.0,0.0,0.0,0.0,0.0,0.0,0.0,0.0,0.0,0.0,0.0,0.0,0.0,0.0,0.0,-0.5963,-0.716,-0.8653,-0.8552,-0.8321,-0.8118,-0.8052,-0.7012,-0.4936,0.0,0.0,0.0,0.0,0.0,0.0,0.0,0.0,0.0,0.0,0.0,0.0,0.0,0.0,0.0,0.0,0.0,0.0,0.0,0.0,0.0,0.0,0.0,0.0,0.0,0.0,0.0,0.0,0.0,0.0,0.0,0.0,0.0,0.0,0.0,0.0,0.0,0.0,0.3251,0.2949,0.0,0.0,0.0,0.0,0.0,0.0,0.0,0.0,0.291,0.0,0.0,0.0,0.0,0.0,0.0,0.0,0.0,0.0,0.0,0.0,0.0,0.0,0.0,0.0,0.0,0.0,0.0,0.0,0.0,0.0,0.0,0.0,0.0,0.0,0.0,0.0,0.0,0.0,0.0,0.0,0.0,0.0,0.0,0.0,0.0,0.0,0.0,0.0,0.0,0.0,0.0,0.0,0.0,0.0,0.0,0.0,0.0,0.0,0.0,0.0,0.0,0.0,0.0,0.0,0.0,-0.5301,-0.5189,-0.6474,-0.9272,-0.8899,-0.8635,-0.8577,-0.8308,-0.7028,-0.4722,0.0,0.0,0.0,0.0,0.0,0.0,0.0,0.0,0.0,0.0,0.0,0.0,0.0,0.0,0.0,0.0,0.0,0.0,0.0,0.0,0.0,0.0,0.0,0.0,0.0,0.0,0.0,0.0,0.0,0.0,0.0,0.0,0.0,0.0,0.0,0.0,0.0,0.0,0.0,0.2349,0.2606,0.0,0.0,0.0,0.0,0.0,0.0,0.0,0.0,0.2856,0.0,0.0,0.0,0.0,0.0,0.0,0.0,0.0,0.0,0.0,0.0,0.0,0.0,0.0,0.0,0.0,0.0,0.0,0.0,0.0,0.0,0.0,0.0,0.0,0.0,0.0,0.0,0.0,0.0,0.0,0.0,0.0,0.0,0.0,0.0,0.0,0.0,0.0,0.0,0.0,0.0,0.0,0.0,0.0,0.0,0.0,0.0,0.0,0.0,0.0,0.0,0.0,0.0,0.0,0.0,-0.5325,-0.6493,-0.7821,-0.9259,-0.9081,-0.883,-0.8567,-0.8529,-0.7248,0.0,0.0,0.0,0.0,0.0,0.0,0.0,0.0,0.0,0.0,0.0,0.0,0.0,0.0,0.0,0.0,0.0,0.0,0.0,0.0,0.0,0.0,0.0,0.0,0.0,0.0,0.0,0.0,0.0,0.0,0.0,0.0,0.0,0.0,0.0,0.0,0.0,0.0,0.0,0.0,0.2183,0.2113,0.1657,0.0,0.0,0.0,0.0,0.0,0.0,0.2832,0.291,0.0,0.0,0.0,0.0,0.0,0.0,0.0,0.0,0.0,0.0,0.0,0.0,0.0,0.0,0.0,0.0,0.0,0.0,0.0,0.0,0.0,0.0,0.0,0.0,0.0,0.0,0.0,0.0,0.0,0.0,0.0,0.0,0.0,0.0,0.0,0.0,0.0,0.0,0.0,0.0,0.0,0.0,0.0,0.0,0.0,0.0,0.0,0.0,0.0,0.0,0.0,0.0,0.0,0.0,0.0,-0.5374,-0.7559,-0.8898,-0.925,-0.9212,-0.8959,-0.8475,-0.841,-0.7159,0.0,0.0,0.0,0.0,0.0,0.0,0.0,0.0,0.0,0.0,0.0,0.0,0.0,0.0,0.0,0.0,0.0,0.0,0.0,0.0,0.0,0.0,0.0,0.0,0.0,0.0,0.0,0.0,0.0,0.0,0.0,0.0,0.0,0.0,0.0,0.0,0.0,0.0,0.0,0.0,0.0,0.1679,0.1724,0.1577,0.0,0.0,0.0,0.0,0.2728,0.2484,0.0,0.0,0.0,0.0,0.0,0.0,0.0,0.0,0.0,0.0,0.0,0.0,0.0,0.0,0.0,0.0,0.0,0.0,0.0,0.0,0.0,0.0,0.0,0.0,0.0,0.0,0.0,0.0,0.0,0.0,0.0,0.0,0.0,0.0,0.0,0.0,0.0,0.0,0.0,0.0,0.0,0.0,0.0,0.0,0.0,0.0,0.0,0.0,0.0,0.0,0.0,0.0,0.0,0.0,0.0,0.0,-0.527,-0.6524,-0.7906,-0.9369,-0.9252,-0.8972,-0.8642,-0.7601,-0.624,0.0,0.0,0.0,0.0,0.0,0.0,0.0,0.0,0.0,0.0,0.0,0.0,0.0,0.0,0.0,0.0,0.0,0.0,0.0,0.0,0.0,0.0,0.0,0.0,0.0,0.0,0.0,0.0,0.0,0.0,0.0,0.0,0.0,0.0,0.0,0.0,0.0,0.0,0.0,0.0,0.0,0.179,0.1561,0.1205,0.1136,0.0,0.0,0.1247,0.074,0.0566,0.0,0.0,0.0,0.0,0.0,0.0,0.0,0.0,0.0,0.0,0.0,0.0,0.0,0.0,0.0,0.0,0.0,0.0,0.0,0.0,0.0,0.0,0.0,0.0,0.0,0.0,0.0,0.0,0.0,0.0,0.0,0.0,0.0,0.0,0.0,0.0,0.0,0.0,0.0,0.0,0.0,0.0,0.0,0.0,0.0,0.0,0.0,0.0,0.0,0.0,0.0,0.0,0.0,0.0,0.0,-0.4548,-0.5346,-0.7231,-0.8577,-0.928,-0.9062,-0.8858,-0.8761,-0.7529,-0.6177,0.0,0.0,0.0,0.0,0.0,0.0,0.0,0.0,0.0,0.0,0.0,0.0,0.0,0.0,0.0,0.0,0.0,0.0,0.0,0.0,0.0,0.0,0.0,0.0,0.0,0.0,0.0,0.0,0.0,0.0,0.0,0.0,0.0,0.0,0.0,0.0,0.0,0.0,0.0,0.0,0.0,0.0,0.1389,0.077,0.0,0.0,0.0,0.0613,0.1014,0.0,0.0,0.0,0.0,0.0,0.0,0.0,0.0,0.0,0.0,0.0,0.0,0.0,0.0,0.0,0.0,0.0,0.0,0.0,0.0,0.0,0.0,0.0,0.0,0.0,0.0,0.0,0.0,0.0,0.0,0.0,0.0,0.0,0.0,0.0,0.0,0.0,0.0,0.0,0.0,0.0,0.0,0.0,0.0,0.0,0.0,0.0,0.0,0.0,0.0,0.0,0.0,0.0,0.0,0.0,0.0,0.0,-0.5392,-0.7984,-0.939,-0.9436,-0.9139,-0.8963,-0.8952,-0.7609,0.0,0.0,0.0,0.0,0.0,0.0,0.0,0.0,0.0,0.0,0.0,0.0,0.0,0.0,0.0,0.0,0.0,0.0,0.0,0.0,0.0,0.0,0.0,0.0,0.0,0.0,0.0,0.0689,0.0,0.0,0.0,0.0,0.0,0.0,0.0,0.0,0.0,0.0,0.0,0.0,0.0,0.0,0.0661,0.0702,0.0047,-0.0524,0.0,0.0,-0.0048,0.0715,0.0048,-0.0241,0.0,0.0,0.0,0.0,0.0,0.0,0.0,0.0,0.0,0.0,0.0,0.0,0.0,0.0,0.0,0.0,0.0,0.0,0.0,0.0,0.0,0.0,0.0,0.0,0.0,0.0,0.0,0.0,0.0,0.0,0.0,0.0,0.0,0.0,0.0,0.0,0.0,0.0,0.0,0.0,0.0,0.0,0.0,0.0,0.0,0.0,0.0,0.0,0.0,0.0,0.0,0.0,0.0,0.0,0.0,-0.5586,-0.8298,-0.9886,-1.0093,-0.9701,-0.9437,-0.9429,-0.7794,-0.6273,0.0,0.0,0.0,0.0,0.0,0.0,0.0,0.0,0.0,0.0,0.0,0.0,0.0,0.0,0.0,0.0,0.0,0.0,0.0,0.0,0.0,0.0,0.0,0.0,0.0,0.0,0.0,0.0,0.0,0.0,0.0,0.0,0.0,0.0,0.0,0.0,0.0,0.0,0.0,0.0,0.0,-0.0092,-0.0762,-0.1212,-0.1702,0.0,0.0,-0.086,-0.1388,-0.1542,-0.1533,-0.1404,0.0,0.0,0.0,0.0,0.0,0.0,0.0,0.0,0.0,0.0,0.0,0.0,0.0,0.0,0.0,0.0,0.0,0.0,0.0,0.0,0.0,0.0,0.0,0.0,0.0,0.0,0.0,0.0,0.0,0.0,0.0,0.0,0.0,0.0,0.0,0.0,0.0,0.0,0.0,0.0,0.0,0.0,0.0,0.0,0.0,0.0,0.0,0.0,0.0,0.0,0.0,0.0,0.0,-0.53,-0.5534,-0.8226,-0.9633,-0.9634,-0.9498,-0.9315,-0.9006,-0.7661,-0.6323,0.0,0.0,0.0,0.0,0.0,0.0,0.0,0.0,0.0,0.0,0.0,0.0,0.0,0.0,0.0,0.0,0.0,0.0,0.0,0.0,0.0,0.0,0.0,0.0,0.0,0.0,0.0,0.0,-0.2606,-0.2511,-0.1721,0.0,0.0,0.0,0.0,0.0,0.0,0.0,0.0,0.0,0.0,-0.1174,-0.1774,-0.2374,0.0,0.0,-0.2735,-0.2525,-0.2784,-0.251,-0.224,-0.2222,-0.1689,0.0,0.0,0.0,0.0,0.0,0.0,0.0,0.0,0.0,0.0,0.0,0.0,0.0,0.0,0.0,0.0,0.0,0.0,0.0,0.0,0.0,0.0,0.0,0.0,0.0,0.0,0.0,0.0,0.0,0.0,0.0,0.0,0.0,0.0,0.0,0.0,0.0,0.0,0.0,0.0,0.0,0.0,0.0,0.0,0.0,0.0,0.0,0.0,0.0,0.0,0.0,0.0,-0.5499,-0.5595,-0.8401,-0.9822,-0.9709,-0.9636,-0.9478,-0.9198,-0.8208,-0.705,0.0,0.0,0.0,0.0,0.0,0.0,0.0,0.0,0.0,0.0,0.0,0.0,0.0,0.0,0.0,0.0,0.0,0.0,0.0,0.0,0.0,0.0,0.0,0.0,0.0,0.0,0.0,0.0,-0.3527,-0.3359,-0.27,0.0,0.0,0.0,0.0,0.0,0.0,0.0,0.0,0.0,0.0,-0.2492,-0.3028,-0.3514,-0.3783,-0.3783,-0.366,-0.3511,-0.3474,-0.3127,-0.285,-0.2836,0.0,0.0,0.0,0.0,0.0,0.0,0.0,0.0,0.0,0.0,0.0,0.0,0.0,0.0,0.0,0.0,0.0,0.0,0.0,0.0,0.0,0.0,0.0,0.0,0.0,0.0,0.0,0.1248,0.0,0.0,0.0167,0.0,0.0,0.0,0.0,0.0,0.0,0.0,0.0,0.0,0.0,0.0,0.0,0.0,0.0,0.0,0.0,0.0,0.0,0.0,0.0,0.0,0.0,-0.5796,-0.5838,-0.9022,-1.0691,-1.0648,-1.0235,-1.0118,-1.0297,-0.9578,-0.8666,-0.7619,0.0,0.0,0.0,0.0,0.0,0.0,0.0,0.0,0.0,0.0,0.0,0.0,0.0,0.0,0.0,0.0,0.0,0.0,0.0,0.0,0.0,0.0,0.0,0.0,0.0,0.0,-0.1291,-0.1958,-0.2646,0.0,0.0,0.0,0.0,0.0,0.0,0.0,0.0,0.0,0.0,-0.341,-0.4081,-0.4669,-0.46,-0.4503,-0.4503,-0.4002,-0.3574,-0.346,-0.343,-0.3454,0.0,0.0,0.0,0.0,0.0,0.0,0.0,0.0,0.0,0.0,0.0,0.0,0.0,0.0,0.0,0.0,0.0,0.0,0.0,0.0,0.0,0.0,0.0,0.0,0.0,0.0,0.0,-0.0415,-0.0375,0.0,0.0,0.0,0.0,0.0,0.0,0.0,0.0,0.0,0.0,0.0,-0.5698,-0.5745,0.0,0.0,0.0,0.0,0.0,0.0,0.0,0.0,0.0,0.0,0.0,0.0,-0.6156,-0.6236,-0.9785,-1.1444,-1.0918,-1.1354,-1.1132,-1.0156,-1.0249,-0.9384,-0.7363,0.0,0.0,0.0,0.0,0.0,0.0,0.0,0.0,0.0,0.0,0.0,0.0,0.0,0.0,0.0,0.0,0.0,0.0,0.0,0.0,0.0,0.0,0.0,0.0,0.0,-0.2382,0.0,0.0,0.0,0.0,0.0,0.0,0.0,0.0,0.0,0.0,0.0,-0.3747,-0.4447,-0.4671,-0.5025,-0.5748,-0.5504,-0.5322,0.0,0.0,0.0,0.0,0.0,0.0,0.0,0.0,0.0,0.0,0.0,0.0,0.0,0.0,0.0027,-0.0367,0.0489,0.1312,0.1514,0.0,0.0,0.0,0.0,0.0,0.0,0.0,0.0,0.0,0.0,0.0,0.0,0.0,0.0,-0.2855,0.0,-0.2194,0.0,0.0,0.0,0.0,0.0,0.0,0.0,0.0,-0.7148,-0.8181,-0.7847,-0.8145,-0.8475,0.0,-0.7811,-0.6,0.0,0.0,0.0,0.0,0.0,0.0,0.0,0.0,-0.7017,-0.7283,-1.0625,-1.2179,-1.1768,-1.227,-1.2042,-1.101,-1.1206,-1.0492,-0.8726,-0.7301,-0.6064,0.0,0.0,0.0,0.0,0.0,0.0,0.0,0.0,0.0,0.0,0.0,0.0,0.0,0.0,0.0,0.0,0.0,0.0,0.0,0.0,0.0,0.0,0.0,-0.2933,0.0,0.0,0.0,0.0,0.0,0.0,0.0,0.0,0.0,-0.2866,-0.4104,-0.5128,-0.5588,-0.5735,-0.5853,-0.6089,0.0,0.0,0.0,0.0,0.0,0.0,0.0,-0.3331,-0.3329,-0.318,-0.314,-0.3436,-0.3453,-0.338,-0.3273,0.0,0.0,-0.1558,-0.0628,0.0204,0.0433,0.0699,0.12,0.2167,0.2596,0.2841,0.0,0.0,0.0,0.0,0.0,0.0,0.0,0.0,-0.5886,-0.5813,0.0,-0.4283,0.0,0.0,0.0,0.0,0.0,-0.5273,0.0,0.0,-1.0055,-1.1148,-0.9959,-1.0623,-1.1015,-1.0919,-0.9334,-0.8454,-0.8269,-0.7911,0.0,0.0,0.0,0.0,0.0,0.0,-0.8348,-0.8992,-1.1545,-1.2932,-1.3089,-1.2979,-1.286,-1.2808,-1.2428,-1.1997,-1.1539,-0.9885,-0.889,-0.8656,-0.5534,0.0,0.0,0.0,0.0,0.0,0.0,0.0,0.0,0.0,0.0,0.0,0.0,0.0,0.0,0.0,0.0,0.0,0.0,0.0,0.0,-0.3308,0.0,0.0,0.0,0.0,0.0,0.0,0.0,0.0,0.0,0.0,-0.33,-0.4778,-0.5982,-0.6028,0.0,0.0,0.0,0.0,-0.4724,-0.3943,-0.3775,-0.3753,-0.3607,-0.4162,-0.4587,-0.4468,0.0,0.0,-0.4869,-0.457,-0.4298,-0.3994,-0.3426,-0.2644,-0.139,-0.0615,0.0,0.0057,0.0454,0.1071,0.1468,0.1848,0.2328,-0.8328,0.0,0.0,0.0,0.0,-0.5742,-0.6021,-0.6453,-0.648,-0.643,-0.633,-0.5778,0.0,0.0,0.0,0.0,0.0,0.0,-0.7699,-0.9275,-1.0958,-1.211,-1.2777,-1.3003,-1.3343,-1.3705,-1.2814,-1.258,-1.2942,-1.2828,-1.0361,-0.5675,0.0,0.0,0.0,0.0,-0.9336,-1.0284,-1.2699,-1.391,-1.3684,-1.4078,-1.402,-1.3449,-1.2766,-1.2241,-1.1901,-1.1327,-1.0333,-0.8843,-0.8234,0.0,0.0,0.0,0.0,0.0,0.0,0.0,0.0,0.0,0.0,0.0,0.0,0.0,0.0,0.0,0.0,0.0,0.0,0.0,-0.4778,-0.5413,-0.552,0.0,0.0,0.0,0.0,0.0,0.0,0.0,0.0,0.0,-0.6566,-0.5665,-0.5081,0.0,0.0,-0.5091,-0.4964,-0.522,-0.5393,-0.5263,-0.5138,0.0,-0.4883,-0.4419,-0.4046,-0.4087,-0.4707,-0.5149,-0.477,-0.4842,-0.4859,-0.4461,-0.4063,-0.3654,-0.3288,-0.2623,-0.2035,-0.1837,-0.1408,-0.0858,-0.0124,0.0719,0.1382,-1.1473,-0.9561,-0.8146,-0.7544,-0.7555,-0.7555,-0.7885,-0.8473,-0.8501,-0.8473,-0.8365,-0.7686,-0.733,-0.7167,-0.6729,0.0,0.0,0.0,-0.9682,-1.1576,-1.2384,-1.3269,-1.4161,-1.4483,-1.4814,-1.5165,-1.4696,-1.4682,-1.5002,-1.4587,-1.2429,-0.8611,0.0,0.0,-0.8003,-0.979,-1.112,-1.192,-1.378,-1.4713,-1.4574,-1.4861,-1.47,-1.4048,-1.3545,-1.3155,-1.2881,-1.2543,-1.1774,-1.0564,-0.9867,-0.88,0.0,0.0,0.0,0.0,0.0,0.0,0.0,0.0,0.0,0.0,0.0,-0.445,-0.3206,0.0,0.0,0.0,-0.5864,-0.6344,-0.6863,-0.6998,0.0,0.0,0.0,0.0,0.0,0.0,0.0,-0.6297,-0.7255,-0.7865,-0.7728,-0.6598,-0.6037,-0.6733,-0.6689,-0.6435,-0.601,0.0,-0.6525,-0.6275,-0.6081,-0.5891,-0.5592,-0.5151,-0.4824,-0.4764,-0.5103,-0.5415,-0.5333,-0.5381,-0.5317,-0.506,-0.4642,-0.432,-0.432,-0.3843,-0.3336,-0.3048,-0.2577,-0.2011,-0.1352,-0.0484,0.0258,-1.4392,-1.4115,-1.0823,-0.9446,-0.9418,-0.9446,-1.0186,-1.1397,-1.1434,-1.1392,-1.1289,-0.9961,-0.9294,-0.9178,-0.8403,0.0,-1.1065,-1.1126,-1.1931,-1.3303,-1.4119,-1.4487,-1.4521,-1.5258,-1.5601,-1.5591,-1.5346,-1.522,-1.5181,-1.4239,-1.3471,-1.2981,-1.2966,-1.2456,-1.1483,-1.23,-1.3078,-1.3673,-1.4536,-1.5197,-1.5531,-1.5303,-1.4975,-1.4519,-1.4503,-1.44,-1.4202,-1.3486,-1.311,-1.3039,-1.0915,-0.9912,-1.0245,0.0,0.0,0.0,0.0,0.0,0.0,0.0,0.0,0.0,0.0,0.0,0.0,0.0,0.0,0.0,-0.793,0.0,-0.9282,-0.8364,0.0,0.0,0.0,-0.7293,-0.7927,-0.8039,-0.8011,-0.7854,0.0,0.0,-0.7788,-0.7725,-0.8353,-1.0065,-0.9941,-0.922,-0.798,-0.7959,-0.7851,-0.6916,-0.6772,-0.6591,-0.6244,-0.6319,-0.6346,-0.6075,-0.6091,-0.6098,-0.6084,-0.5888,-0.5725,-0.5603,-0.5144,-0.4695,-0.4692,-0.4338,-0.401,-0.372,-0.3136,-0.2618,-0.2269,-0.1622,-0.0779,-1.4392,-1.4332,-1.3466,-1.3118,-1.3118,-1.3122,-1.3216,-1.3347,-1.3342,-1.323,-1.3049,-1.2567,-1.2247,-1.2079,-1.189,-1.2313,-1.3243,-1.3456,-1.3967,-1.4714,-1.5144,-1.5309,-1.5344,-1.551,-1.5601,-1.5596,-1.5548,-1.5521,-1.548,-1.525,-1.4636,-1.3717,-1.3674,-1.2842,-1.1331,-1.1652,-1.2432,-1.3611,-1.354,-1.4042,-1.5031,-1.4999,-1.4803,-1.4513,-1.4503,-1.44,-1.4207,-1.403,-1.372,-1.3362,-1.3141,-1.248,-1.124,-0.9044,0.0,0.0,0.0,0.0,0.0,0.0,0.0,0.0,0.0,-0.676,-0.4938,0.0,-0.7739,0.0,-0.9506,-1.0659,-1.1331,-1.0918,0.0,0.0,-0.9886,-0.9706,-1.1098,-1.0789,-1.0552,-1.0816,-1.1232,-1.1363,-1.1034,-1.071,-1.0883,-1.1817,-0.9538,-0.7614,-0.7202,-0.7683,-0.7943,-0.7747,-0.7893,-0.7985,-0.7807,-0.7631,-0.736,-0.6844,-0.6864,-0.6695,-0.6011,-0.5882,-0.5789,-0.5492,-0.5094,-0.4793,-0.479,-0.4496,-0.4263,-0.4127,-0.3765,-0.3354,-0.3022,-0.2198,-0.1366,-1.5558,-1.5558,-1.5558,-1.5267,-1.4808,-1.4531,-1.432,-1.419,-1.4185,-1.4123,-1.3979,-1.3891,-1.3927,-1.4094,-1.4094,-1.4445,-1.5018,-1.5178,-1.5391,-1.5671,-1.586,-1.5919,-1.5914,-1.5831,-1.5782,-1.5777,-1.5804,-1.575,-1.5596,-1.5755,-1.5413,-1.4663,-1.4663,-1.3893,-1.2449,-1.206,-1.2233,-1.3008,-1.3285,-1.4002,-1.5153,-1.5101,-1.471,-1.402,-1.3906,-1.3503,-1.2836,-1.2737,-1.2504,-1.2128,-1.2224,-1.1892,-1.094,-0.9259,-0.8138,0.0,0.0,0.0,0.0,0.0,0.0,0.0,0.0,0.0,0.0,0.0,-0.9568,-0.9618,-1.1133,-1.2052,-1.1795,-1.1837,-1.1984,-1.2252,-1.1867,-1.2022,-1.3139,-1.2902,-1.2731,-1.287,-1.3118,-1.3208,-1.295,-1.258,-1.2458,-1.2777,-1.0937,-0.9441,-0.9175,-0.9472,-0.9734,-0.9669,-0.975,-0.9679,-0.9321,-0.8826,-0.8364,-0.8088,-0.813,-0.8053,-0.7574,-0.7111,-0.678,-0.655,-0.5906,-0.5347,-0.5285,-0.4937,-0.4609,-0.4479,-0.4269,-0.3964,-0.3732,-0.3095,-0.2422,-1.7174,-1.712,-1.7114,-1.6542,-1.5539,-1.4969,-1.4579,-1.43,-1.43,-1.4348,-1.4449,-1.4574,-1.4954,-1.5426,-1.5483,-1.5774,-1.6281,-1.6343,-1.6343,-1.6312,-1.6312,-1.6312,-1.6307,-1.6127,-1.6025,-1.6044,-1.6063,-1.5953,-1.5674,-1.592,-1.5828,-1.5405,-1.5405,-1.4827,-1.3747,-1.278,-1.2309,-1.2288,-1.3322,-1.4346,-1.5304,-1.4945,-1.4215,-1.3191,-1.2898,-1.2253,-1.117,-1.0915,-1.0751,-1.0573,-1.0247,-1.0169,-1.0439,-0.8993,-0.8329,0.0,-0.7636,0.0,0.0,0.0,0.0,0.0,0.0,0.0,0.0,-1.1091,-1.1306,-1.1369,-1.2585,-1.2948,-1.1932,-1.2233,-1.2661,-1.3199,-1.3653,-1.4052,-1.4336,-1.4488,-1.4442,-1.4171,-1.4038,-1.394,-1.387,-1.3637,-1.3326,-1.3212,-1.2822,-1.2295,-1.2087,-1.1859,-1.1727,-1.1814,-1.1607,-1.1042,-1.0569,-0.9944,-0.9459,-0.9414,-0.9468,-0.9636,-0.9486,-0.8709,-0.8128,-0.8135,-0.7093,-0.6198,-0.6157,-0.5599,-0.5071,-0.4955,-0.4747,-0.4488,-0.4205,-0.3929,-0.3515,-1.8172,-1.7725,-1.7725,-1.731,-1.6699,-1.655,-1.5438,-1.3679,-1.3679,-1.4033,-1.4699,-1.5587,-1.6002,-1.6126,-1.6394,-1.6462,-1.6312,-1.6586,-1.6555,-1.6312,-1.6312,-1.6312,-1.6312,-1.6269,-1.6247,-1.6226,-1.6086,-1.5972,-1.5906,-1.5753,-1.5175,-1.423,-1.4225,-1.3761,-1.289,0.0,0.0,0.0,-1.3139,-1.3786,-1.4012,-1.2887,-1.2087,-1.1711,-1.1639,0.0,-1.1114,-1.1069,-1.1029,-1.0994,-1.0907,0.0,0.0,0.0,0.0,0.0,0.0,0.0,0.0,0.0,0.0,0.0,-1.1218,-1.1017,-1.105,-1.1679,-1.2292,-1.2768,-1.3073,-1.3504,-1.4083,-1.3989,-1.4068,-1.4488,-1.4897,-1.506,-1.4855,-1.5084,-1.5047,-1.4423,-1.4315,-1.4207,-1.3969,-1.3719,-1.3639,-1.3689,-1.3529,-1.3462,-1.3459,-1.2543,-1.1877,-1.1799,-1.1633,-1.1449,-1.1572,-1.1184,-1.0732,-1.036,-1.0399,-1.0366,-0.993,-0.933,-0.9102,-0.958,-0.806,-0.6894,-0.7385,-0.6433,-0.5502,-0.5454,-0.5396,-0.5073,-0.4187,-0.3936,-0.3745,-1.8524,0.0,-1.81,-1.7531,0.0,-1.6596,-1.5662,-1.4166,-1.509,-1.5694,-1.6102,-1.6493,-1.672,-1.6852,-1.6361,-1.6133,-1.6139,-1.5593,-1.5562,-1.5858,-1.6043,-1.6424,-1.6878,-1.679,-1.673,-1.675,-1.6514,-1.6399,-1.6389,-1.6431,-1.6159,-1.5588,-1.5322,-1.4967,-1.4535,-1.4143,-1.3639,-1.304,-1.3503,-1.4048,-1.4578,-1.3827,-1.308,-1.2532,-1.2374,0.0,0.0,0.0,0.0,0.0,0.0,0.0,0.0,0.0,0.0,-1.1883,-1.1376,-1.1353,-1.1979,-1.225,-1.2761,-1.36,-1.3725,-1.3423,-1.2641,-1.3546,-1.4282,-1.4585,-1.4627,-1.4787,-1.517,-1.5194,-1.5105,-1.5029,-1.5297,-1.5403,-1.5267,-1.5365,-1.543,-1.5253,-1.5183,-1.5057,-1.4735,-1.4428,-1.4196,-1.4115,-1.3898,-1.3802,-1.3798,-1.3218,-1.2664,-1.2569,-1.2422,-1.2355,-1.2521,-1.2381,-1.2154,-1.1922,-1.1893,-1.1836,-1.1633,-1.092,-1.0533,-1.0782,-0.9335,-0.8103,-0.8017,-0.7132,-0.617,-0.5931,-0.5771,-0.5504,-0.4871,-0.4625,-0.4304,-1.8901,-1.8553,-1.8553,-1.7817,-1.667,-1.6665,-1.6183,-1.551,0.0,0.0,0.0,-1.7136,-1.7238,-1.7405,-1.6353,-1.6051,-1.6273,-1.5243,-1.5113,-1.5764,-1.6116,-1.6672,-1.7389,-1.7318,-1.7218,-1.7176,-1.6943,-1.6863,-1.6889,-1.7103,-1.7241,-1.7254,-1.6853,-1.663,-1.6619,-1.6137,-1.5377,-1.4408,-1.4054,-1.4397,-1.5338,-1.4921,-1.4288,-1.3434,-1.3264,-1.2737,-1.1919,-1.1828,-1.1806,-1.1799,-1.1643,-1.1674,-1.196,-1.1968,-1.2107,-1.2455,-1.2735,-1.3211,-1.3942,-1.4264,-1.4827,-1.5758,-1.6087,-1.5707,-1.453,-1.5391,-1.6032,-1.6108,-1.6081,-1.597,-1.5768,-1.5866,-1.5766,-1.5327,-1.5512,-1.5663,-1.5598,-1.5658,-1.5756,-1.5946,-1.5982,-1.5942,-1.5662,-1.5401,-1.5091,-1.4697,-1.4491,-1.4173,-1.4063,-1.3812,-1.3534,-1.3471,-1.3401,-1.3452,-1.352,-1.3416,-1.338,-1.3348,-1.3315,-1.334,-1.3269,-1.2647,-1.2111,-1.2172,-1.0677,-0.9527,-0.9038,-0.803,-0.7025,-0.6604,-0.6221,-0.5912,-0.58,-0.5581,-0.5083,-2.0109,-1.9595,-1.9595,-1.9122,-1.8429,-1.8429,-1.8334,-1.8128,-1.7124,-1.6473,-1.6278,-1.7066,-1.7464,-1.7502,-1.7588,-1.7679,-1.7738,-1.7852,-1.769,-1.7238,-1.7271,-1.7201,-1.7066,-1.7335,-1.7313,-1.7065,-1.7092,-1.7165,-1.7143,-1.6964,-1.7019,-1.7277,-1.7237,-1.7184,-1.7176,-1.7043,-1.6693,-1.6107,-1.468,-1.4117,-1.454,-1.3346,-1.2567,-1.2267,-1.2273,-1.2233,-1.2223,-1.2014,-1.2055,-1.2591,-1.2356,-1.2572,-1.3435,-1.3968,-1.4489,-1.5067,-1.585,-1.6314,-1.6326,-1.6439,-1.6547,-1.6712,-1.6975,-1.6722,-1.5846,-1.5908,-1.6059,-1.624,-1.6065,-1.5899,-1.6017,-1.5909,-1.5841,-1.5898,-1.6148,-1.6239,-1.5974,-1.6142,-1.6239,-1.6071,-1.6151,-1.6247,-1.6176,-1.6288,-1.6098,-1.5723,-1.5389,-1.5323,-1.474,-1.4254,-1.4027,-1.4153,-1.4143,-1.4203,-1.4327,-1.4368,-1.4128,-1.3866,-1.3907,-1.3843,-1.363,-1.3103,-1.2854,-1.3456,-1.1752,-1.0684,-1.084,-0.9363,-0.817,-0.7787,-0.727,-0.6745,-0.6454,-0.626,-0.5915,-2.042,-2.0002,-1.9968,-1.9691,-1.9227,-1.9271,-1.9281,-1.9246,-1.8649,-1.8022,-1.7571,-1.7844,-1.8188,-1.845,-1.7912,-1.7637,-1.7647,-1.7086,-1.6854,-1.6974,-1.6969,-1.7163,-1.755,-1.7717,-1.7717,-1.7545,-1.7418,-1.7459,-1.7596,-1.7336,-1.7455,-1.7955,-1.7853,-1.7527,-1.7067,-1.7001,-1.6796,-1.6396,-1.5505,-1.5055,-1.5047,-1.4552,-1.434,-1.4425,-1.4384,-1.4557,-1.4982,-1.4679,-1.4733,-1.5234,-1.5088,-1.5229,-1.5654,-1.5814,-1.5967,-1.6109,-1.6611,-1.6839,-1.6658,-1.7086,-1.7262,-1.7143,-1.736,-1.7363,-1.6971,-1.6775,-1.6803,-1.7037,-1.6903,-1.6902,-1.71,-1.685,-1.6642,-1.6543,-1.6531,-1.6434,-1.6336,-1.6401,-1.6499,-1.6531,-1.6615,-1.6623,-1.6426,-1.6519,-1.6422,-1.6009,-1.5896,-1.5654,-1.5011,-1.4838,-1.4744,-1.4809,-1.4778,-1.475,-1.4816,-1.4631,-1.4392,-1.4112,-1.3927,-1.3848,-1.3754,-1.3508,-1.3571,-1.3722,-1.2499,-1.1603,-1.1638,-1.0269,-0.9227,-0.8721,-0.8143,-0.7566,-0.7312,-0.6881,-0.6145,-2.0631,-2.0353,-2.0249,-2.0116,-1.9872,-2.0001,-1.9953,-1.9793,-1.9917,-1.9671,-1.9093,-1.8772,-1.888,-1.9174,-1.8211,-1.7834,-1.773,-1.6741,-1.6523,-1.6915,-1.6963,-1.7357,-1.7969,-1.8071,-1.8103,-1.8001,-1.7819,-1.7889,-1.8077,-1.7857,-1.8083,-1.8612,-1.8486,-1.8028,-1.7338,-1.7244,-1.706,-1.6725,-1.642,-1.6086,-1.5774,-1.5966,-1.6245,-1.6536,-1.6364,-1.6648,-1.7333,-1.7019,-1.7019,-1.7488,-1.7457,-1.742,-1.7384,-1.7343,-1.7146,-1.6853,-1.7167,-1.7259,-1.7064,-1.7627,-1.7908,-1.7665,-1.7868,-1.8036,-1.807,-1.792,-1.7762,-1.7794,-1.7722,-1.7802,-1.7891,-1.7653,-1.74,-1.7136,-1.6818,-1.6629,-1.6629,-1.6596,-1.6688,-1.6974,-1.7055,-1.6973,-1.6783,-1.6722,-1.6655,-1.6324,-1.5972,-1.5518,-1.5164,-1.5262,-1.5284,-1.5234,-1.52,-1.518,-1.51,-1.488,-1.4643,-1.4431,-1.4087,-1.3943,-1.3899,-1.3896,-1.3864,-1.3793,-1.3146,-1.2427,-1.1961,-1.0992,-1.0131,-0.9735,-0.9013,-0.8324,-0.7996,-0.7457,-0.6494,-2.1144,-2.1041,-2.0776,-2.0631,-2.059,-2.0906,-2.0652,-2.0143,-2.0221,-2.0176,-1.9905,-1.9483,-1.9227,-1.9068,-1.9152,-1.9211,-1.9271,-1.917,-1.8785,-1.8413,-1.841,-1.8276,-1.8077,-1.8372,-1.8372,-1.8103,-1.8308,-1.8442,-1.8507,-1.8474,-1.8667,-1.9008,-1.9016,-1.8922,-1.8828,-1.8547,-1.8276,-1.8017,-1.7417,-1.6823,-1.6264,-1.6269,-1.6429,-1.6764,-1.6487,-1.6777,-1.7696,-1.7131,-1.7241,-1.8072,-1.7931,-1.7765,-1.7819,-1.8238,-1.8226,-1.7662,-1.837,-1.8772,-1.853,-1.8784,-1.882,-1.8641,-1.8796,-1.9036,-1.9246,-1.9264,-1.8891,-1.8261,-1.8005,-1.8054,-1.8001,-1.7766,-1.7595,-1.7601,-1.7223,-1.6974,-1.7006,-1.6974,-1.6969,-1.7001,-1.7222,-1.7346,-1.7274,-1.7343,-1.7269,-1.6725,-1.5909,-1.5376,-1.5368,-1.524,-1.5124,-1.5177,-1.52,-1.529,-1.5381,-1.5381,-1.5045,-1.4894,-1.4614,-1.429,-1.4045,-1.3923,-1.39,-1.3829,-1.3539,-1.3075,-1.2753,-1.1997,-1.0956,-1.0707,-0.9951,-0.8974,-0.8357,-0.7996,-0.7445,-2.1415,-2.1179,-2.1041,-2.0873,-2.0735,-2.0873,-2.0873,-2.0751,-2.0591,-2.0519,-2.0505,-2.0261,-2.0109,-2.0025,-2.0127,-2.0093,-1.9953,-1.9707,-1.9536,-1.9292,-1.8778,-1.8501,-1.8581,-1.8597,-1.8507,-1.8372,-1.8539,-1.8571,-1.8571,-1.8571,-1.8667,-1.8828,-1.9014,-1.9014,-1.879,-1.8667,-1.8442,-1.8082,-1.7815,-1.7547,-1.7287,-1.6991,-1.707,-1.7525,-1.7247,-1.7394,-1.8122,-1.7768,-1.78,-1.8412,-1.8526,-1.8557,-1.8563,-1.8647,-1.8492,-1.8052,-1.836,-1.8702,-1.8915,-1.905,-1.903,-1.8947,-1.9189,-1.9388,-1.9491,-1.9654,-1.9565,-1.9194,-1.8974,-1.888,-1.8847,-1.8587,-1.8428,-1.8516,-1.8121,-1.7747,-1.7785,-1.7554,-1.7426,-1.7437,-1.7513,-1.7518,-1.7394,-1.733,-1.7099,-1.6669,-1.6113,-1.5932,-1.5657,-1.5499,-1.5385,-1.5243,-1.52,-1.5189,-1.5265,-1.5201,-1.5001,-1.4775,-1.4666,-1.4481,-1.4185,-1.4206,-1.4185,-1.3975,-1.3615,-1.3396,-1.3253,-1.2753,-1.2001,-1.1645,-1.0815,-0.9771,-0.8977,-0.8796,-0.8479,-2.2379,-2.207,-2.1891,-2.1622,-2.1323,-2.1283,-2.1386,-2.1484,-2.1352,-2.1336,-2.1363,-2.134,-2.1289,-2.1254,-2.0908,-2.0658,-2.057,-2.0279,-2.0227,-2.0276,-1.9594,-1.9402,-1.9551,-1.9368,-1.9308,-1.9302,-1.9302,-1.9302,-1.9276,-1.9276,-1.9307,-1.9426,-1.9557,-1.9557,-1.9432,-1.9351,-1.9136,-1.89,-1.8676,-1.8612,-1.8614,-1.8175,-1.8018,-1.8232,-1.7884,-1.798,-1.8699,-1.8366,-1.8334,-1.8726,-1.895,-1.9104,-1.9098,-1.8923,-1.8694,-1.8498,-1.8429,-1.8639,-1.906,-1.9104,-1.9104,-1.9128,-1.9352,-1.9539,-1.9642,-1.9866,-1.9983,-1.9971,-1.9836,-1.9658,-1.9476,-1.9274,-1.9183,-1.9256,-1.8741,-1.8418,-1.8273,-1.8088,-1.7903,-1.7756,-1.7786,-1.7732,-1.7449,-1.7183,-1.6884,-1.6751,-1.6639,-1.6581,-1.6091,-1.5964,-1.5837,-1.5566,-1.5505,-1.5395,-1.5133,-1.5021,-1.486,-1.4709,-1.4674,-1.4592,-1.4383,-1.4533,-1.451,-1.4225,-1.3829,-1.3579,-1.3543,-1.3186,-1.2757,-1.233,-1.1609,-1.0711,-0.9951,-0.9771,-0.9552,-2.436,-2.419,-2.3577,-2.2989,-2.2791,-2.2722,-2.2557,-2.2269,-2.2585,-2.2784,-2.2723,-2.2715,-2.2763,-2.2619,-2.1386,-2.0968,-2.1323,-2.1304,-2.1351,-2.1482,-2.1383,-2.1256,-2.1009,-2.0989,-2.0971,-2.0865,-2.0813,-2.0819,-2.0876,-2.0932,-2.116,-2.1413,-2.1098,-2.1148,-2.1238,-2.1034,-2.0939,-2.0718,-2.0234,-2.0106,-2.0265,-1.9769,-1.9144,-1.8658,-1.8226,-1.8393,-1.8912,-1.8764,-1.8731,-1.9046,-1.9078,-1.9104,-1.9104,-1.9086,-1.9068,-1.9042,-1.9042,-1.9048,-1.9098,-1.9136,-1.9168,-1.9172,-1.95,-1.9678,-2.0047,-2.0328,-2.0493,-2.0357,-2.0435,-2.0227,-1.9792,-1.9603,-1.9346,-1.9189,-1.8946,-1.8687,-1.8418,-1.8637,-1.8407,-1.8014,-1.8076,-1.8005,-1.7526,-1.7098,-1.7071,-1.7047,-1.6754,-1.6453,-1.6642,-1.6473,-1.6243,-1.6215,-1.6182,-1.6028,-1.5376,-1.5331,-1.5196,-1.508,-1.5018,-1.4784,-1.4784,-1.4789,-1.4699,-1.4585,-1.4372,-1.4154,-1.3868,-1.3543,-1.315,-1.2757,-1.2406,-1.1685,-1.1067,-1.0671,-1.0444,-2.402,-2.3747,-2.327,-2.2996,-2.29,-2.29,-2.2928,-2.2996,-2.2928,-2.3037,-2.3167,-2.2996,-2.29,-2.2866,-2.2345,-2.219,-2.2331,-2.2092,-2.2151,-2.2338,-2.1998,-2.1859,-2.1977,-2.1836,-2.1742,-2.1715,-2.1547,-2.1422,-2.1422,-2.1396,-2.1575,-2.1849,-2.1795,-2.1802,-2.1869,-2.1795,-2.1612,-2.1378,-2.1117,-2.0838,-2.0599,-2.0303,-1.9963,-1.9608,-1.9418,-1.9252,-1.9104,-1.9174,-1.9104,-1.879,-1.8988,-1.9104,-1.9104,-1.9104,-1.9104,-1.9104,-1.9104,-1.9104,-1.9136,-1.9482,-1.9731,-1.9794,-2.0585,-2.1063,-2.1283,-2.1671,-2.1955,-2.1955,-2.1962,-2.1768,-2.1309,-2.0579,-2.0023,-2.0039,-1.9803,-1.9593,-1.945,-1.9381,-1.9169,-1.8878,-1.8574,-1.8178,-1.7912,-1.7395,-1.7073,-1.719,-1.6904,-1.6789,-1.6849,-1.6694,-1.652,-1.6517,-1.6631,-1.6609,-1.6256,-1.6136,-1.6074,-1.585,-1.5701,-1.5473,-1.5391,-1.5313,-1.5239,-1.4901,-1.4763,-1.4443,-1.4082,-1.3718,-1.3388,-1.315,-1.2832,-1.2539,-1.2216,-1.1714,-1.143,-2.4808,-2.4428,-2.3952,-2.3686,-2.357,-2.3447,-2.355,-2.3747,-2.3782,-2.3857,-2.3918,-2.3823,-2.3713,-2.3618,-2.3618,-2.3618,-2.3543,-2.3099,-2.3052,-2.3385,-2.2983,-2.288,-2.2957,-2.2837,-2.2747,-2.2719,-2.2514,-2.2404,-2.2404,-2.2404,-2.2602,-2.2911,-2.2809,-2.2802,-2.2864,-2.2802,-2.259,-2.2379,-2.2247,-2.1909,-2.1396,-2.113,-2.0863,-2.0654,-2.0691,-2.0373,-1.9647,-1.9903,-1.9903,-1.952,-1.9647,-1.9743,-1.9743,-1.9743,-1.9743,-1.9743,-1.9743,-1.9743,-1.9775,-2.0176,-2.043,-2.0456,-2.1371,-2.2017,-2.2057,-2.2559,-2.2847,-2.29,-2.2893,-2.2793,-2.249,-2.1724,-2.1124,-2.1127,-2.0959,-2.0731,-2.0521,-2.0217,-1.9856,-1.9369,-1.8846,-1.848,-1.8301,-1.789,-1.773,-1.7706,-1.7525,-1.7422,-1.7462,-1.7275,-1.7088,-1.7098,-1.7265,-1.7361,-1.7267,-1.7234,-1.6797,-1.6524,-1.623,-1.6056,-1.5863,-1.5828,-1.5629,-1.5252,-1.4901,-1.4621,-1.4281,-1.3881,-1.3658,-1.3484,-1.3287,-1.3049,-1.278,-1.2613,-1.2255,-2.69,-2.6424,-2.5861,-2.5255,-2.4909,-2.4604,-2.4503,-2.464,-2.5134,-2.5141,-2.4975,-2.5269,-2.5086,-2.5018,-2.4849,-2.4991,-2.4781,-2.4197,-2.4137,-2.4438,-2.4454,-2.4261,-2.4054,-2.4014,-2.3963,-2.3974,-2.4036,-2.4021,-2.3923,-2.3898,-2.409,-2.4393,-2.4141,-2.4112,-2.4543,-2.4156,-2.4014,-2.388,-2.3599,-2.3302,-2.3039,-2.2293,-2.1821,-2.1592,-2.179,-2.1544,-2.0672,-2.0919,-2.0976,-2.0919,-2.0951,-2.1039,-2.0912,-2.0912,-2.1007,-2.0944,-2.1014,-2.1046,-2.1014,-2.1046,-2.1166,-2.1201,-2.1702,-2.2167,-2.2294,-2.2734,-2.3092,-2.3113,-2.3119,-2.3017,-2.3079,-2.2963,-2.2611,-2.2131,-2.2083,-2.1907,-2.1426,-2.1064,-2.0526,-1.9758,-1.9332,-1.878,-1.8615,-1.8571,-1.8641,-1.8609,-1.8513,-1.838,-1.8365,-1.8149,-1.8101,-1.8004,-1.8012,-1.8036,-1.82,-1.8291,-1.7643,-1.7083,-1.6772,-1.652,-1.6325,-1.6225,-1.6013,-1.5643,-1.5119,-1.4803,-1.4349,-1.4016,-1.3929,-1.3742,-1.3606,-1.3473,-1.3291,-1.3079,-1.2864,-2.6373,-2.6272,-2.6037,-2.5869,-2.5727,-2.539,-2.5373,-2.555,-2.5406,-2.5278,-2.5349,-2.529,-2.5187,-2.5127,-2.5093,-2.5093,-2.5059,-2.4849,-2.4824,-2.4913,-2.4932,-2.488,-2.4793,-2.4778,-2.4668,-2.4485,-2.4448,-2.4456,-2.4423,-2.4448,-2.4617,-2.4851,-2.4836,-2.4836,-2.4917,-2.4836,-2.4685,-2.4377,-2.4276,-2.3759,-2.2781,-2.2497,-2.2127,-2.1701,-2.1922,-2.2017,-2.1978,-2.1853,-2.145,-2.0856,-2.0982,-2.1102,-2.1102,-2.1102,-2.1102,-2.1109,-2.133,-2.1324,-2.1235,-2.1734,-2.1985,-2.1985,-2.256,-2.3046,-2.3157,-2.3658,-2.4013,-2.4089,-2.4265,-2.4408,-2.4408,-2.4401,-2.3888,-2.2741,-2.2665,-2.2612,-2.2158,-2.1984,-2.1915,-2.1741,-2.1084,-2.0496,-1.9996,-1.9715,-1.9249,-1.9134,-1.8942,-1.8767,-1.8663,-1.8792,-1.8564,-1.8232,-1.8444,-1.8553,-1.8525,-1.8468,-1.809,-1.7624,-1.7369,-1.7057,-1.6822,-1.6571,-1.6357,-1.5926,-1.5439,-1.4914,-1.446,-1.4203,-1.4125,-1.3957,-1.3794,-1.3702,-1.3698,-1.3507,-1.3257,-2.644,-2.6339,-2.6298,-2.6315,-2.6313,-2.6076,-2.6205,-2.6439,-2.6091,-2.5891,-2.592,-2.5768,-2.5599,-2.5491,-2.5356,-2.5296,-2.5288,-2.5194,-2.5093,-2.5093,-2.5093,-2.5093,-2.5093,-2.5093,-2.5005,-2.4822,-2.4785,-2.4785,-2.4785,-2.4793,-2.4888,-2.5056,-2.5093,-2.5086,-2.5093,-2.5093,-2.4909,-2.457,-2.4488,-2.3927,-2.293,-2.27,-2.2378,-2.1925,-2.2104,-2.2324,-2.2425,-2.2418,-2.2174,-2.167,-2.1734,-2.1828,-2.1859,-2.1859,-2.1828,-2.1891,-2.2017,-2.208,-2.1954,-2.2425,-2.2699,-2.2656,-2.316,-2.363,-2.383,-2.4331,-2.4617,-2.48,-2.4935,-2.5093,-2.5059,-2.5059,-2.4611,-2.3857,-2.3616,-2.3288,-2.2833,-2.2658,-2.2545,-2.2398,-2.197,-2.1536,-2.0996,-2.0622,-2.0028,-1.9833,-1.9499,-1.9277,-1.9204,-1.9284,-1.8968,-1.8743,-1.8802,-1.8804,-1.8662,-1.8538,-1.8433,-1.818,-1.7954,-1.7634,-1.7328,-1.7052,-1.681,-1.6209,-1.5647,-1.5084,-1.463,-1.4432,-1.4294,-1.4133,-1.3968,-1.3929,-1.3857,-1.3734,-1.3543,-2.7,-2.6733,-2.6749,-2.6783,-2.6759,-2.6698,-2.6878,-2.7215,-2.7073,-2.6873,-2.6698,-2.6588,-2.6362,-2.6045,-2.57,-2.5599,-2.5498,-2.5296,-2.5127,-2.5093,-2.5093,-2.5093,-2.5093,-2.5093,-2.5071,-2.5056,-2.5056,-2.5064,-2.5034,-2.5042,-2.5086,-2.5093,-2.5093,-2.5093,-2.5093,-2.5093,-2.4916,-2.4638,-2.4508,-2.397,-2.3063,-2.2946,-2.2713,-2.2177,-2.2393,-2.248,-2.2386,-2.2738,-2.3043,-2.3074,-2.2955,-2.2967,-2.3094,-2.3111,-2.308,-2.3063,-2.314,-2.3078,-2.3087,-2.3065,-2.3104,-2.3114,-2.3379,-2.3727,-2.406,-2.4382,-2.469,-2.4958,-2.5042,-2.5093,-2.5093,-2.5093,-2.5025,-2.5056,-2.4568,-2.408,-2.3365,-2.3238,-2.3132,-2.2662,-2.2269,-2.2137,-2.1872,-2.1634,-2.1291,-2.0851,-2.0444,-2.0252,-1.9906,-1.9762,-1.9657,-1.9465,-1.9216,-1.9047,-1.8883,-1.8538,-1.8404,-1.8363,-1.8188,-1.7972,-1.7685,-1.7409,-1.7057,-1.6457,-1.5931,-1.5328,-1.4923,-1.4782,-1.4477,-1.4199,-1.4096,-1.409,-1.4002,-1.3857,-1.3793,-2.7142,-2.7091,-2.7352,-2.7442,-2.7419,-2.718,-2.7419,-2.7776,-2.7154,-2.6977,-2.6924,-2.6778,-2.6411,-2.5817,-2.5902,-2.5734,-2.5397,-2.5397,-2.5296,-2.5127,-2.5093,-2.5093,-2.5093,-2.5093,-2.5093,-2.5093,-2.5093,-2.5093,-2.5093,-2.5093,-2.5093,-2.5093,-2.5093,-2.5093,-2.5093,-2.5093,-2.5059,-2.488,-2.4427,-2.398,-2.343,-2.2933,-2.2638,-2.2513,-2.255,-2.2675,-2.2793,-2.3019,-2.3106,-2.3128,-2.3347,-2.3471,-2.3442,-2.3618,-2.3713,-2.3745,-2.3774,-2.3678,-2.3515,-2.3471,-2.3449,-2.3474,-2.3567,-2.3735,-2.4057,-2.4412,-2.4624,-2.4771,-2.4932,-2.5093,-2.5093,-2.5093,-2.5093,-2.5056,-2.4814,-2.4601,-2.4438,-2.4351,-2.4194,-2.4243,-2.3981,-2.3631,-2.3275,-2.2917,-2.248,-2.1782,-2.1324,-2.1006,-2.0521,-2.0284,-2.0173,-1.975,-1.9471,-1.9267,-1.9028,-1.8643,-1.8439,-1.8404,-1.8293,-1.8182,-1.7866,-1.755,-1.7163,-1.6669,-1.6315,-1.5784,-1.5434,-1.515,-1.4768,-1.4407,-1.4357,-1.4363,-1.4092,-1.3904,-1.3904,-2.7431,-2.7439,-2.7611,-2.7699,-2.7665,-2.7487,-2.7733,-2.8052,-2.762,-2.7295,-2.7318,-2.7205,-2.6816,-2.628,-2.6138,-2.5902,-2.5566,-2.5431,-2.5262,-2.5127,-2.5093,-2.5093,-2.5093,-2.5093,-2.5093,-2.5093,-2.5093,-2.5093,-2.5093,-2.5093,-2.5093,-2.5093,-2.5093,-2.5093,-2.5093,-2.5093,-2.4938,-2.4638,-2.4202,-2.3797,-2.3191,-2.2968,-2.2744,-2.2677,-2.2699,-2.2926,-2.3082,-2.3106,-2.3106,-2.3142,-2.3281,-2.3391,-2.3406,-2.3559,-2.3735,-2.3869,-2.3765,-2.3669,-2.3794,-2.3691,-2.3669,-2.3784,-2.3793,-2.3969,-2.4232,-2.4507,-2.4624,-2.4844,-2.5132,-2.5206,-2.5127,-2.5093,-2.5093,-2.5071,-2.4917,-2.4836,-2.4902,-2.4796,-2.4814,-2.4843,-2.4795,-2.4604,-2.4265,-2.3884,-2.3304,-2.2613,-2.1981,-2.1524,-2.1041,-2.0867,-2.0631,-2.0243,-1.9825,-1.9581,-1.9337,-1.8953,-1.8573,-1.8503,-1.8363,-1.8258,-1.8077,-1.7761,-1.7515,-1.7163,-1.6704,-1.6315,-1.5966,-1.5576,-1.5155,-1.487,-1.4799,-1.4621,-1.4403,-1.4154,-1.4154,-2.7643,-2.7643,-2.7649,-2.7631,-2.7623,-2.7605,-2.7692,-2.8021,-2.7939,-2.7807,-2.7626,-2.7665,-2.7276,-2.7045,-2.6316,-2.6013,-2.5833,-2.5331,-2.5158,-2.5071,-2.5093,-2.5093,-2.5093,-2.5093,-2.5093,-2.5093,-2.5093,-2.5093,-2.5093,-2.5093,-2.5049,-2.5005,-2.5005,-2.499,-2.4888,-2.4924,-2.4614,-2.4196,-2.4018,-2.3592,-2.3089,-2.2996,-2.2928,-2.2788,-2.2918,-2.3043,-2.3106,-2.3106,-2.3106,-2.3106,-2.3135,-2.3254,-2.3247,-2.3263,-2.3461,-2.3691,-2.3613,-2.3588,-2.3888,-2.3774,-2.3781,-2.4067,-2.4162,-2.4309,-2.458,-2.4697,-2.48,-2.5005,-2.5382,-2.5329,-2.5161,-2.5127,-2.5119,-2.5119,-2.5071,-2.4924,-2.4741,-2.4858,-2.4924,-2.4675,-2.488,-2.4829,-2.4602,-2.4278,-2.3952,-2.3345,-2.2797,-2.2385,-2.1794,-2.1386,-2.1179,-2.0908,-2.0451,-1.997,-1.9651,-1.9332,-1.8918,-1.8638,-1.8468,-1.8363,-1.8328,-1.8112,-1.7972,-1.7691,-1.7268,-1.6845,-1.6461,-1.6077,-1.5647,-1.5332,-1.5226,-1.5084,-1.4906,-1.4657,-1.4514,-2.732,-2.731,-2.7309,-2.7317,-2.7248,-2.7044,-2.7119,-2.7424,-2.7425,-2.7429,-2.7385,-2.7589,-2.7184,-2.636,-2.6188,-2.5768,-2.5194,-2.5118,-2.5089,-2.5086,-2.5093,-2.5093,-2.5093,-2.5093,-2.5093,-2.5093,-2.5093,-2.5093,-2.5093,-2.5071,-2.4961,-2.4771,-2.4756,-2.4587,-2.4412,-2.4426,-2.4276,-2.4058,-2.3822,-2.3595,-2.3349,-2.3138,-2.3072,-2.2986,-2.3074,-2.3106,-2.3106,-2.3106,-2.3106,-2.3164,-2.3342,-2.3539,-2.3741,-2.3998,-2.4146,-2.4154,-2.4037,-2.3949,-2.4044,-2.3938,-2.3891,-2.4452,-2.458,-2.4631,-2.4939,-2.5028,-2.5031,-2.5119,-2.5194,-2.5259,-2.5184,-2.5348,-2.5315,-2.518,-2.5119,-2.5002,-2.4712,-2.4683,-2.4705,-2.4639,-2.4653,-2.4671,-2.4593,-2.4723,-2.4409,-2.3965,-2.357,-2.3236,-2.266,-2.1966,-2.1593,-2.1317,-2.07,-2.0179,-1.9895,-1.9547,-1.9163,-1.8848,-1.8643,-1.8398,-1.8398,-1.8328,-1.8182,-1.8007,-1.7796,-1.7409,-1.6991,-1.6673,-1.628,-1.6001,-1.5683,-1.551,-1.5297,-1.5084,-1.4906,-2.7413,-2.7429,-2.7416,-2.7366,-2.7191,-2.704,-2.7048,-2.7154,-2.7177,-2.7181,-2.7199,-2.7276,-2.6894,-2.6366,-2.6086,-2.5637,-2.5378,-2.5273,-2.5226,-2.5138,-2.5093,-2.5093,-2.5093,-2.5093,-2.5093,-2.5086,-2.5093,-2.5093,-2.5093,-2.5071,-2.5012,-2.4822,-2.4675,-2.4565,-2.4324,-2.4137,-2.4045,-2.3881,-2.3723,-2.3538,-2.3357,-2.3204,-2.3097,-2.3111,-2.3106,-2.3106,-2.3106,-2.3106,-2.3106,-2.3181,-2.3407,-2.3597,-2.3667,-2.395,-2.4202,-2.4306,-2.4391,-2.443,-2.4451,-2.4587,-2.4742,-2.5011,-2.5197,-2.5394,-2.5521,-2.5566,-2.5469,-2.5413,-2.5486,-2.5553,-2.536,-2.5267,-2.5312,-2.5341,-2.5194,-2.5072,-2.5041,-2.493,-2.4675,-2.4529,-2.4507,-2.4485,-2.4543,-2.4683,-2.4682,-2.4147,-2.3741,-2.3397,-2.3236,-2.2585,-2.1938,-2.1455,-2.0839,-2.0353,-2.0075,-1.9756,-1.9372,-1.9093,-1.8848,-1.8608,-1.8433,-1.8398,-1.8328,-1.8182,-1.8007,-1.7866,-1.7479,-1.7193,-1.688,-1.6527,-1.6174,-1.5931,-1.5683,-1.5505,-1.5363,-2.7552,-2.7544,-2.7476,-2.7276,-2.6991,-2.6908,-2.6831,-2.6837,-2.7012,-2.6923,-2.6991,-2.6753,-2.6701,-2.6435,-2.5829,-2.569,-2.5658,-2.5508,-2.5163,-2.5119,-2.5093,-2.5034,-2.5012,-2.5034,-2.499,-2.4976,-2.4961,-2.499,-2.5049,-2.4983,-2.48,-2.4829,-2.4573,-2.428,-2.4218,-2.4071,-2.3757,-2.352,-2.3579,-2.3454,-2.3245,-2.3169,-2.3223,-2.3238,-2.323,-2.3293,-2.3346,-2.3359,-2.3295,-2.3249,-2.3574,-2.3565,-2.3495,-2.3591,-2.3853,-2.4207,-2.4434,-2.4702,-2.4945,-2.5226,-2.5428,-2.5637,-2.5895,-2.6022,-2.6029,-2.5996,-2.5897,-2.584,-2.584,-2.5926,-2.5695,-2.5563,-2.5508,-2.5569,-2.5431,-2.539,-2.5457,-2.5322,-2.4933,-2.4426,-2.4448,-2.4485,-2.4353,-2.4353,-2.4412,-2.4371,-2.3947,-2.3634,-2.3527,-2.3133,-2.2448,-2.1766,-2.1151,-2.0631,-2.0353,-2.004,-1.9657,-1.9442,-1.9163,-1.8883,-1.8643,-1.8608,-1.8573,-1.8358,-1.8182,-1.8042,-1.7866,-1.7615,-1.7298,-1.6946,-1.6628,-1.631,-1.6103,-1.5926,-1.5749,-2.6853,-2.6853,-2.6491,-2.6176,-2.591,-2.5902,-2.5835,-2.5566,-2.6147,-2.6292,-2.6342,-2.6528,-2.6499,-2.6215,-2.5533,-2.5109,-2.5111,-2.507,-2.5022,-2.509,-2.5086,-2.4998,-2.4851,-2.499,-2.4844,-2.447,-2.4558,-2.4829,-2.4844,-2.4587,-2.4456,-2.4265,-2.4009,-2.3727,-2.3545,-2.3296,-2.334,-2.3303,-2.3427,-2.3369,-2.323,-2.3288,-2.3436,-2.3447,-2.3456,-2.358,-2.3834,-2.3897,-2.3927,-2.3989,-2.4259,-2.4356,-2.4267,-2.4302,-2.447,-2.4521,-2.4615,-2.4892,-2.5156,-2.5228,-2.5518,-2.5838,-2.6138,-2.6138,-2.6138,-2.613,-2.6095,-2.6039,-2.6013,-2.605,-2.6049,-2.5855,-2.5919,-2.5975,-2.5928,-2.5801,-2.5667,-2.5495,-2.52,-2.4576,-2.4529,-2.4485,-2.4302,-2.4159,-2.428,-2.4368,-2.421,-2.4163,-2.4218,-2.363,-2.2893,-2.2173,-2.1524,-2.1047,-2.0631,-2.0324,-2.0011,-1.9866,-1.9616,-1.9302,-1.9093,-1.8959,-1.8819,-1.8603,-1.8433,-1.8293,-1.8112,-1.7937,-1.7756,-1.7474,-1.7082,-1.6694,-1.6452,-1.6245,-1.5961,-2.6967,-2.6934,-2.6733,-2.6574,-2.6432,-2.6432,-2.6231,-2.5962,-2.6071,-2.6238,-2.6298,-2.6234,-2.6193,-2.6079,-2.5866,-2.5455,-2.5219,-2.5336,-2.5275,-2.5187,-2.5078,-2.5034,-2.4844,-2.5027,-2.491,-2.469,-2.4653,-2.458,-2.4587,-2.4492,-2.4225,-2.4035,-2.3757,-2.3515,-2.3354,-2.323,-2.3142,-2.3171,-2.3267,-2.3296,-2.3135,-2.3296,-2.3387,-2.357,-2.3611,-2.3704,-2.3827,-2.4051,-2.3994,-2.3998,-2.4483,-2.4567,-2.4611,-2.4798,-2.5006,-2.4909,-2.4982,-2.5145,-2.5439,-2.5631,-2.6144,-2.636,-2.6532,-2.6674,-2.6607,-2.6525,-2.6329,-2.6172,-2.613,-2.6032,-2.582,-2.5998,-2.6066,-2.6105,-2.6116,-2.6055,-2.5861,-2.5727,-2.5249,-2.4731,-2.4606,-2.4466,-2.4152,-2.4101,-2.4199,-2.4265,-2.4331,-2.4514,-2.4719,-2.4116,-2.3236,-2.2379,-2.1628,-2.1047,-2.07,-2.0533,-2.0289,-2.0144,-2.0005,-1.9721,-1.9407,-1.9233,-1.9028,-1.8819,-1.8679,-1.8503,-1.8363,-1.8188,-1.8077,-1.7937,-1.7545,-1.7117,-1.6805,-1.6487,-1.6209,-2.71,-2.71,-2.71,-2.7034,-2.7,-2.7067,-2.6867,-2.6566,-2.6339,-2.6339,-2.6453,-2.6011,-2.5931,-2.6094,-2.6047,-2.5851,-2.5623,-2.5736,-2.5431,-2.5292,-2.5024,-2.4976,-2.499,-2.5049,-2.4968,-2.4675,-2.4814,-2.4558,-2.4507,-2.4412,-2.4346,-2.4188,-2.3874,-2.3698,-2.3672,-2.3508,-2.3325,-2.3303,-2.3296,-2.3288,-2.3223,-2.3208,-2.3344,-2.3642,-2.3704,-2.3828,-2.4206,-2.4328,-2.4323,-2.4409,-2.4693,-2.4953,-2.4662,-2.5151,-2.5444,-2.5304,-2.5489,-2.5585,-2.5834,-2.6231,-2.6586,-2.68,-2.7034,-2.7134,-2.7142,-2.6877,-2.6624,-2.6337,-2.6266,-2.6236,-2.6051,-2.6084,-2.6274,-2.639,-2.6385,-2.6267,-2.6041,-2.5791,-2.5381,-2.4959,-2.4716,-2.4389,-2.4048,-2.3852,-2.3874,-2.3903,-2.3969,-2.4302,-2.4437,-2.4278,-2.3509,-2.2482,-2.1662,-2.1012,-2.07,-2.07,-2.0498,-2.0353,-2.0249,-2.0075,-1.9756,-1.9442,-1.9233,-1.8959,-1.8819,-1.8643,-1.8538,-1.8328,-1.8077,-1.7901,-1.7756,-1.7439,-1.6875,-1.6558,-1.628,-2.6759,-2.6767,-2.6767,-2.6566,-2.6339,-2.6633,-2.6532,-2.6238,-2.6465,-2.644,-2.6282,-2.6125,-2.6088,-2.6046,-2.5773,-2.5669,-2.5449,-2.5126,-2.5076,-2.5182,-2.4863,-2.4675,-2.4727,-2.4976,-2.4826,-2.4657,-2.4892,-2.499,-2.48,-2.4441,-2.4338,-2.4393,-2.4162,-2.4038,-2.4037,-2.3891,-2.4009,-2.3979,-2.391,-2.3757,-2.353,-2.3503,-2.3702,-2.3928,-2.4092,-2.437,-2.4906,-2.4945,-2.4914,-2.5255,-2.5389,-2.5494,-2.5445,-2.548,-2.5562,-2.5539,-2.5613,-2.5753,-2.6019,-2.6384,-2.681,-2.6985,-2.7167,-2.72,-2.7134,-2.7134,-2.6936,-2.6686,-2.6614,-2.6594,-2.6459,-2.6557,-2.6776,-2.6838,-2.6806,-2.6561,-2.6271,-2.6014,-2.5565,-2.5055,-2.4784,-2.4276,-2.3863,-2.3672,-2.3559,-2.3588,-2.3691,-2.406,-2.4247,-2.4118,-2.3884,-2.2934,-2.1938,-2.122,-2.0873,-2.0839,-2.0665,-2.0561,-2.0463,-2.0353,-2.0075,-1.9756,-1.9302,-1.9098,-1.8959,-1.8714,-1.8503,-1.8258,-1.8042,-1.7861,-1.7721,-1.7298,-1.6765,-1.6523,-1.6391,-2.6867,-2.67,-2.67,-2.6599,-2.6465,-2.6625,-2.6465,-2.6238,-2.6532,-2.6633,-2.6476,-2.6444,-2.6364,-2.6051,-2.5575,-2.5219,-2.502,-2.4705,-2.4595,-2.4756,-2.4518,-2.4426,-2.4668,-2.4923,-2.4871,-2.4859,-2.5078,-2.5218,-2.5025,-2.4687,-2.4492,-2.4538,-2.4304,-2.4226,-2.4375,-2.4223,-2.3979,-2.3786,-2.3618,-2.3464,-2.3393,-2.3514,-2.3768,-2.4092,-2.4286,-2.4735,-2.5101,-2.5235,-2.5283,-2.5553,-2.5754,-2.5789,-2.5689,-2.5699,-2.575,-2.5305,-2.5504,-2.5764,-2.6081,-2.6277,-2.6657,-2.7053,-2.7151,-2.7142,-2.7042,-2.71,-2.7067,-2.6725,-2.67,-2.6696,-2.6713,-2.669,-2.679,-2.6879,-2.7029,-2.6816,-2.6466,-2.619,-2.5822,-2.5338,-2.4817,-2.4371,-2.3934,-2.3672,-2.363,-2.3691,-2.3815,-2.4086,-2.4232,-2.4173,-2.3896,-2.3447,-2.242,-2.1455,-2.122,-2.1081,-2.0804,-2.0665,-2.0637,-2.0527,-2.0388,-2.0034,-1.9657,-1.9308,-1.9128,-1.8848,-1.8503,-1.8258,-1.8112,-1.7896,-1.7645,-1.7188,-1.68,-1.6664,-1.6555,-2.6767,-2.6566,-2.6767,-2.6833,-2.6826,-2.6826,-2.6666,-2.644,-2.67,-2.6792,-2.6661,-2.6567,-2.631,-2.5937,-2.5429,-2.5153,-2.4777,-2.4557,-2.4396,-2.424,-2.4122,-2.4243,-2.4558,-2.4871,-2.4985,-2.5105,-2.5212,-2.5275,-2.5111,-2.4871,-2.4769,-2.4822,-2.4608,-2.4599,-2.4707,-2.4697,-2.4507,-2.43,-2.3982,-2.3742,-2.3667,-2.3884,-2.4003,-2.4212,-2.4493,-2.4835,-2.5066,-2.5221,-2.5428,-2.5578,-2.5766,-2.5758,-2.5542,-2.5681,-2.5601,-2.5323,-2.5425,-2.5694,-2.5921,-2.6118,-2.6414,-2.6752,-2.7073,-2.6999,-2.6975,-2.7067,-2.7067,-2.6733,-2.6851,-2.6802,-2.674,-2.6775,-2.6884,-2.6901,-2.6907,-2.6798,-2.669,-2.6421,-2.6054,-2.5545,-2.5085,-2.4679,-2.4237,-2.3825,-2.3725,-2.3796,-2.3969,-2.4166,-2.4257,-2.4228,-2.4017,-2.3686,-2.266,-2.1869,-2.1869,-2.1593,-2.1185,-2.0839,-2.0845,-2.0602,-2.0388,-2.0284,-2.004,-1.9727,-1.9372,-1.9093,-1.8819,-1.8498,-1.8182,-1.7896,-1.7575,-1.7193,-1.6911,-1.6739,-1.665,-2.6171,-2.6213,-2.6875,-2.7134,-2.7134,-2.7167,-2.7134,-2.7,-2.71,-2.6951,-2.6665,-2.6333,-2.5858,-2.5366,-2.5368,-2.525,-2.499,-2.4415,-2.4289,-2.4195,-2.4045,-2.4139,-2.4492,-2.4779,-2.4912,-2.5081,-2.5252,-2.5243,-2.5109,-2.5031,-2.5204,-2.5431,-2.5027,-2.5221,-2.5292,-2.5164,-2.5111,-2.4969,-2.4712,-2.4543,-2.4498,-2.4605,-2.4645,-2.4376,-2.472,-2.5102,-2.5132,-2.544,-2.5649,-2.5733,-2.5822,-2.572,-2.5572,-2.5671,-2.5572,-2.5362,-2.5359,-2.5556,-2.5656,-2.5927,-2.6175,-2.6351,-2.655,-2.6811,-2.6887,-2.7078,-2.7018,-2.6786,-2.6853,-2.6918,-2.6904,-2.6943,-2.6978,-2.7037,-2.6972,-2.6892,-2.6794,-2.6683,-2.6316,-2.578,-2.5345,-2.4979,-2.4512,-2.4114,-2.3662,-2.3691,-2.3874,-2.4086,-2.4389,-2.4415,-2.4255,-2.3823,-2.2756,-2.231,-2.2619,-2.2282,-2.1628,-2.1289,-2.1185,-2.0741,-2.0289,-2.0255,-2.0318,-2.0005,-1.9657,-1.9413,-1.9093,-1.8708,-1.8323,-1.7861,-1.7504,-1.7223,-1.687,-1.6611,-1.6556,-2.6674,-2.6532,-2.7008,-2.7067,-2.6892,-2.6892,-2.69,-2.6934,-2.71,-2.6999,-2.6686,-2.6291,-2.576,-2.5242,-2.4937,-2.4805,-2.4439,-2.4036,-2.3977,-2.3955,-2.3931,-2.4188,-2.459,-2.4983,-2.5358,-2.5357,-2.5366,-2.5256,-2.5096,-2.5083,-2.5294,-2.5397,-2.5246,-2.5344,-2.5413,-2.5281,-2.517,-2.5133,-2.4882,-2.4592,-2.4983,-2.4805,-2.4899,-2.5169,-2.5169,-2.5664,-2.5977,-2.592,-2.6056,-2.6191,-2.6199,-2.6001,-2.5763,-2.5842,-2.5716,-2.5427,-2.5439,-2.5391,-2.5398,-2.5667,-2.5914,-2.6208,-2.6319,-2.6478,-2.6709,-2.6764,-2.6826,-2.679,-2.6823,-2.6926,-2.7067,-2.6959,-2.6885,-2.7067,-2.7094,-2.699,-2.6926,-2.6839,-2.6759,-2.6335,-2.5789,-2.53,-2.4842,-2.4348,-2.3903,-2.3551,-2.3799,-2.4002,-2.4291,-2.4643,-2.4525,-2.4299,-2.3372,-2.3099,-2.3413,-2.2797,-2.2007,-2.1841,-2.1669,-2.1185,-2.077,-2.0498,-2.0498,-2.0179,-1.9901,-1.9657,-1.9302,-1.8848,-1.8422,-1.8037,-1.7685,-1.7399,-1.6986,-1.6538,-1.6496,-2.68,-2.6733,-2.6967,-2.6967,-2.6867,-2.6826,-2.6833,-2.69,-2.71,-2.693,-2.6542,-2.6263,-2.5787,-2.5188,-2.4906,-2.4618,-2.4355,-2.4084,-2.3891,-2.3896,-2.403,-2.4284,-2.4679,-2.4999,-2.521,-2.5426,-2.5419,-2.5259,-2.5098,-2.5102,-2.52,-2.5279,-2.5239,-2.5326,-2.5412,-2.5105,-2.4914,-2.5029,-2.4684,-2.4525,-2.5039,-2.4938,-2.4911,-2.5446,-2.5601,-2.5805,-2.6157,-2.6164,-2.6304,-2.6418,-2.6476,-2.6384,-2.6244,-2.6086,-2.5989,-2.5745,-2.5588,-2.55,-2.5461,-2.5399,-2.5723,-2.6088,-2.6184,-2.6263,-2.6383,-2.6637,-2.6922,-2.6881,-2.689,-2.6967,-2.72,-2.7067,-2.7,-2.7134,-2.71,-2.702,-2.7053,-2.7005,-2.7062,-2.6925,-2.6358,-2.5826,-2.5348,-2.4851,-2.4149,-2.3793,-2.3851,-2.4053,-2.4276,-2.4623,-2.494,-2.4679,-2.4197,-2.4163,-2.4238,-2.3311,-2.2592,-2.2797,-2.2523,-2.1938,-2.149,-2.1185,-2.0873,-2.0665,-2.0353,-1.9936,-1.9547,-1.9198,-1.8708,-1.8182,-1.7861,-1.758,-1.6986,-1.658,-1.6523,-2.6406,-2.67,-2.6725,-2.69,-2.7134,-2.7167,-2.7167,-2.7126,-2.7127,-2.6836,-2.6279,-2.6184,-2.5786,-2.5216,-2.5027,-2.4834,-2.4633,-2.451,-2.4355,-2.4169,-2.4229,-2.4374,-2.4566,-2.4868,-2.5166,-2.5114,-2.5168,-2.5164,-2.5101,-2.5101,-2.5131,-2.5161,-2.5147,-2.5241,-2.5533,-2.5258,-2.5264,-2.5408,-2.4832,-2.4874,-2.5069,-2.513,-2.5202,-2.5547,-2.5897,-2.6133,-2.6205,-2.6515,-2.6567,-2.6412,-2.6664,-2.6452,-2.5913,-2.6358,-2.6268,-2.5735,-2.6213,-2.6322,-2.6101,-2.5507,-2.5619,-2.6057,-2.612,-2.6128,-2.6574,-2.6875,-2.7034,-2.6907,-2.707,-2.7126,-2.72,-2.72,-2.7167,-2.7167,-2.71,-2.71,-2.7134,-2.7034,-2.7034,-2.7008,-2.6798,-2.6448,-2.5939,-2.5334,-2.4526,-2.4088,-2.4023,-2.4114,-2.4294,-2.4624,-2.5034,-2.4958,-2.4645,-2.4645,-2.4476,-2.3686,-2.3208,-2.3482,-2.3311,-2.2654,-2.2138,-2.18,-2.149,-2.1214,-2.0971,-2.0729,-2.0139,-1.9581,-1.9052,-1.8563,-1.8107,-1.7685,-1.7087,-1.6688,-1.6612,-2.6908,-2.7034,-2.7034,-2.71,-2.72,-2.72,-2.72,-2.7161,-2.6946,-2.6613,-2.62,-2.5929,-2.5572,-2.5214,-2.5072,-2.5019,-2.4919,-2.4641,-2.4487,-2.4471,-2.4595,-2.4804,-2.4943,-2.5077,-2.5273,-2.5329,-2.5258,-2.5093,-2.5092,-2.5089,-2.5096,-2.508,-2.508,-2.5136,-2.5231,-2.5124,-2.518,-2.521,-2.503,-2.5093,-2.5424,-2.5467,-2.561,-2.6041,-2.6344,-2.6468,-2.654,-2.6894,-2.6786,-2.659,-2.6843,-2.6644,-2.6168,-2.6534,-2.6477,-2.6094,-2.6375,-2.6438,-2.6329,-2.6091,-2.5893,-2.6024,-2.5921,-2.5953,-2.6287,-2.643,-2.6629,-2.6891,-2.7113,-2.7169,-2.72,-2.72,-2.72,-2.72,-2.7167,-2.7167,-2.7134,-2.6934,-2.6833,-2.6767,-2.6636,-2.6118,-2.5616,-2.5371,-2.4695,-2.4458,-2.4426,-2.4348,-2.4466,-2.4741,-2.5093,-2.5093,-2.4958,-2.4958,-2.4713,-2.417,-2.3789,-2.3925,-2.3754,-2.327,-2.2791,-2.2413,-2.2042,-2.1697,-2.1628,-2.1484,-2.0694,-1.9965,-1.9471,-1.8977,-1.8668,-1.8142,-1.7545,-1.7052,-1.6688,-2.72,-2.72,-2.72,-2.7129,-2.7034,-2.7018,-2.6995,-2.6852,-2.6613,-2.6327,-2.5969,-2.5683,-2.5406,-2.516,-2.5072,-2.5072,-2.508,-2.4896,-2.4764,-2.4796,-2.4968,-2.5047,-2.514,-2.532,-2.5304,-2.5358,-2.5239,-2.5088,-2.5081,-2.5088,-2.5072,-2.5072,-2.508,-2.5191,-2.5223,-2.5201,-2.5107,-2.5062,-2.4976,-2.5086,-2.5391,-2.5588,-2.5802,-2.6381,-2.6716,-2.6786,-2.7089,-2.7161,-2.7097,-2.6978,-2.6954,-2.6922,-2.6645,-2.6613,-2.6677,-2.6478,-2.6518,-2.6669,-2.6738,-2.6521,-2.6402,-2.6573,-2.5945,-2.5914,-2.6303,-2.659,-2.6741,-2.6922,-2.7081,-2.712,-2.7167,-2.7167,-2.7167,-2.7167,-2.72,-2.7167,-2.7167,-2.6967,-2.6867,-2.68,-2.6609,-2.6014,-2.5434,-2.5148,-2.4814,-2.4788,-2.4806,-2.4686,-2.4565,-2.4804,-2.499,-2.4998,-2.502,-2.4993,-2.5015,-2.489,-2.4611,-2.4401,-2.4129,-2.385,-2.3509,-2.3133,-2.2688,-2.2214,-2.1938,-2.1593,-2.0971,-2.0382,-1.9994,-1.975,-1.9547,-1.8912,-1.8107,-1.758,-1.7117,-2.72,-2.72,-2.72,-2.701,-2.6741,-2.6644,-2.647,-2.624,-2.6168,-2.5985,-2.562,-2.5596,-2.5358,-2.512,-2.5072,-2.5072,-2.5072,-2.505,-2.5019,-2.5019,-2.5059,-2.5067,-2.5107,-2.5192,-2.5303,-2.5238,-2.5167,-2.5168,-2.5096,-2.5072,-2.5072,-2.5072,-2.5072,-2.5199,-2.5271,-2.5223,-2.5098,-2.5037,-2.5061,-2.5109,-2.5305,-2.5478,-2.5889,-2.6413,-2.6708,-2.6914,-2.7113,-2.7185,-2.7185,-2.7161,-2.7169,-2.6986,-2.6914,-2.7026,-2.6947,-2.6916,-2.7035,-2.7073,-2.7081,-2.6801,-2.6858,-2.693,-2.6804,-2.6749,-2.6741,-2.686,-2.6899,-2.6985,-2.7102,-2.7118,-2.7134,-2.7134,-2.71,-2.7134,-2.7167,-2.7167,-2.72,-2.7134,-2.7067,-2.7,-2.6867,-2.6388,-2.5822,-2.5424,-2.4779,-2.4683,-2.4583,-2.4402,-2.4367,-2.4613,-2.4763,-2.4814,-2.4858,-2.4939,-2.4961,-2.4917,-2.4886,-2.4533,-2.4752,-2.457,-2.4231,-2.3782,-2.3304,-2.2791,-2.2214,-2.1835,-2.1697,-2.1283,-2.0735,-2.0492,-2.0312,-1.9576,-1.8697,-1.8288,-1.7812,-2.7,-2.7167,-2.6967,-2.6795,-2.6621,-2.6152,-2.6001,-2.6168,-2.5906,-2.5675,-2.5565,-2.5365,-2.5222,-2.5111,-2.5072,-2.5072,-2.5088,-2.5042,-2.4919,-2.4926,-2.5043,-2.5061,-2.5156,-2.5296,-2.5406,-2.5437,-2.5406,-2.5342,-2.5128,-2.5088,-2.5072,-2.5072,-2.5072,-2.5176,-2.5223,-2.5167,-2.5139,-2.5156,-2.5211,-2.5187,-2.5376,-2.5715,-2.6111,-2.647,-2.6843,-2.7057,-2.7161,-2.72,-2.72,-2.72,-2.72,-2.7105,-2.7113,-2.7153,-2.7105,-2.7097,-2.7153,-2.7193,-2.7185,-2.7105,-2.7081,-2.7161,-2.7073,-2.7081,-2.7034,-2.6986,-2.7018,-2.7088,-2.7004,-2.6939,-2.6898,-2.6872,-2.6865,-2.6831,-2.6929,-2.7067,-2.7034,-2.6967,-2.6926,-2.6735,-2.6643,-2.6193,-2.5692,-2.5178,-2.4565,-2.4485,-2.4312,-2.4122,-2.4114,-2.4353,-2.4514,-2.4565,-2.4573,-2.4631,-2.4624,-2.4587,-2.4668,-2.4715,-2.4905,-2.4984,-2.457,-2.4163,-2.3816,-2.3338,-2.2729,-2.2694,-2.2825,-2.2242,-2.1386,-2.1214,-2.0971,-2.0167,-1.9436,-1.8982,-1.8463,-2.7027,-2.715,-2.6845,-2.6526,-2.6196,-2.5668,-2.5556,-2.5707,-2.5516,-2.5398,-2.5366,-2.5214,-2.5072,-2.5072,-2.5111,-2.5183,-2.5303,-2.5152,-2.5082,-2.517,-2.5075,-2.5068,-2.5187,-2.532,-2.543,-2.5541,-2.558,-2.5485,-2.5263,-2.5112,-2.5072,-2.5072,-2.5072,-2.5294,-2.5428,-2.5373,-2.543,-2.551,-2.5557,-2.5376,-2.5644,-2.6056,-2.6286,-2.6661,-2.7042,-2.7145,-2.72,-2.72,-2.72,-2.72,-2.72,-2.72,-2.7193,-2.72,-2.72,-2.7185,-2.7193,-2.72,-2.7193,-2.72,-2.7193,-2.72,-2.72,-2.7185,-2.7145,-2.7073,-2.7113,-2.7127,-2.6884,-2.6706,-2.6647,-2.6581,-2.6507,-2.6466,-2.6675,-2.6885,-2.6833,-2.6733,-2.6576,-2.6378,-2.6052,-2.5615,-2.5155,-2.4687,-2.4375,-2.4236,-2.4067,-2.3877,-2.3884,-2.4082,-2.4221,-2.4287,-2.4272,-2.424,-2.428,-2.439,-2.4602,-2.4778,-2.4976,-2.495,-2.4747,-2.4469,-2.4095,-2.3679,-2.3167,-2.3201,-2.3236,-2.2688,-2.2001,-2.1863,-2.1766,-2.1311,-2.0509,-1.9645,-1.9087,-2.7174,-2.7181,-2.6852,-2.6335,-2.5646,-2.5384,-2.5223,-2.5089,-2.513,-2.5136,-2.5168,-2.5127,-2.5104,-2.5168,-2.5066,-2.5248,-2.5312,-2.5248,-2.5273,-2.5596,-2.5445,-2.5351,-2.5234,-2.5215,-2.5501,-2.5588,-2.5572,-2.5517,-2.5445,-2.5255,-2.5072,-2.508,-2.5191,-2.5405,-2.5746,-2.5571,-2.5675,-2.6056,-2.5818,-2.5549,-2.6017,-2.6327,-2.6566,-2.697,-2.7186,-2.7234,-2.72,-2.72,-2.72,-2.72,-2.72,-2.72,-2.72,-2.72,-2.72,-2.72,-2.72,-2.72,-2.72,-2.72,-2.72,-2.72,-2.72,-2.72,-2.7161,-2.7145,-2.7169,-2.7127,-2.6907,-2.6745,-2.6671,-2.6423,-2.6275,-2.6234,-2.6354,-2.6385,-2.6295,-2.6206,-2.6044,-2.5835,-2.5505,-2.5128,-2.4949,-2.4523,-2.4179,-2.4012,-2.3764,-2.3567,-2.3603,-2.3764,-2.3869,-2.3943,-2.3845,-2.3866,-2.4137,-2.4324,-2.4617,-2.4829,-2.4976,-2.5052,-2.4916,-2.4645,-2.4367,-2.3925,-2.3516,-2.3406,-2.327,-2.2859,-2.2613,-2.2551,-2.2454,-2.242,-2.1684,-2.0641,-1.9959,-2.7198,-2.7174,-2.6837,-2.6422,-2.5998,-2.5952,-2.5573,-2.5101,-2.5101,-2.5227,-2.5398,-2.5239,-2.5247,-2.5383,-2.5007,-2.5109,-2.5439,-2.5368,-2.5375,-2.5683,-2.5755,-2.5692,-2.5644,-2.5707,-2.5794,-2.5628,-2.5572,-2.5525,-2.5366,-2.5199,-2.5096,-2.5159,-2.531,-2.5651,-2.5898,-2.5723,-2.6065,-2.6454,-2.6192,-2.5969,-2.6272,-2.6873,-2.7332,-2.7216,-2.7159,-2.7343,-2.7292,-2.72,-2.72,-2.72,-2.72,-2.72,-2.72,-2.72,-2.72,-2.72,-2.72,-2.72,-2.72,-2.72,-2.72,-2.72,-2.72,-2.72,-2.72,-2.72,-2.7159,-2.7102,-2.698,-2.6817,-2.6597,-2.6308,-2.6037,-2.6021,-2.5981,-2.5876,-2.5771,-2.5621,-2.552,-2.5222,-2.4945,-2.4765,-2.4588,-2.4362,-2.405,-2.3716,-2.3408,-2.323,-2.3259,-2.3354,-2.3406,-2.3442,-2.3362,-2.3449,-2.3815,-2.4108,-2.4375,-2.4639,-2.48,-2.4932,-2.5056,-2.4815,-2.4536,-2.4197,-2.3857,-2.3754,-2.357,-2.3318,-2.3154,-2.2942,-2.2792,-2.2554,-2.247,-2.1653,-2.1028,-2.7653,-2.7588,-2.7296,-2.6726,-2.6197,-2.6158,-2.5777,-2.5182,-2.5095,-2.5199,-2.5335,-2.5203,-2.529,-2.5573,-2.5211,-2.5156,-2.5549,-2.5421,-2.5643,-2.5912,-2.6071,-2.6056,-2.6096,-2.6112,-2.6199,-2.6049,-2.5898,-2.5755,-2.5485,-2.5222,-2.5151,-2.5279,-2.5541,-2.5755,-2.5945,-2.6216,-2.6375,-2.6653,-2.6486,-2.6486,-2.6542,-2.6983,-2.7257,-2.707,-2.7198,-2.7359,-2.7292,-2.72,-2.72,-2.72,-2.72,-2.72,-2.72,-2.72,-2.72,-2.72,-2.72,-2.72,-2.72,-2.72,-2.72,-2.72,-2.72,-2.72,-2.72,-2.72,-2.72,-2.7094,-2.6864,-2.6711,-2.6526,-2.6249,-2.5913,-2.5785,-2.576,-2.568,-2.5434,-2.519,-2.4953,-2.4624,-2.4357,-2.4123,-2.4025,-2.4008,-2.3706,-2.353,-2.3193,-2.3201,-2.3179,-2.3106,-2.3106,-2.3166,-2.3181,-2.3267,-2.364,-2.3852,-2.3998,-2.4302,-2.4602,-2.4635,-2.4696,-2.4807,-2.4679,-2.4399,-2.4155,-2.4027,-2.3843,-2.3536,-2.3066,-2.2666,-2.2619,-2.2605,-2.2542,-2.2491,-2.2037,-2.8269,-2.823,-2.7914,-2.7189,-2.6349,-2.6382,-2.5973,-2.5353,-2.5256,-2.5256,-2.5322,-2.5253,-2.5363,-2.5521,-2.5614,-2.5646,-2.5686,-2.5709,-2.5942,-2.6174,-2.6342,-2.6366,-2.6319,-2.6287,-2.6359,-2.6351,-2.6216,-2.608,-2.5874,-2.5532,-2.5334,-2.5533,-2.5778,-2.5993,-2.6391,-2.6566,-2.6621,-2.6908,-2.6914,-2.6955,-2.6971,-2.6955,-2.706,-2.7172,-2.7234,-2.7267,-2.7267,-2.72,-2.72,-2.7334,-2.7367,-2.7326,-2.7267,-2.7267,-2.72,-2.72,-2.72,-2.72,-2.72,-2.72,-2.72,-2.72,-2.72,-2.72,-2.72,-2.72,-2.72,-2.7105,-2.6875,-2.6691,-2.6498,-2.6295,-2.5976,-2.5612,-2.5587,-2.5569,-2.5229,-2.4875,-2.455,-2.4226,-2.3988,-2.3743,-2.3644,-2.3628,-2.3623,-2.3401,-2.3274,-2.3281,-2.3267,-2.3164,-2.3106,-2.3241,-2.337,-2.3493,-2.3606,-2.3708,-2.384,-2.4075,-2.4353,-2.4357,-2.4357,-2.4344,-2.4444,-2.4684,-2.4489,-2.4178,-2.3936,-2.3609,-2.3086,-2.2586,-2.2492,-2.2559,-2.2665,-2.2637,-2.2724,-2.8697,-2.8665,-2.8328,-2.7726,-2.714,-2.7604,-2.7163,-2.6099,-2.5945,-2.5978,-2.5849,-2.563,-2.557,-2.5654,-2.5686,-2.5774,-2.5981,-2.6002,-2.6273,-2.6556,-2.6701,-2.6717,-2.6621,-2.6454,-2.643,-2.6375,-2.6263,-2.6025,-2.5937,-2.5667,-2.539,-2.5303,-2.5929,-2.616,-2.6319,-2.6582,-2.6978,-2.7145,-2.7145,-2.7121,-2.7221,-2.7246,-2.7328,-2.7409,-2.7459,-2.755,-2.755,-2.7334,-2.76,-2.7799,-2.7724,-2.755,-2.7417,-2.73,-2.7234,-2.72,-2.72,-2.72,-2.72,-2.72,-2.72,-2.72,-2.72,-2.72,-2.72,-2.72,-2.72,-2.72,-2.701,-2.6867,-2.6705,-2.6602,-2.6343,-2.5894,-2.5681,-2.5635,-2.5465,-2.5016,-2.4612,-2.4322,-2.4106,-2.3892,-2.3706,-2.3814,-2.4121,-2.388,-2.3645,-2.3623,-2.3362,-2.3237,-2.3106,-2.3287,-2.3477,-2.3608,-2.3659,-2.3667,-2.3784,-2.3957,-2.4064,-2.4061,-2.396,-2.3767,-2.39,-2.4251,-2.4326,-2.4099,-2.3833,-2.3382,-2.3248,-2.2802,-2.2526,-2.2485,-2.2633,-2.2733,-2.28]},{"header":{"parameterUnit":"m.s-1","parameterCategory":1,"la1":31.0,"la2":29.5877,"lo1":-88.7671,"lo2":-86.6584,"dy":0.0162,"dx":0.0185,"nx":115,"ny":88,"refTime":"2024-09-01T18:00:00:Z","depth":0,"parameterNumber":3,"parameterNumberName":"V-component_of_WINDS"},"data":[0.0,0.0,0.0,0.0,0.0,0.0,0.0,0.0,0.0,0.0,0.0,0.0,0.0,0.0,0.0,0.0,0.0,0.0,0.0,0.0,0.0,0.0,0.0,0.0,0.0,0.0,0.0,0.0,0.0,0.0,0.0,0.0,0.0,0.0,0.0,0.0,0.0,0.0,0.0,0.0,0.0,0.0,0.0,0.0,0.0,0.0,0.0,0.0,0.0,0.0,0.0,0.0,0.0,0.0,0.0,0.0,0.0,0.0,0.0,0.0,0.0,0.0,0.0,0.0,0.0,0.0,0.0,0.0,0.0,0.0,0.0,0.0,0.0,0.0,0.0,0.0,0.0,0.0,0.0,0.0,0.0,0.0,0.0,0.0,0.0,0.0,0.0,0.0,0.0,0.0,0.0,0.0,0.0,0.0,0.0,0.0,0.0,0.0,0.0,0.0,0.0,0.0,0.0,0.0,0.0,0.0,0.0,0.0,0.0,0.0,0.0,0.0,0.0,0.0,0.0,0.0,0.0,0.0,0.0,0.0,0.0,0.0,0.0,0.0,0.0,0.0,0.0,0.0,0.0,0.0,0.0,0.0,0.0,0.0,0.0,0.0,0.0,0.0,0.0,0.0,0.0,0.0,0.0,0.0,0.0,0.0,0.0,0.0,0.0,0.0,0.0,0.0,0.0,0.0,0.0,0.0,0.0,0.0,0.0,0.0,0.0,0.0,0.0,0.0,0.0,0.0,0.0,0.0,0.0,0.0,0.0,0.0,0.0,0.0,0.0,0.0,0.0,0.0,0.0,0.0,0.0,0.0,0.0,0.0,0.0,0.0,0.0,0.0,0.0,0.0,0.0,0.0,0.0,0.0,0.0,0.0,0.0,0.0,0.0,0.0,0.0,0.0,0.0,0.0,0.0,0.0,0.0,0.0,0.0,0.0,0.0,0.0,0.0,0.0,0.0,0.0,0.0,0.0,0.0,0.0,0.0,0.0,0.0,0.0,0.0,0.0,0.0,0.0,0.0,0.0,0.0,0.0,0.0,0.0,0.0,0.0,0.0,0.0,0.0,0.0,0.0,0.0,0.0,0.0,0.0,0.0,0.0,0.0,0.0,0.0,0.0,0.0,0.0,0.0,0.0,0.0,0.0,0.0,0.0,0.0,0.0,0.0,0.0,0.0,0.0,0.0,0.0,0.0,0.0,0.0,0.0,0.0,0.0,0.0,0.0,0.0,0.0,0.0,0.0,0.0,0.0,0.0,0.0,0.0,0.0,0.0,0.0,0.0,0.0,0.0,0.0,0.0,0.0,0.0,0.0,0.0,0.0,0.0,0.0,0.0,0.0,0.0,0.0,0.0,0.0,0.0,0.0,0.0,0.0,0.0,0.0,0.0,0.0,0.0,0.0,0.0,0.0,0.0,0.0,0.0,0.0,0.0,0.0,0.0,0.0,0.0,0.0,0.0,0.0,0.0,0.0,0.0,0.0,0.0,0.0,0.0,0.0,0.0,0.0,0.0,0.0,0.0,0.0,0.0,0.0,0.0,0.0,0.0,0.0,0.0,0.0,0.0,0.0,0.0,0.0,0.0,0.0,0.0,0.0,0.0,0.0,0.0,0.0,0.0,0.0,0.0,0.0,0.0,0.0,0.0,0.0,0.0,0.0,0.0,0.0,0.0,0.0,0.0,0.0,0.0,0.0,0.0,0.0,0.0,0.0,0.0,0.0,0.0,0.0,0.0,0.0,0.0,0.0,0.0,0.0,0.0,0.0,0.0,0.0,0.0,0.0,0.0,0.0,0.0,0.0,0.0,0.0,0.0,0.0,0.0,0.0,0.0,0.0,0.0,0.0,0.0,0.0,0.0,0.0,0.0,0.0,0.0,0.0,0.0,0.0,0.0,0.0,0.0,0.0,0.0,0.0,0.0,0.0,0.0,0.0,0.0,0.0,0.0,0.0,0.0,0.0,0.0,0.0,0.0,0.0,0.0,0.0,0.0,0.0,0.0,0.0,0.0,0.0,0.0,0.0,0.0,0.0,0.0,0.0,0.0,0.0,0.0,0.0,0.0,0.0,0.0,0.0,0.0,0.0,0.0,0.0,0.0,0.0,0.0,0.0,0.0,0.0,0.0,0.0,0.0,0.0,0.0,0.0,0.0,0.0,0.0,0.0,0.0,0.0,0.0,0.0,0.0,0.0,0.0,0.0,0.0,0.0,0.0,0.0,0.0,0.0,0.0,0.0,0.0,0.0,0.0,0.0,0.0,0.0,0.0,0.0,0.0,0.0,0.0,0.0,0.0,0.0,0.0,0.0,0.0,0.0,0.0,0.0,0.0,0.0,0.0,0.0,0.0,0.0,0.0,0.0,0.0,0.0,0.0,0.0,0.0,0.0,0.0,0.0,0.0,0.0,0.0,0.0,0.0,0.0,0.0,0.0,0.0,0.0,0.0,0.0,0.0,0.0,0.0,0.0,0.0,0.0,0.0,0.0,0.0,0.0,0.0,0.0,0.0,0.0,0.0,0.0,0.0,0.0,0.0,0.0,0.0,0.0,0.0,0.0,0.0,0.0,0.0,0.0,0.0,0.0,0.0,0.0,0.0,0.0,0.0,0.0,0.0,0.0,0.0,0.0,0.0,0.0,0.0,0.0,0.0,0.0,0.0,0.0,0.0,0.0,0.0,0.0,0.0,0.0,0.0,0.0,0.0,0.0,0.0,0.0,0.0,0.0,0.0,0.0,0.0,0.0,0.0,0.0,0.0,0.0,0.0,0.0,0.0,0.0,0.0,0.0,0.0,0.0,0.0,0.0,0.0,0.0,0.0,0.0,0.0,0.0,0.0,0.0,0.0,0.0,0.0,0.0,0.0,0.0,0.0,0.0,0.0,0.0,0.0,0.0,0.0,0.0,0.0,0.0,0.0,0.0,0.0,0.0,0.0,0.0,0.0,0.0,0.0,0.0,0.0,0.0,0.0,0.0,0.0,0.0,0.0,0.0,0.0,0.0,0.0,0.0,0.0,0.0,0.0,0.0,0.0,0.0,0.0,0.0,0.0,0.0,0.0,0.0,0.0,0.0,0.0,0.0,0.0,0.0,0.0,0.0,0.0,0.0,0.0,0.0,0.0,0.0,0.0,0.0,0.0,0.0,0.0,0.0,0.0,0.0,0.0,0.0,0.0,0.0,0.0,0.0,0.0,0.0,0.0,0.0,0.0,0.0,0.0,0.0,0.0,0.0,0.0,0.0,0.0,0.0,0.0,0.0,0.0,0.0,0.0,0.0,0.0,0.0,0.0,0.0,0.0,0.0,0.0,0.0,0.0,0.0,0.0,0.0,0.0,0.0,0.0,0.0,0.0,0.0,0.0,0.0,0.0,0.0,0.0,0.0,0.0,0.0,0.0,0.0,0.0,0.0,0.0,0.0,0.0,0.0,0.0,0.0,0.0,0.0,0.0,0.0,0.0,0.0,0.0,0.0,0.0,0.0,0.0,0.0,0.0,0.0,0.0,0.0,0.0,0.0,0.0,0.0,0.0,0.0,0.0,0.0,0.0,0.0,0.0,0.0,0.0,0.0,0.0,0.0,0.0,0.0,0.0,0.0,0.0,0.0,0.0,0.0,0.0,0.0,0.0,0.0,0.0,0.0,0.0,0.0,0.0,0.0,0.0,0.0,0.0,0.0,0.0,0.0,0.0,0.0,0.0,0.0,0.0,0.0,0.0,0.0,0.0,0.0,0.0,0.0,0.0,0.0,0.0,0.0,0.0,0.0,0.0,0.0,0.0,0.0,0.0,0.0,0.0,0.0,0.0,0.0,0.0,0.0,0.0,0.0,0.0,0.0,0.0,0.0,0.0,0.0,0.0,0.0,0.0,0.0,0.0,0.0,0.0,0.0,0.0,0.0,0.0,0.0,0.0,0.0,0.0,0.0,0.0,0.0,0.0,0.0,0.0,0.0,0.0,0.0,0.0,0.0,0.0,0.0,0.0,0.0,0.0,0.0,0.0,0.0,0.0,0.0,0.0,0.0,0.0,0.0,0.0,0.0,0.0,0.0,0.0,0.0,0.0,0.0,0.0,0.0,0.0,0.0,0.0,0.0,0.0,0.0,0.0,0.0,0.0,0.0,0.0,0.0,0.0,0.0,0.0,0.0,0.0,0.0,0.0,0.0,0.0,0.0,0.0,0.0,0.0,0.0,0.0,0.0,0.0,0.0,0.0,0.0,0.0,0.0,0.0,0.0,0.0,0.0,0.0,0.0,0.0,0.0,0.0,0.0,0.0,0.0,0.0,0.0,0.0,2.5703,0.0,0.0,0.0,0.0,0.0,0.0,0.0,0.0,0.0,0.0,0.0,0.0,0.0,0.0,0.0,0.0,0.0,0.0,0.0,0.0,0.0,0.0,0.0,0.0,0.0,0.0,0.0,0.0,0.0,0.0,0.0,0.0,0.0,0.0,0.0,0.0,0.0,0.0,0.0,0.0,0.0,0.0,0.0,0.0,0.0,0.0,0.0,0.0,0.0,0.0,0.0,0.0,0.0,0.0,0.0,0.0,0.0,0.0,0.0,0.0,0.0,0.0,0.0,0.0,0.0,0.0,0.0,0.0,0.0,0.0,0.0,0.0,0.0,0.0,0.0,0.0,0.0,0.0,0.0,0.0,0.0,0.0,0.0,0.0,0.0,0.0,0.0,0.0,0.0,0.0,0.0,0.0,0.0,0.0,0.0,0.0,0.0,0.0,0.0,0.0,0.0,0.0,0.0,0.0,0.0,0.0,0.0,0.0,0.0,0.0,2.5696,2.5703,2.564,2.5637,2.5703,0.0,0.0,0.0,0.0,0.0,0.0,0.0,0.0,0.0,0.0,0.0,0.0,0.0,0.0,0.0,0.0,0.0,0.0,0.0,0.0,0.0,0.0,0.0,0.0,0.0,0.0,0.0,0.0,0.0,0.0,0.0,0.0,0.0,0.0,0.0,0.0,0.0,0.0,0.0,0.0,0.0,0.0,0.0,0.0,0.0,0.0,0.0,0.0,0.0,0.0,0.0,0.0,0.0,0.0,0.0,0.0,0.0,0.0,0.0,0.0,0.0,0.0,0.0,0.0,0.0,0.0,0.0,0.0,0.0,0.0,0.0,0.0,0.0,0.0,0.0,0.0,0.0,0.0,0.0,0.0,0.0,0.0,0.0,0.0,0.0,0.0,0.0,0.0,0.0,0.0,0.0,0.0,0.0,0.0,0.0,0.0,0.0,0.0,0.0,0.0,0.0,0.0,0.0,0.0,0.0,0.0,0.0,0.0,0.0,0.0,0.0,0.0,2.6323,2.6127,2.6014,0.0,0.0,0.0,0.0,0.0,0.0,0.0,0.0,0.0,0.0,0.0,0.0,0.0,0.0,0.0,0.0,0.0,0.0,0.0,0.0,0.0,0.0,0.0,0.0,0.0,0.0,0.0,0.0,0.0,0.0,0.0,0.0,0.0,0.0,0.0,0.0,0.0,0.0,0.0,0.0,0.0,0.0,0.0,0.0,0.0,0.0,0.0,0.0,0.0,0.0,0.0,0.0,0.0,0.0,0.0,0.0,0.0,0.0,0.0,0.0,0.0,0.0,0.0,0.0,0.0,0.0,0.0,0.0,0.0,0.0,0.0,0.0,0.0,0.0,0.0,0.0,0.0,0.0,0.0,0.0,0.0,0.0,0.0,0.0,0.0,0.0,0.0,0.0,0.0,0.0,0.0,0.0,0.0,0.0,0.0,0.0,0.0,0.0,0.0,0.0,0.0,0.0,0.0,0.0,0.0,0.0,0.0,0.0,0.0,0.0,2.6812,2.9055,2.8358,0.0,2.6981,0.0,0.0,0.0,0.0,0.0,0.0,0.0,0.0,0.0,0.0,0.0,0.0,0.0,0.0,0.0,0.0,0.0,0.0,0.0,0.0,0.0,0.0,0.0,0.0,0.0,0.0,0.0,0.0,0.0,0.0,0.0,0.0,0.0,0.0,0.0,0.0,0.0,0.0,0.0,0.0,0.0,0.0,0.0,0.0,0.0,0.0,0.0,0.0,0.0,0.0,0.0,0.0,0.0,0.0,0.0,0.0,0.0,0.0,0.0,0.0,0.0,0.0,0.0,0.0,0.0,0.0,0.0,0.0,0.0,0.0,0.0,0.0,0.0,0.0,0.0,0.0,0.0,0.0,0.0,0.0,0.0,0.0,0.0,0.0,0.0,0.0,0.0,0.0,0.0,0.0,0.0,0.0,0.0,0.0,0.0,0.0,0.0,0.0,0.0,0.0,0.0,0.0,0.0,0.0,0.0,0.0,0.0,0.0,0.0,0.0,0.0,2.9499,2.9153,2.8833,0.0,0.0,0.0,0.0,0.0,0.0,0.0,0.0,0.0,0.0,0.0,0.0,0.0,0.0,0.0,0.0,0.0,0.0,0.0,0.0,0.0,0.0,0.0,0.0,0.0,0.0,0.0,0.0,0.0,0.0,0.0,0.0,0.0,0.0,0.0,0.0,0.0,0.0,0.0,0.0,0.0,0.0,0.0,0.0,0.0,0.0,0.0,0.0,0.0,0.0,0.0,0.0,0.0,0.0,0.0,0.0,0.0,0.0,0.0,0.0,0.0,0.0,0.0,0.0,0.0,0.0,0.0,0.0,0.0,0.0,0.0,0.0,0.0,0.0,0.0,0.0,0.0,0.0,0.0,0.0,0.0,0.0,0.0,0.0,0.0,0.0,0.0,0.0,0.0,0.0,0.0,0.0,0.0,0.0,0.0,0.0,0.0,0.0,0.0,0.0,0.0,0.0,0.0,0.0,0.0,0.0,0.0,0.0,0.0,0.0,2.9605,0.0,3.026,3.0684,3.0285,2.8924,0.0,0.0,0.0,0.0,0.0,0.0,0.0,0.0,0.0,0.0,0.0,0.0,0.0,0.0,0.0,0.0,0.0,0.0,0.0,0.0,0.0,0.0,0.0,0.0,0.0,0.0,0.0,0.0,0.0,0.0,0.0,0.0,0.0,0.0,0.0,0.0,0.0,0.0,0.0,0.0,0.0,0.0,0.0,0.0,0.0,0.0,0.0,0.0,0.0,0.0,0.0,0.0,0.0,0.0,0.0,0.0,0.0,0.0,0.0,0.0,0.0,0.0,0.0,0.0,0.0,0.0,0.0,0.0,0.0,0.0,0.0,0.0,0.0,0.0,0.0,0.0,0.0,0.0,0.0,0.0,0.0,0.0,0.0,0.0,0.0,0.0,0.0,0.0,0.0,0.0,0.0,0.0,0.0,0.0,0.0,0.0,0.0,0.0,0.0,0.0,0.0,0.0,0.0,0.0,0.0,0.0,0.0,0.0,0.0,3.0757,3.0433,3.2029,3.3592,3.2148,0.0,0.0,0.0,0.0,0.0,0.0,0.0,0.0,0.0,0.0,0.0,0.0,0.0,0.0,0.0,0.0,0.0,0.0,0.0,0.0,0.0,0.0,0.0,0.0,0.0,0.0,0.0,0.0,0.0,0.0,0.0,0.0,0.0,0.0,0.0,0.0,0.0,0.0,0.0,0.0,0.0,0.0,0.0,0.0,0.0,0.0,0.0,0.0,0.0,0.0,0.0,0.0,0.0,0.0,0.0,0.0,0.0,0.0,0.0,0.0,0.0,0.0,0.0,0.0,0.0,0.0,0.0,0.0,0.0,0.0,0.0,0.0,0.0,0.0,0.0,0.0,0.0,0.0,0.0,0.0,0.0,0.0,0.0,0.0,0.0,0.0,0.0,0.0,0.0,0.0,0.0,0.0,0.0,0.0,0.0,0.0,0.0,0.0,0.0,0.0,0.0,0.0,0.0,0.0,0.0,0.0,0.0,0.0,0.0,2.8372,2.9591,3.2439,3.6684,3.3344,3.1236,0.0,0.0,0.0,0.0,0.0,0.0,0.0,0.0,0.0,0.0,0.0,0.0,0.0,0.0,0.0,0.0,0.0,0.0,0.0,0.0,0.0,0.0,0.0,0.0,0.0,0.0,0.0,0.0,0.0,0.0,0.0,0.0,0.0,0.0,0.0,0.0,0.0,0.0,0.0,0.0,0.0,0.0,0.0,0.0,0.0,0.0,0.0,0.0,0.0,0.0,0.0,0.0,0.0,0.0,0.0,0.0,0.0,0.0,0.0,0.0,0.0,0.0,0.0,0.0,0.0,0.0,0.0,0.0,0.0,0.0,0.0,0.0,0.0,0.0,0.0,0.0,0.0,0.0,0.0,0.0,0.0,0.0,0.0,0.0,0.0,0.0,0.0,0.0,0.0,0.0,0.0,0.0,0.0,0.0,0.0,0.0,0.0,0.0,0.0,0.0,0.0,0.0,0.0,0.0,0.0,0.0,0.0,0.0,0.0,2.8178,0.0,3.4425,0.0,3.3563,3.1012,0.0,0.0,0.0,0.0,0.0,0.0,0.0,0.0,0.0,0.0,0.0,0.0,0.0,0.0,0.0,0.0,0.0,0.0,0.0,0.0,0.0,0.0,0.0,0.0,0.0,0.0,0.0,0.0,0.0,0.0,0.0,0.0,0.0,0.0,0.0,0.0,0.0,0.0,0.0,0.0,0.0,0.0,0.0,0.0,0.0,0.0,0.0,0.0,0.0,0.0,0.0,0.0,0.0,0.0,0.0,0.0,0.0,0.0,0.0,0.0,0.0,0.0,0.0,0.0,0.0,0.0,0.0,0.0,0.0,0.0,0.0,0.0,0.0,0.0,0.0,0.0,0.0,0.0,0.0,0.0,0.0,0.0,0.0,0.0,0.0,0.0,0.0,0.0,0.0,0.0,0.0,0.0,0.0,0.0,0.0,0.0,0.0,0.0,0.0,0.0,0.0,0.0,0.0,0.0,0.0,0.0,0.0,0.0,2.8194,3.2968,3.5473,3.6041,3.4644,3.4398,3.1693,0.0,0.0,0.0,0.0,0.0,0.0,0.0,0.0,0.0,0.0,0.0,0.0,0.0,0.0,0.0,0.0,0.0,0.0,0.0,0.0,0.0,0.0,0.0,0.0,0.0,0.0,0.0,0.0,0.0,0.0,0.0,0.0,0.0,0.0,0.0,0.0,0.0,0.0,0.0,0.0,0.0,0.0,0.0,0.0,0.0,0.0,0.0,0.0,0.0,0.0,0.0,0.0,0.0,0.0,0.0,0.0,0.0,0.0,0.0,0.0,0.0,0.0,0.0,0.0,0.0,0.0,0.0,0.0,0.0,0.0,0.0,0.0,0.0,0.0,0.0,0.0,0.0,0.0,0.0,0.0,0.0,0.0,0.0,0.0,0.0,0.0,0.0,0.0,0.0,0.0,0.0,0.0,0.0,0.0,0.0,0.0,0.0,0.0,0.0,0.0,0.0,0.0,0.0,0.0,0.0,0.0,0.0,0.0,0.0,3.0707,3.3555,3.5481,3.6124,3.2821,3.0915,0.0,0.0,0.0,0.0,0.0,0.0,0.0,0.0,0.0,0.0,0.0,0.0,0.0,0.0,0.0,0.0,0.0,0.0,0.0,0.0,0.0,0.0,0.0,0.0,0.0,0.0,0.0,0.0,0.0,0.0,0.0,0.0,0.0,0.0,0.0,0.0,0.0,0.0,0.0,0.0,0.0,0.0,0.0,0.0,0.0,0.0,0.0,0.0,0.0,0.0,0.0,0.0,0.0,0.0,0.0,0.0,0.0,0.0,0.0,0.0,0.0,0.0,0.0,0.0,0.0,0.0,0.0,0.0,0.0,0.0,0.0,0.0,0.0,0.0,0.0,0.0,0.0,0.0,0.0,0.0,0.0,0.0,0.0,0.0,0.0,0.0,0.0,0.0,0.0,0.0,0.0,0.0,0.0,0.0,0.0,0.0,0.0,0.0,0.0,0.0,0.0,0.0,0.0,0.0,0.0,0.0,0.0,0.0,0.0,3.2825,3.5231,3.6978,3.7905,3.3276,3.1047,3.1602,0.0,0.0,0.0,0.0,0.0,0.0,0.0,0.0,0.0,0.0,0.0,0.0,0.0,0.0,0.0,0.0,0.0,0.0,0.0,0.0,0.0,0.0,0.0,0.0,0.0,0.0,0.0,0.0,0.0,0.0,0.0,0.0,0.0,0.0,0.0,0.0,0.0,0.0,0.0,0.0,0.0,0.0,0.0,0.0,0.0,0.0,0.0,0.0,0.0,0.0,0.0,0.0,0.0,0.0,0.0,0.0,0.0,0.0,0.0,0.0,0.0,0.0,0.0,0.0,0.0,0.0,0.0,0.0,0.0,0.0,0.0,0.0,0.0,0.0,0.0,0.0,0.0,0.0,0.0,0.0,0.0,0.0,0.0,0.0,0.0,0.0,0.0,0.0,0.0,0.0,0.0,0.0,0.0,0.0,0.0,0.0,0.0,0.0,0.0,0.0,0.0,0.0,0.0,0.0,0.0,0.0,0.0,0.0,3.8187,3.9793,4.0219,3.9421,3.5526,3.217,0.0,0.0,0.0,0.0,0.0,0.0,0.0,0.0,0.0,0.0,0.0,0.0,0.0,0.0,0.0,0.0,0.0,0.0,0.0,0.0,0.0,0.0,0.0,0.0,0.0,0.0,0.0,0.0,0.0,0.0,0.0,0.0,0.0,0.0,0.0,0.0,0.0,0.0,0.0,0.0,0.0,0.0,0.0,0.0,0.0,0.0,0.0,0.0,0.0,0.0,0.0,0.0,0.0,0.0,0.0,0.0,0.0,0.0,0.0,0.0,0.0,0.0,0.0,0.0,0.0,0.0,0.0,0.0,0.0,0.0,0.0,0.0,0.0,0.0,0.0,0.0,0.0,0.0,0.0,0.0,0.0,0.0,0.0,0.0,0.0,0.0,0.0,0.0,0.0,0.0,0.0,0.0,0.0,0.0,0.0,0.0,0.0,0.0,0.0,0.0,0.0,0.0,0.0,0.0,0.0,0.0,0.0,0.0,0.0,3.9742,4.1434,4.1937,4.1176,3.7835,3.4781,0.0,0.0,0.0,0.0,0.0,0.0,0.0,0.0,0.0,0.0,0.0,0.0,0.0,0.0,0.0,0.0,0.0,0.0,0.0,0.0,0.0,0.0,0.0,0.0,0.0,0.0,0.0,0.0,0.0,0.0,0.0,0.0,0.0,0.0,0.0,0.0,0.0,0.0,0.0,0.0,0.0,0.0,0.0,0.0,0.0,0.0,0.0,0.0,0.0,0.0,0.0,0.0,0.0,0.0,0.0,0.0,0.0,0.0,0.0,0.0,0.0,0.0,0.0,0.0,0.0,0.0,0.0,0.0,0.0,0.0,0.0,0.0,0.0,0.0,0.0,0.0,0.0,0.0,0.0,0.0,0.0,0.0,0.0,0.0,0.0,0.0,0.0,0.0,0.0,0.0,0.0,0.0,0.0,0.0,0.0,0.0,0.0,0.0,0.0,0.0,0.0,0.0,0.0,0.0,0.0,0.0,0.0,0.0,3.7712,4.1435,4.3137,4.3654,4.2938,3.9702,3.6588,0.0,0.0,0.0,0.0,0.0,0.0,0.0,0.0,0.0,0.0,0.0,0.0,0.0,0.0,0.0,0.0,0.0,0.0,0.0,0.0,0.0,0.0,0.0,0.0,0.0,0.0,0.0,0.0,0.0,0.0,0.0,0.0,0.0,0.0,0.0,0.0,0.0,0.0,0.0,0.0,0.0,0.0,0.0,0.0,0.0,0.0,0.0,0.0,0.0,0.0,0.0,0.0,0.0,0.0,0.0,0.0,0.0,0.0,0.0,0.0,0.0,0.0,0.0,0.0,0.0,0.0,0.0,0.0,0.0,0.0,0.0,0.0,0.0,0.0,0.0,0.0,0.0,0.0,0.0,0.0,0.0,0.0,0.0,0.0,0.0,0.0,0.0,0.0,0.0,0.0,0.0,0.0,0.0,0.0,0.0,0.0,0.0,0.0,0.0,0.0,0.0,0.0,0.0,0.0,0.0,0.0,0.0,0.0,3.9657,4.2821,4.4593,4.5152,4.4361,4.1262,3.7919,0.0,0.0,0.0,0.0,0.0,0.0,0.0,0.0,0.0,0.0,0.0,0.0,0.0,0.0,0.0,0.0,0.0,0.0,0.0,0.0,0.0,0.0,0.0,0.0,0.0,0.0,0.0,0.0,0.0,0.0,0.0,0.0,0.0,0.0,0.0,0.0,0.0,0.0,0.0,0.0,0.0,0.0,0.0,0.0,0.0,0.0,0.0,0.0,0.0,0.0,0.0,0.0,0.0,0.0,0.0,0.0,0.0,0.0,0.0,0.0,0.0,0.0,0.0,0.0,0.0,0.0,0.0,0.0,0.0,0.0,0.0,0.0,0.0,0.0,0.0,0.0,0.0,0.0,0.0,0.0,0.0,0.0,0.0,0.0,0.0,0.0,0.0,0.0,0.0,0.0,0.0,0.0,0.0,0.0,0.0,0.0,0.0,0.0,0.0,0.0,0.0,0.0,0.0,0.0,0.0,0.0,0.0,0.0,3.9693,4.2771,4.4575,4.5394,4.517,4.2688,3.9157,0.0,0.0,0.0,0.0,0.0,0.0,0.0,0.0,0.0,0.0,0.0,0.0,0.0,0.0,0.0,0.0,0.0,0.0,0.0,0.0,0.0,0.0,0.0,0.0,0.0,0.0,0.0,0.0,0.0,0.0,0.0,0.0,0.0,0.0,0.0,0.0,0.0,0.0,0.0,0.0,0.0,0.0,0.0,0.0,0.0,0.0,0.0,0.0,2.8324,0.0,0.0,0.0,0.0,0.0,0.0,0.0,0.0,0.0,0.0,0.0,0.0,0.0,0.0,0.0,0.0,0.0,0.0,0.0,0.0,0.0,0.0,0.0,0.0,0.0,0.0,0.0,0.0,0.0,0.0,0.0,0.0,0.0,0.0,0.0,0.0,0.0,0.0,0.0,0.0,0.0,0.0,0.0,0.0,0.0,0.0,0.0,0.0,0.0,0.0,0.0,0.0,0.0,0.0,0.0,0.0,0.0,0.0,0.0,4.1475,4.3421,4.479,4.5499,4.5422,4.3499,4.0068,0.0,0.0,0.0,0.0,0.0,0.0,0.0,0.0,0.0,0.0,0.0,0.0,0.0,0.0,0.0,0.0,0.0,0.0,0.0,0.0,0.0,0.0,0.0,0.0,0.0,0.0,0.0,0.0,0.0,0.0,0.0,0.0,0.0,0.0,0.0,0.0,0.0,0.0,0.0,0.0,0.0,0.0,0.0,0.0,0.0,0.0,0.0,0.0,0.0,0.0,0.0,0.0,0.0,0.0,0.0,0.0,0.0,0.0,0.0,0.0,0.0,0.0,0.0,0.0,0.0,0.0,0.0,0.0,0.0,0.0,0.0,0.0,0.0,0.0,0.0,0.0,0.0,0.0,0.0,0.0,0.0,0.0,0.0,0.0,0.0,0.0,0.0,0.0,0.0,0.0,0.0,0.0,0.0,0.0,0.0,0.0,0.0,0.0,0.0,0.0,0.0,0.0,0.0,0.0,0.0,0.0,0.0,4.0047,4.3219,4.4518,4.5313,4.5733,4.575,4.4115,4.0808,3.5833,0.0,0.0,0.0,0.0,0.0,0.0,0.0,0.0,0.0,0.0,0.0,0.0,0.0,0.0,0.0,0.0,0.0,0.0,0.0,0.0,0.0,0.0,0.0,0.0,0.0,0.0,0.0,0.0,0.0,0.0,0.0,0.0,0.0,0.0,0.0,0.0,0.0,0.0,2.6599,2.8814,0.0,0.0,0.0,0.0,0.0,0.0,0.0,0.0,3.1859,0.0,0.0,0.0,0.0,0.0,0.0,0.0,0.0,0.0,0.0,0.0,0.0,0.0,0.0,0.0,0.0,0.0,0.0,0.0,0.0,0.0,0.0,0.0,0.0,0.0,0.0,0.0,0.0,0.0,0.0,0.0,0.0,0.0,0.0,0.0,0.0,0.0,0.0,0.0,0.0,0.0,0.0,0.0,0.0,0.0,0.0,0.0,0.0,0.0,0.0,0.0,0.0,0.0,0.0,0.0,0.0,3.943,3.9918,4.2063,4.6088,4.646,4.6589,4.656,4.4961,4.1439,3.602,0.0,0.0,0.0,0.0,0.0,0.0,0.0,0.0,0.0,0.0,0.0,0.0,0.0,0.0,0.0,0.0,0.0,0.0,0.0,0.0,0.0,0.0,0.0,0.0,0.0,0.0,0.0,0.0,0.0,0.0,0.0,0.0,0.0,0.0,0.0,0.0,0.0,0.0,0.0,3.359,3.4805,0.0,0.0,0.0,0.0,0.0,0.0,0.0,0.0,3.306,0.0,0.0,0.0,0.0,0.0,0.0,0.0,0.0,0.0,0.0,0.0,0.0,0.0,0.0,0.0,0.0,0.0,0.0,0.0,0.0,0.0,0.0,0.0,0.0,0.0,0.0,0.0,0.0,0.0,0.0,0.0,0.0,0.0,0.0,0.0,0.0,0.0,0.0,0.0,0.0,0.0,0.0,0.0,0.0,0.0,0.0,0.0,0.0,0.0,0.0,0.0,0.0,0.0,0.0,0.0,3.7889,4.0993,4.366,4.5892,4.6047,4.6095,4.6085,4.4005,4.0588,0.0,0.0,0.0,0.0,0.0,0.0,0.0,0.0,0.0,0.0,0.0,0.0,0.0,0.0,0.0,0.0,0.0,0.0,0.0,0.0,0.0,0.0,0.0,0.0,0.0,0.0,0.0,0.0,0.0,0.0,0.0,0.0,0.0,0.0,0.0,0.0,0.0,0.0,0.0,0.0,3.4462,3.6169,3.7033,0.0,0.0,0.0,0.0,0.0,0.0,3.4082,3.4114,0.0,0.0,0.0,0.0,0.0,0.0,0.0,0.0,0.0,0.0,0.0,0.0,0.0,0.0,0.0,0.0,0.0,0.0,0.0,0.0,0.0,0.0,0.0,0.0,0.0,0.0,0.0,0.0,0.0,0.0,0.0,0.0,0.0,0.0,0.0,0.0,0.0,0.0,0.0,0.0,0.0,0.0,0.0,0.0,0.0,0.0,0.0,0.0,0.0,0.0,0.0,0.0,0.0,0.0,0.0,3.5691,4.1544,4.4988,4.5594,4.5662,4.5692,4.5725,4.3392,4.0088,0.0,0.0,0.0,0.0,0.0,0.0,0.0,0.0,0.0,0.0,0.0,0.0,0.0,0.0,0.0,0.0,0.0,0.0,0.0,0.0,0.0,0.0,0.0,0.0,0.0,0.0,0.0,0.0,0.0,0.0,0.0,0.0,0.0,0.0,0.0,0.0,0.0,0.0,0.0,0.0,0.0,3.7521,3.8516,3.7525,0.0,0.0,0.0,0.0,3.5912,3.6086,0.0,0.0,0.0,0.0,0.0,0.0,0.0,0.0,0.0,0.0,0.0,0.0,0.0,0.0,0.0,0.0,0.0,0.0,0.0,0.0,0.0,0.0,0.0,0.0,0.0,0.0,0.0,0.0,0.0,0.0,0.0,0.0,0.0,0.0,0.0,0.0,0.0,0.0,0.0,0.0,0.0,0.0,0.0,0.0,0.0,0.0,0.0,0.0,0.0,0.0,0.0,0.0,0.0,0.0,0.0,0.0,3.5529,3.992,4.3586,4.6308,4.6511,4.6565,4.6628,4.4968,4.1447,0.0,0.0,0.0,0.0,0.0,0.0,0.0,0.0,0.0,0.0,0.0,0.0,0.0,0.0,0.0,0.0,0.0,0.0,0.0,0.0,0.0,0.0,0.0,0.0,0.0,0.0,0.0,0.0,0.0,0.0,0.0,0.0,0.0,0.0,0.0,0.0,0.0,0.0,0.0,0.0,0.0,4.0996,3.9735,3.9435,3.93,0.0,0.0,3.873,4.1107,4.148,0.0,0.0,0.0,0.0,0.0,0.0,0.0,0.0,0.0,0.0,0.0,0.0,0.0,0.0,0.0,0.0,0.0,0.0,0.0,0.0,0.0,0.0,0.0,0.0,0.0,0.0,0.0,0.0,0.0,0.0,0.0,0.0,0.0,0.0,0.0,0.0,0.0,0.0,0.0,0.0,0.0,0.0,0.0,0.0,0.0,0.0,0.0,0.0,0.0,0.0,0.0,0.0,0.0,0.0,0.0,3.4112,3.5636,4.1008,4.4513,4.5867,4.5951,4.5971,4.6009,4.3533,4.0133,0.0,0.0,0.0,0.0,0.0,0.0,0.0,0.0,0.0,0.0,0.0,0.0,0.0,0.0,0.0,0.0,0.0,0.0,0.0,0.0,0.0,0.0,0.0,0.0,0.0,0.0,0.0,0.0,0.0,0.0,0.0,0.0,0.0,0.0,0.0,0.0,0.0,0.0,0.0,0.0,0.0,0.0,4.1735,4.1516,0.0,0.0,0.0,4.1616,4.2234,0.0,0.0,0.0,0.0,0.0,0.0,0.0,0.0,0.0,0.0,0.0,0.0,0.0,0.0,0.0,0.0,0.0,0.0,0.0,0.0,0.0,0.0,0.0,0.0,0.0,0.0,0.0,0.0,0.0,0.0,0.0,0.0,0.0,0.0,0.0,0.0,0.0,0.0,0.0,0.0,0.0,0.0,0.0,0.0,0.0,0.0,0.0,0.0,0.0,0.0,0.0,0.0,0.0,0.0,0.0,0.0,0.0,3.5945,4.2558,4.6024,4.5995,4.5816,4.5711,4.5654,4.2746,0.0,0.0,0.0,0.0,0.0,0.0,0.0,0.0,0.0,0.0,0.0,0.0,0.0,0.0,0.0,0.0,0.0,0.0,0.0,0.0,0.0,0.0,0.0,0.0,0.0,0.0,0.0,2.3818,0.0,0.0,0.0,0.0,0.0,0.0,0.0,0.0,0.0,0.0,0.0,0.0,0.0,0.0,4.0385,4.2924,4.3281,4.3649,0.0,0.0,4.4121,4.3705,4.4336,4.4238,0.0,0.0,0.0,0.0,0.0,0.0,0.0,0.0,0.0,0.0,0.0,0.0,0.0,0.0,0.0,0.0,0.0,0.0,0.0,0.0,0.0,0.0,0.0,0.0,0.0,0.0,0.0,0.0,0.0,0.0,0.0,0.0,0.0,0.0,0.0,0.0,0.0,0.0,0.0,0.0,0.0,0.0,0.0,0.0,0.0,0.0,0.0,0.0,0.0,0.0,0.0,0.0,0.0,0.0,0.0,3.6963,4.397,4.7657,4.7614,4.6898,4.6513,4.6475,4.4201,4.0612,0.0,0.0,0.0,0.0,0.0,0.0,0.0,0.0,0.0,0.0,0.0,0.0,0.0,0.0,0.0,0.0,0.0,0.0,0.0,0.0,0.0,0.0,0.0,0.0,0.0,0.0,0.0,0.0,0.0,0.0,0.0,0.0,0.0,0.0,0.0,0.0,0.0,0.0,0.0,0.0,0.0,4.2129,4.2356,4.4417,4.6551,0.0,0.0,4.6379,4.7128,4.7905,4.7612,4.5134,0.0,0.0,0.0,0.0,0.0,0.0,0.0,0.0,0.0,0.0,0.0,0.0,0.0,0.0,0.0,0.0,0.0,0.0,0.0,0.0,0.0,0.0,0.0,0.0,0.0,0.0,0.0,0.0,0.0,0.0,0.0,0.0,0.0,0.0,0.0,0.0,0.0,0.0,0.0,0.0,0.0,0.0,0.0,0.0,0.0,0.0,0.0,0.0,0.0,0.0,0.0,0.0,0.0,3.6275,3.6892,4.3586,4.735,4.7888,4.7616,4.7235,4.6738,4.4878,4.1533,0.0,0.0,0.0,0.0,0.0,0.0,0.0,0.0,0.0,0.0,0.0,0.0,0.0,0.0,0.0,0.0,0.0,0.0,0.0,0.0,0.0,0.0,0.0,0.0,0.0,0.0,0.0,0.0,3.1357,3.1462,3.0303,0.0,0.0,0.0,0.0,0.0,0.0,0.0,0.0,0.0,0.0,4.305,4.5141,4.6756,0.0,0.0,4.8634,4.8684,4.9022,4.892,4.8288,4.6783,4.4851,0.0,0.0,0.0,0.0,0.0,0.0,0.0,0.0,0.0,0.0,0.0,0.0,0.0,0.0,0.0,0.0,0.0,0.0,0.0,0.0,0.0,0.0,0.0,0.0,0.0,0.0,0.0,0.0,0.0,0.0,0.0,0.0,0.0,0.0,0.0,0.0,0.0,0.0,0.0,0.0,0.0,0.0,0.0,0.0,0.0,0.0,0.0,0.0,0.0,0.0,0.0,0.0,3.666,3.7574,4.4249,4.8009,4.867,4.8445,4.8059,4.7457,4.5675,4.2703,0.0,0.0,0.0,0.0,0.0,0.0,0.0,0.0,0.0,0.0,0.0,0.0,0.0,0.0,0.0,0.0,0.0,0.0,0.0,0.0,0.0,0.0,0.0,0.0,0.0,0.0,0.0,0.0,3.3212,3.2993,3.1251,0.0,0.0,0.0,0.0,0.0,0.0,0.0,0.0,0.0,0.0,4.4755,4.7384,4.8721,4.9445,4.9445,4.9983,5.0209,4.9683,4.9354,4.8784,4.765,0.0,0.0,0.0,0.0,0.0,0.0,0.0,0.0,0.0,0.0,0.0,0.0,0.0,0.0,0.0,0.0,0.0,0.0,0.0,0.0,0.0,0.0,0.0,0.0,0.0,0.0,0.0,2.6905,0.0,0.0,2.5585,0.0,0.0,0.0,0.0,0.0,0.0,0.0,0.0,0.0,0.0,0.0,0.0,0.0,0.0,0.0,0.0,0.0,0.0,0.0,0.0,0.0,0.0,3.8353,3.9354,4.6416,5.0162,5.0231,4.948,4.9045,4.8968,4.6684,4.4197,4.1613,0.0,0.0,0.0,0.0,0.0,0.0,0.0,0.0,0.0,0.0,0.0,0.0,0.0,0.0,0.0,0.0,0.0,0.0,0.0,0.0,0.0,0.0,0.0,0.0,0.0,0.0,2.8838,3.0641,3.2059,0.0,0.0,0.0,0.0,0.0,0.0,0.0,0.0,0.0,0.0,4.4577,4.754,4.8487,5.0062,5.115,5.115,5.1211,5.0714,4.9097,4.9432,4.9391,0.0,0.0,0.0,0.0,0.0,0.0,0.0,0.0,0.0,0.0,0.0,0.0,0.0,0.0,0.0,0.0,0.0,0.0,0.0,0.0,0.0,0.0,0.0,0.0,0.0,0.0,0.0,3.3103,3.1228,0.0,0.0,0.0,0.0,0.0,0.0,0.0,0.0,0.0,0.0,0.0,4.0223,4.1873,0.0,0.0,0.0,0.0,0.0,0.0,0.0,0.0,0.0,0.0,0.0,0.0,3.8594,4.1882,4.6661,4.9816,5.1092,5.0177,4.9446,4.9097,4.822,4.6125,4.271,0.0,0.0,0.0,0.0,0.0,0.0,0.0,0.0,0.0,0.0,0.0,0.0,0.0,0.0,0.0,0.0,0.0,0.0,0.0,0.0,0.0,0.0,0.0,0.0,0.0,3.159,0.0,0.0,0.0,0.0,0.0,0.0,0.0,0.0,0.0,0.0,0.0,4.3099,4.5663,4.8231,5.0179,5.0946,5.2093,5.2858,0.0,0.0,0.0,0.0,0.0,0.0,0.0,0.0,0.0,0.0,0.0,0.0,0.0,0.0,4.9101,4.4823,4.2653,4.1464,4.1418,0.0,0.0,0.0,0.0,0.0,0.0,0.0,0.0,0.0,0.0,0.0,0.0,0.0,0.0,3.7313,0.0,3.4931,0.0,0.0,0.0,0.0,0.0,0.0,0.0,0.0,4.4349,4.5957,4.4786,4.6638,4.6579,0.0,4.388,4.1068,0.0,0.0,0.0,0.0,0.0,0.0,0.0,0.0,3.9796,4.3813,4.7558,5.0244,5.1745,5.0865,5.0157,4.9793,4.9149,4.7327,4.4245,4.1015,3.8154,0.0,0.0,0.0,0.0,0.0,0.0,0.0,0.0,0.0,0.0,0.0,0.0,0.0,0.0,0.0,0.0,0.0,0.0,0.0,0.0,0.0,0.0,0.0,3.374,0.0,0.0,0.0,0.0,0.0,0.0,0.0,0.0,0.0,4.0347,4.3871,4.7301,4.9529,5.083,5.1878,5.2676,0.0,0.0,0.0,0.0,0.0,0.0,0.0,5.0828,5.1651,5.1073,5.088,5.1996,5.313,5.382,5.3513,0.0,0.0,5.0112,4.7945,4.6757,4.6736,4.7436,4.7817,4.7274,4.8524,4.9547,0.0,0.0,0.0,0.0,0.0,0.0,0.0,0.0,4.1065,4.0562,0.0,3.9711,0.0,0.0,0.0,0.0,0.0,4.0912,0.0,0.0,4.8739,5.0943,5.0353,5.0935,5.1271,5.1232,4.9757,4.7793,4.5167,4.0464,0.0,0.0,0.0,0.0,0.0,0.0,4.1971,4.5467,4.915,5.1507,5.2374,5.1575,5.1102,5.1014,4.9499,4.7895,4.6278,4.4821,4.2857,4.0291,3.7445,0.0,0.0,0.0,0.0,0.0,0.0,0.0,0.0,0.0,0.0,0.0,0.0,0.0,0.0,0.0,0.0,0.0,0.0,0.0,0.0,3.4353,0.0,0.0,0.0,0.0,0.0,0.0,0.0,0.0,0.0,0.0,4.4409,4.7455,5.0546,5.2153,0.0,0.0,0.0,0.0,5.2993,5.386,5.3989,5.3677,5.2826,5.3255,5.3436,5.2721,0.0,0.0,5.396,5.5358,5.6183,5.5383,5.6008,5.6325,5.5393,5.3707,5.2617,5.2637,5.2068,5.1649,5.1737,5.2917,5.3993,4.8945,0.0,0.0,0.0,0.0,4.5735,4.692,4.8813,4.881,4.7634,4.5578,4.445,0.0,0.0,0.0,0.0,0.0,0.0,4.5704,4.7302,4.9945,5.1305,5.1606,5.1791,5.1825,5.1711,5.1395,5.0809,4.9932,4.8508,4.347,3.521,0.0,0.0,0.0,0.0,4.416,4.8512,5.0115,5.1575,5.315,5.2197,5.1424,5.097,5.0038,4.9324,4.8865,4.7295,4.5321,4.2986,4.1396,0.0,0.0,0.0,0.0,0.0,0.0,0.0,0.0,0.0,0.0,0.0,0.0,0.0,0.0,0.0,0.0,0.0,0.0,0.0,3.5106,3.762,3.9124,0.0,0.0,0.0,0.0,0.0,0.0,0.0,0.0,0.0,5.0512,5.2252,5.3686,0.0,0.0,5.5078,5.4677,5.5478,5.601,5.5611,5.5583,0.0,5.4449,5.3529,5.3264,5.4201,5.5543,5.672,5.74,5.7884,5.8098,5.7895,5.81,5.8186,5.7895,5.6541,5.5666,5.6103,5.6115,5.6185,5.6797,5.732,5.7581,5.369,5.0966,4.951,4.919,4.9623,4.9623,5.0679,5.2385,5.2381,5.1495,4.9988,4.905,4.7109,4.4465,4.3091,0.0,0.0,0.0,4.8675,5.0266,5.146,5.2247,5.262,5.2897,5.2967,5.2888,5.2656,5.2497,5.2427,5.2159,4.8168,4.084,0.0,0.0,4.1779,4.3822,4.6883,5.0748,5.1428,5.2387,5.3803,5.2914,5.1904,5.0869,5.0439,5.0078,4.9807,4.8502,4.7005,4.5308,4.4165,4.1399,0.0,0.0,0.0,0.0,0.0,0.0,0.0,0.0,0.0,0.0,0.0,3.0339,2.8138,0.0,0.0,0.0,3.4129,3.692,4.0338,4.2098,0.0,0.0,0.0,0.0,0.0,0.0,0.0,4.9287,5.2036,5.404,5.477,5.5744,5.6259,5.5845,5.5988,5.594,5.5437,0.0,5.7266,5.6724,5.6667,5.6647,5.6462,5.5072,5.4455,5.5852,5.69,5.7892,5.8743,5.8915,5.8921,5.8943,5.8978,5.9002,5.9002,5.8154,5.7638,5.8162,5.8302,5.85,5.9008,5.9119,5.912,5.7322,5.7009,5.3646,5.2239,5.2244,5.2239,5.2557,5.3047,5.3079,5.3028,5.297,5.3097,5.2206,5.06,4.9883,0.0,5.0301,5.1108,5.1808,5.2501,5.3157,5.3483,5.3494,5.41,5.4409,5.4371,5.3629,5.3299,5.327,5.268,5.1166,4.8872,4.8815,4.8383,4.7599,4.8101,4.9674,5.2164,5.2639,5.3326,5.4165,5.3478,5.2333,5.0737,5.0681,5.0324,4.9527,4.8836,4.8089,4.7217,4.6128,4.3915,4.034,0.0,0.0,0.0,0.0,0.0,0.0,0.0,0.0,0.0,0.0,0.0,0.0,0.0,0.0,0.0,3.9983,0.0,4.6664,4.7135,0.0,0.0,0.0,4.7727,4.8675,5.1485,5.3406,5.3548,0.0,0.0,5.7463,5.7944,5.8054,5.7267,5.6376,5.5845,5.5898,5.6631,5.7218,5.7102,5.7218,5.7573,5.7887,5.6837,5.6245,5.7198,5.7648,5.802,5.8807,5.9121,5.9118,5.9208,5.9171,5.9248,5.9209,5.9255,5.92,5.9239,5.9214,5.9219,5.939,5.945,5.9487,5.7322,5.7217,5.6363,5.5984,5.5984,5.6003,5.5719,5.5327,5.5308,5.4973,5.4354,5.3765,5.2917,5.1934,5.1757,5.1658,5.167,5.2502,5.2934,5.3056,5.3808,5.4167,5.4178,5.4313,5.4409,5.439,5.4221,5.4127,5.4098,5.396,5.3341,5.2334,5.2284,5.0683,4.7656,4.8302,4.986,5.216,5.1088,5.1175,5.2419,5.2306,5.1732,5.0718,5.0681,5.0324,4.9546,4.9333,4.8852,4.808,4.8303,4.6984,4.3755,3.9866,0.0,0.0,0.0,0.0,0.0,0.0,0.0,0.0,0.0,3.6588,3.2083,0.0,3.9244,0.0,4.4484,4.771,4.908,4.9893,0.0,0.0,5.1919,5.2529,5.5164,5.5026,5.5251,5.6633,5.7447,5.8118,5.8639,5.7785,5.7495,5.8406,5.7575,5.6639,5.6122,5.6689,5.6968,5.6463,5.6837,5.7041,5.6672,5.6301,5.6377,5.7288,5.7994,5.876,5.9698,6.0398,6.0819,6.0866,6.09,6.0905,6.0866,6.0948,6.0964,6.0934,6.0469,6.0219,6.0843,6.1035,6.1059,5.819,5.819,5.819,5.8247,5.8305,5.761,5.7038,5.6648,5.6629,5.6383,5.5936,5.5455,5.4962,5.4496,5.4496,5.4384,5.4269,5.4731,5.4915,5.4877,5.531,5.5516,5.5498,5.5095,5.4926,5.4907,5.4554,5.4366,5.439,5.4385,5.4198,5.39,5.39,5.2651,5.0279,5.0353,5.1075,5.2293,5.1719,5.1914,5.2953,5.2663,5.1941,5.0877,5.0463,4.9743,4.8647,4.827,4.7705,4.6895,4.695,4.6189,4.4394,4.0919,3.8285,0.0,0.0,0.0,0.0,0.0,0.0,0.0,0.0,0.0,0.0,0.0,4.3271,4.418,4.8344,5.1058,5.1218,5.2711,5.4058,5.4979,5.5383,5.6109,5.7482,5.7456,5.7574,5.8203,5.8568,5.8968,5.9486,5.8866,5.8453,5.9003,5.8478,5.7769,5.7119,5.7566,5.7779,5.7018,5.6925,5.6699,5.5888,5.6522,5.7244,5.7776,5.854,5.9418,6.0327,6.0934,6.1286,6.135,6.169,6.1898,6.157,6.1873,6.2016,6.1634,6.1532,6.1513,6.1567,6.1621,6.1652,5.9525,5.9459,5.9441,5.9521,5.9549,5.8143,5.7537,5.7486,5.7486,5.7414,5.7288,5.7256,5.7178,5.7073,5.7037,5.6998,5.6896,5.6878,5.6878,5.6887,5.6887,5.6887,5.6868,5.6127,5.5771,5.5724,5.4885,5.451,5.455,5.4398,5.4303,5.4282,5.4282,5.4038,5.3516,5.2852,5.2402,5.2186,5.2939,5.3541,5.3925,5.3214,5.214,5.0775,4.9984,4.8918,4.7553,4.6811,4.6107,4.5346,4.472,4.4377,4.4334,4.1418,4.0041,0.0,3.8608,0.0,0.0,0.0,0.0,0.0,0.0,0.0,0.0,4.6307,4.732,4.8048,5.1552,5.3675,5.341,5.5324,5.6669,5.6887,5.8125,5.8673,5.79,5.9069,5.9724,5.9026,5.9619,6.0084,6.008,6.0113,5.9803,5.9288,5.9054,5.8787,5.8431,5.8617,5.8624,5.8068,5.7373,5.6808,5.6341,5.7308,5.828,5.8406,5.9149,5.9993,6.0748,6.1239,6.1477,6.1535,6.2253,6.2584,6.1823,6.2425,6.2686,6.2088,6.2496,6.2711,6.2084,6.2024,6.1892,6.0738,6.0199,6.0199,5.9872,5.9335,5.9053,5.8768,5.852,5.852,5.8034,5.7224,5.7049,5.6975,5.694,5.6823,5.6824,5.6887,5.6788,5.6797,5.6887,5.6887,5.6887,5.6887,5.6737,5.6662,5.6587,5.5753,5.5359,5.5358,5.4711,5.4144,5.3693,5.3674,5.3694,5.3689,0.0,0.0,0.0,5.1736,5.2134,5.1507,5.0974,5.0226,4.9252,4.9068,0.0,4.7546,4.7356,4.7185,4.7033,4.6893,0.0,0.0,0.0,0.0,0.0,0.0,0.0,0.0,0.0,0.0,0.0,4.7642,4.6787,4.6137,4.9239,5.1322,5.1447,5.3424,5.5188,5.6353,5.6899,5.7765,5.9069,5.9471,5.9571,5.9441,5.9666,5.9796,5.9789,5.9915,6.0041,6.0057,5.9573,5.9371,5.9741,5.9337,5.9192,5.9633,5.8854,5.8215,5.7992,5.7826,5.7723,5.7519,5.7874,5.8258,5.8385,5.9548,6.0525,6.0974,6.2195,6.3018,6.2927,6.3356,6.3592,6.3281,6.3542,6.3688,6.3536,6.3678,6.3567,6.2829,6.3217,6.3503,6.1305,0.0,6.0984,6.0886,0.0,6.0742,6.0425,5.987,5.9281,5.87,5.8184,5.8115,5.807,5.8053,5.8132,5.8175,5.8194,5.8322,5.8331,5.8291,5.822,5.8114,5.8025,5.7603,5.7397,5.735,5.6544,5.615,5.6113,5.5693,5.5325,5.5042,5.4671,5.4546,5.4602,5.3837,5.2858,5.1701,5.245,5.2772,5.2567,5.1941,5.1268,5.0499,5.0096,0.0,0.0,0.0,0.0,0.0,0.0,0.0,0.0,0.0,0.0,4.7219,4.66,4.6505,4.7275,4.8456,5.0019,5.2001,5.213,5.1441,4.9888,5.2378,5.4366,5.5155,5.6053,5.6919,5.7748,5.8226,5.8673,5.9176,5.9551,5.9826,5.9841,5.9816,5.9799,5.9784,5.9782,5.9834,5.9934,5.9667,5.9562,5.9943,5.9753,5.9634,5.9916,5.9166,5.8328,5.7889,5.7821,5.7816,5.782,5.8249,5.8756,5.9262,6.0303,6.1249,6.1825,6.2728,6.3369,6.3367,6.3892,6.4257,6.3854,6.4155,6.4451,6.416,6.4351,6.4531,6.4132,6.413,6.4055,6.1823,6.1766,6.1766,6.188,6.2078,6.2059,6.1742,6.1069,0.0,0.0,0.0,5.9272,5.9262,5.9234,5.9472,5.9514,5.9433,5.9746,5.9779,5.9611,5.9496,5.9363,5.9178,5.8465,5.8128,5.81,5.7314,5.693,5.6902,5.6715,5.6613,5.6547,5.5995,5.5695,5.5658,5.525,5.4635,5.3888,5.3618,5.3729,5.4159,5.3465,5.2747,5.2064,5.1402,5.073,5.0005,4.9987,4.9651,4.8909,4.8264,4.8276,4.8991,4.8566,4.9015,5.0659,5.1556,5.202,5.2032,5.3118,5.4038,5.4506,5.5305,5.5232,5.3876,5.4915,5.6256,5.7838,5.7987,5.8079,5.8336,5.8957,5.9226,5.8736,5.9314,5.9759,5.9776,5.974,5.9714,5.9643,5.9775,5.9887,6.0021,6.023,6.0248,6.0205,6.0214,6.019,6.0015,5.9532,5.8915,5.8348,5.8484,5.8412,5.8417,5.9142,5.9891,6.0678,6.1485,6.2259,6.2933,6.3399,6.3603,6.3731,6.4453,6.4712,6.4309,6.4817,6.513,6.4526,6.4976,6.5515,6.5466,6.5015,6.4585,6.294,6.2385,6.2385,6.2062,6.1599,6.1599,6.1525,6.1322,5.9966,5.9399,5.9452,5.9272,5.9196,5.9205,5.9139,5.9092,5.9054,5.9081,5.9129,5.9262,5.9253,5.9253,5.9272,5.9112,5.9037,5.9028,5.8166,5.7716,5.7641,5.7042,5.6659,5.6622,5.6491,5.6426,5.651,5.708,5.6695,5.5259,5.4078,5.3501,5.3448,5.2913,5.222,5.1468,5.1367,5.0834,4.9952,5.0043,4.9852,4.9578,4.9557,4.9845,5.0469,5.1013,5.2024,5.3647,5.4378,5.5076,5.5785,5.5385,5.5088,5.5201,5.5958,5.6116,5.5375,5.5479,5.6005,5.6989,5.7201,5.745,5.8126,5.848,5.8863,5.9333,5.9488,5.9564,5.9616,5.9591,5.9564,5.9589,6.0276,6.0634,6.0633,6.1189,6.128,6.0934,6.0596,6.0612,6.0094,5.995,5.9863,5.9813,6.0357,6.0764,6.0695,6.1468,6.1964,6.2384,6.3055,6.3589,6.3954,6.4583,6.4991,6.5048,6.5398,6.56,6.5436,6.5841,6.5941,6.5791,6.6046,6.6259,6.6268,6.615,6.5946,6.3435,6.3199,6.321,6.3051,6.2766,6.2302,6.2095,6.1983,6.0879,6.0477,6.0528,6.0,5.9958,6.0348,6.0469,6.0265,5.9814,5.9957,5.9759,5.9318,5.9299,5.9244,5.913,5.9101,5.9101,5.9111,5.8802,5.8587,5.8464,5.8175,5.7997,5.7823,5.7385,5.6995,5.6706,5.7052,5.6929,5.6253,5.5208,5.4401,5.3916,5.4072,5.3987,5.3601,5.4036,5.4091,5.3569,5.3612,5.3578,5.3458,5.3499,5.3662,5.3926,5.3818,5.4119,5.4933,5.5191,5.551,5.6013,5.6435,5.6463,5.6071,5.678,5.7126,5.6837,5.6406,5.65,5.7286,5.7407,5.7753,5.855,5.8764,5.9007,5.9399,5.9484,5.9511,5.9538,5.952,5.9493,5.9484,5.9785,6.0066,6.0121,6.046,6.0628,6.0273,6.0243,6.0124,5.9926,5.9929,6.0113,6.0519,6.0969,6.1438,6.1864,6.2289,6.2806,6.3329,6.381,6.4287,6.4707,6.5297,6.5424,6.5432,6.5637,6.5801,6.5795,6.6003,6.6176,6.6245,6.6318,6.6406,6.6435,6.652,6.6474,6.3613,6.3702,6.3736,6.3798,6.3752,6.3076,6.2805,6.2774,6.1873,6.1685,6.1846,6.0923,6.0686,6.1044,6.148,6.1184,6.0462,6.0621,6.0216,5.9355,5.9281,5.9187,5.9004,5.8993,5.8983,5.8994,5.909,5.9089,5.9012,5.9099,5.9031,5.8805,5.8189,5.7616,5.7155,5.7183,5.7136,5.7032,5.6449,5.5753,5.501,5.5564,5.5849,5.5825,5.6486,5.6769,5.6584,5.6659,5.6659,5.6537,5.6546,5.6537,5.6528,5.607,5.5865,5.5995,5.6043,5.6015,5.6033,5.7209,5.7674,5.6891,5.7544,5.8084,5.8196,5.7711,5.7535,5.7975,5.8079,5.834,5.8864,5.912,5.9215,5.9272,5.9383,5.9457,5.9457,5.9466,5.942,5.9318,5.9478,5.9684,5.9758,5.9917,6.0057,6.0006,5.9738,5.9736,5.9847,5.9822,6.0179,6.0816,6.1106,6.1454,6.2297,6.2732,6.3269,6.4099,6.4375,6.4726,6.5215,6.5375,6.5402,6.5417,6.553,6.565,6.5737,6.5906,6.6063,6.6123,6.6225,6.6296,6.6316,6.6418,6.6677,6.3424,6.3458,6.3586,6.3613,6.3606,6.34,6.3442,6.3523,6.2699,6.2795,6.325,6.1909,6.0863,6.036,6.1092,6.093,6.0091,6.0,5.9692,5.9072,5.895,5.8971,5.9012,5.8941,5.8941,5.8983,5.8961,5.894,5.892,5.893,5.8869,5.8719,5.8634,5.8562,5.8489,5.86,5.8296,5.7579,5.7641,5.7369,5.6718,5.6737,5.6711,5.6593,5.6796,5.6752,5.6554,5.6585,5.6613,5.6353,5.6439,5.645,5.6515,5.6976,5.737,5.7546,5.8041,5.8097,5.7457,5.8134,5.8246,5.7585,5.8171,5.8915,5.9565,5.9621,5.9351,5.9037,5.8891,5.8937,5.8994,5.9147,5.928,5.942,5.945,5.9318,5.9431,5.9318,5.9299,5.929,6.006,6.0492,6.0492,6.0858,6.1103,6.0565,6.0158,5.9994,6.0097,6.0009,6.024,6.0871,6.1106,6.1467,6.2269,6.3154,6.3737,6.4674,6.5078,6.513,6.5203,6.5329,6.5394,6.5409,6.545,6.5544,6.5608,6.573,6.5912,6.5973,6.6091,6.6211,6.6272,6.6316,6.6636,6.3312,6.3412,6.3458,6.3534,6.3579,6.3534,6.3534,6.3512,6.3256,6.3033,6.2874,6.2706,6.2468,6.2208,6.2524,6.2186,6.141,6.1448,6.1031,6.0269,5.9899,5.9699,5.9612,5.9096,5.892,5.8941,5.8909,5.8899,5.8899,5.8899,5.8869,5.8818,5.8737,5.8737,5.8809,5.8869,5.8715,5.8459,5.85,5.8418,5.8128,5.7707,5.7398,5.7322,5.7875,5.8137,5.7915,5.8004,5.7994,5.7843,5.7766,5.7756,5.7774,5.7604,5.7551,5.7691,5.7901,5.8099,5.8215,5.852,5.8568,5.8205,5.8947,5.956,5.9876,6.0378,6.055,6.03,5.9837,5.9539,5.9549,5.9631,5.9926,6.0328,6.057,6.064,6.0649,6.0716,6.0773,6.0811,6.1074,6.1093,6.0661,6.0435,6.0501,6.0621,6.0529,6.0516,6.1092,6.089,6.0718,6.0995,6.1106,6.1492,6.2237,6.2715,6.3245,6.3679,6.4165,6.4488,6.4653,6.5089,6.5333,6.5398,6.5454,6.5479,6.5509,6.5608,6.575,6.5833,6.5955,6.6118,6.623,6.6254,6.665,6.2978,6.3087,6.3128,6.3242,6.3384,6.3377,6.3342,6.3289,6.3354,6.2968,6.2484,6.309,6.3396,6.3407,6.3522,6.3111,6.238,6.2413,6.1793,6.0707,6.0192,5.9823,5.9507,5.8951,5.8662,5.8643,5.8643,5.8643,5.8672,5.8672,5.8765,5.8911,5.8662,5.8662,5.8929,5.8792,5.8677,5.8712,5.8784,5.8805,5.8701,5.8307,5.8029,5.8044,5.8724,5.9041,5.8859,5.8922,5.8933,5.883,5.8758,5.8687,5.8669,5.813,5.7856,5.7898,5.7899,5.8119,5.8661,5.8687,5.8687,5.8762,5.9449,6.0025,6.034,6.1028,6.1503,6.1466,6.0935,6.05,5.9942,6.0213,6.0611,6.0956,6.13,6.1562,6.1564,6.168,6.1673,6.1796,6.1646,6.1458,6.0726,6.0173,6.0115,6.0659,6.0771,6.0949,6.1665,6.1315,6.0965,6.1014,6.105,6.1319,6.1988,6.2417,6.2496,6.2772,6.3402,6.4002,6.4049,6.4716,6.5282,6.5344,6.5409,6.5462,6.5469,6.5542,6.5627,6.5728,6.584,6.5992,6.6091,6.6118,6.6387,6.2238,6.2305,6.2539,6.2737,6.283,6.2855,6.2935,6.2996,6.2904,6.2812,6.2751,6.2836,6.2861,6.2892,6.3342,6.3009,6.2147,6.2091,6.1248,5.9731,5.9455,5.8899,5.8116,5.8061,5.8109,5.8313,5.8269,5.8184,5.8143,5.8102,5.8435,5.9133,5.8561,5.8502,5.9051,5.8584,5.812,5.8303,5.8452,5.8393,5.8338,5.8446,5.8592,5.8728,5.8925,5.8894,5.875,5.8838,5.8848,5.8727,5.8716,5.8687,5.8687,5.8632,5.8576,5.8605,5.8605,5.8624,5.8669,5.8677,5.8667,5.8788,5.9462,6.0226,6.0907,6.176,6.2261,6.2305,6.2198,6.1567,6.0353,6.0784,6.101,6.0629,6.1135,6.1603,6.1684,6.1802,6.1646,6.1803,6.1765,6.1399,6.0745,6.0623,6.0529,6.0698,6.08,6.1004,6.1175,6.1079,6.1019,6.1047,6.1056,6.1016,6.1244,6.1919,6.2395,6.2664,6.3161,6.3878,6.4198,6.4538,6.4959,6.5285,6.5332,6.536,6.5421,6.5469,6.5549,6.5627,6.5734,6.5846,6.5913,6.5978,6.6173,6.237,6.2475,6.2654,6.2755,6.2811,6.2811,6.278,6.2755,6.278,6.2761,6.2692,6.2755,6.2811,6.2823,6.299,6.2879,6.2518,6.2603,6.223,6.1477,6.106,6.0675,6.0279,5.979,5.9533,5.9459,5.9001,5.8756,5.8756,5.8786,5.9178,5.9826,5.968,5.9698,5.9881,5.968,5.958,5.9644,5.9737,5.9566,5.909,5.9172,5.902,5.8603,5.8564,5.8598,5.8687,5.8685,5.8687,5.8809,5.8766,5.8687,5.8687,5.8687,5.8687,5.8687,5.8687,5.8687,5.8677,5.8543,5.8439,5.852,5.9571,6.0315,6.0838,6.184,6.2651,6.2651,6.2669,6.2116,6.1449,6.1615,6.2085,6.2367,6.2689,6.2857,6.3003,6.3025,6.3069,6.2973,6.233,6.149,6.108,6.0416,6.0285,6.1206,6.1083,6.1317,6.207,6.2031,6.1653,6.1775,6.2068,6.2256,6.1743,6.1977,6.2295,6.2554,6.2974,6.3533,6.3955,6.4556,6.5035,6.5194,6.5245,6.5317,6.5375,6.5592,6.5621,6.5549,6.5632,6.5848,6.571,6.5801,6.5871,6.2082,6.2212,6.2397,6.2519,6.2521,6.2609,6.257,6.2475,6.2462,6.2454,6.241,6.2467,6.2488,6.2545,6.2545,6.2545,6.2552,6.2717,6.2589,6.2132,6.1677,6.1299,6.0894,6.0376,6.0139,6.0065,5.9621,5.9329,5.9329,5.9329,5.9755,6.0473,6.0303,6.0285,6.0449,6.0285,6.0219,6.0256,6.0304,5.9992,5.9388,5.9359,5.9018,5.8326,5.8126,5.8238,5.8508,5.8422,5.8422,5.8551,5.8508,5.8476,5.8476,5.8476,5.8476,5.8476,5.8476,5.8476,5.8465,5.8286,5.8198,5.8271,5.9522,6.0389,6.0499,6.1875,6.2664,6.2811,6.2793,6.2517,6.2212,6.2318,6.2565,6.2688,6.2868,6.2984,6.2807,6.2803,6.2856,6.2742,6.2126,6.1523,6.1169,6.0516,6.0706,6.175,6.1497,6.2033,6.2833,6.2824,6.241,6.2447,6.2787,6.3003,6.2928,6.3079,6.2549,6.2622,6.3042,6.351,6.392,6.4532,6.4943,6.5092,6.5194,6.5277,6.5432,6.5658,6.5665,6.5541,6.586,6.6167,6.5941,6.5655,6.5722,6.1226,6.1412,6.1672,6.1923,6.2042,6.2163,6.2203,6.2254,6.2014,6.2032,6.2205,6.1959,6.1992,6.2019,6.2087,6.2051,6.2114,6.2323,6.1969,6.1157,6.1004,6.0618,6.0007,6.0002,5.9875,5.9807,5.9677,5.9641,5.968,5.9712,6.0097,6.0565,6.0224,6.0341,6.0842,6.026,5.9812,5.995,6.0103,5.9632,5.877,5.9036,5.8754,5.7943,5.7703,5.7815,5.8174,5.8065,5.8024,5.8065,5.8054,5.8001,5.8047,5.8047,5.8013,5.8035,5.8031,5.802,5.8031,5.802,5.7955,5.815,5.9423,6.0188,6.0329,6.1624,6.2595,6.2546,6.2668,6.2706,6.2662,6.2663,6.223,6.0908,6.1611,6.1757,6.1139,6.0852,6.1015,6.1493,6.1547,6.1187,6.0767,6.0862,6.1331,6.1708,6.2124,6.2551,6.2881,6.2903,6.2998,6.3046,6.3206,6.3423,6.3864,6.4183,6.3351,6.2796,6.3284,6.3734,6.3985,6.4474,6.4829,6.5,6.5163,6.5256,6.5397,6.5589,6.5708,6.5707,6.6134,6.6221,6.588,6.5564,6.5606,6.1476,6.1519,6.1619,6.169,6.1728,6.1868,6.2212,6.2646,6.2198,6.2272,6.2643,6.2204,6.195,6.1996,6.201,6.201,6.2023,6.2087,6.1928,6.1661,6.1611,6.1485,6.1267,6.1231,6.096,6.0507,6.0416,6.0435,6.0448,6.0416,6.0833,6.1412,6.1376,6.1376,6.1575,6.1376,6.129,6.1392,6.1432,6.09,5.9833,5.9774,5.9182,5.7945,5.7673,5.7637,5.7631,5.7679,5.7851,5.8088,5.8042,5.7978,5.7978,5.7978,5.7978,5.7997,5.7916,5.7897,5.795,5.7745,5.7649,5.7837,5.8579,5.8977,5.9165,6.0542,6.1451,6.1547,6.1898,6.2262,6.2262,6.2243,6.2128,6.2058,6.2273,6.2022,6.1294,6.1231,6.1671,6.2147,6.2001,6.1704,6.154,6.1589,6.1634,6.2099,6.2199,6.2232,6.2752,6.2938,6.2924,6.3062,6.3407,6.3782,6.4075,6.4274,6.3874,6.3417,6.371,6.3936,6.4179,6.4366,6.4703,6.4931,6.5088,6.5251,6.5393,6.5589,6.5746,6.5662,6.5776,6.5696,6.5497,6.5477,6.5528,6.1448,6.1491,6.1487,6.1713,6.199,6.209,6.2587,6.3145,6.2507,6.2506,6.2769,6.2113,6.1802,6.1826,6.1882,6.1927,6.1909,6.1969,6.201,6.201,6.201,6.201,6.201,6.201,6.1792,6.134,6.1249,6.1249,6.1249,6.1267,6.1503,6.1919,6.201,6.1992,6.201,6.201,6.2042,6.2177,6.2167,6.1527,6.0424,6.0114,5.9359,5.7965,5.7583,5.7498,5.748,5.7461,5.7577,5.7768,5.7745,5.7709,5.7697,5.7697,5.7709,5.7685,5.7637,5.7613,5.7661,5.748,5.7351,5.7515,5.805,5.8577,5.8981,6.0127,6.0833,6.1286,6.1716,6.201,6.2023,6.2023,6.2181,6.2454,6.2128,6.1772,6.117,6.1006,6.1214,6.1539,6.1506,6.1453,6.1412,6.1745,6.1755,6.231,6.2436,6.2444,6.3059,6.3197,6.3273,6.3401,6.3729,6.3994,6.4157,6.4254,6.4284,6.4194,6.4197,6.4265,6.4389,6.4482,6.4708,6.4861,6.5019,6.5172,6.5315,6.5779,6.6009,6.5784,6.554,6.5708,6.5723,6.5489,6.5469,6.1182,6.1299,6.1335,6.1874,6.2565,6.2612,6.3129,6.3729,6.2919,6.2643,6.2612,6.1979,6.1545,6.1637,6.176,6.1802,6.1844,6.1927,6.1996,6.201,6.201,6.201,6.201,6.201,6.1955,6.1919,6.1919,6.1937,6.1865,6.1883,6.1992,6.201,6.201,6.201,6.201,6.201,6.206,6.215,6.2117,6.1342,6.0081,5.9875,5.9169,5.768,5.7492,5.7437,5.7474,5.7356,5.7213,5.7201,5.7354,5.7476,5.734,5.7291,5.7577,5.7626,5.7364,5.7389,5.7322,5.7268,5.7273,5.748,5.8047,5.8728,5.9457,6.0254,6.1014,6.158,6.1883,6.201,6.201,6.201,6.2037,6.1919,6.1484,6.0837,6.0278,6.0243,6.0556,6.0713,6.0567,6.0615,6.1023,6.1625,6.2054,6.243,6.3037,6.3386,6.3618,6.3643,6.3798,6.3918,6.3973,6.4044,6.4133,6.4254,6.4313,6.4304,6.4354,6.4394,6.4453,6.4549,6.4643,6.4798,6.495,6.5095,6.5289,6.5661,6.5809,6.557,6.5612,6.5933,6.5872,6.5543,6.5417,6.1141,6.1206,6.1795,6.2183,6.2406,6.251,6.3343,6.436,6.3203,6.2981,6.3237,6.2705,6.2033,6.1754,6.1676,6.1746,6.1886,6.1886,6.1927,6.1996,6.201,6.201,6.201,6.201,6.201,6.201,6.201,6.201,6.201,6.201,6.201,6.201,6.201,6.201,6.201,6.201,6.2023,6.1969,6.1519,6.0877,5.996,5.9356,5.8591,5.7613,5.7431,5.7381,5.7313,5.7244,5.7188,5.7243,5.7786,5.8094,5.8021,5.8456,5.8691,5.8678,5.8203,5.7968,5.7929,5.7461,5.7407,5.8009,5.8329,5.8746,5.9542,6.0326,6.0851,6.1213,6.1611,6.201,6.201,6.201,6.201,6.1919,6.1322,6.0986,6.1157,6.094,6.0834,6.1445,6.1568,6.1662,6.1839,6.2118,6.2506,6.2815,6.3157,6.347,6.3628,6.3725,6.3739,6.3851,6.3937,6.4019,6.4111,6.4224,6.4303,6.4313,6.4324,6.4335,6.4424,6.4511,6.4615,6.4744,6.4834,6.4965,6.5069,6.5297,6.5264,6.5324,6.5436,6.5634,6.5593,6.5413,6.5413,6.1611,6.1628,6.2107,6.2304,6.2319,6.2376,6.3121,6.3941,6.3427,6.3057,6.311,6.2755,6.2136,6.1537,6.1577,6.1676,6.1816,6.1872,6.1941,6.1996,6.201,6.201,6.201,6.201,6.201,6.201,6.201,6.201,6.201,6.201,6.201,6.201,6.201,6.201,6.201,6.201,6.182,6.1561,6.1146,6.0508,5.9445,5.8966,5.8298,5.7569,5.7351,5.7282,5.7219,5.7188,5.7188,5.7279,5.7623,5.7895,5.7931,5.8311,5.8746,5.8986,5.827,5.8035,5.8616,5.8089,5.8035,5.8684,5.8891,5.9325,5.9977,6.0561,6.0851,6.1394,6.172,6.1901,6.1996,6.201,6.201,6.1955,6.1575,6.1376,6.1539,6.1371,6.1322,6.1584,6.1856,6.2163,6.2296,6.2423,6.2641,6.2874,6.3056,6.3296,6.3458,6.3515,6.3613,6.3717,6.3848,6.3923,6.3998,6.4113,6.4244,6.4264,6.4304,6.4334,6.4365,6.4453,6.452,6.4615,6.4735,6.4834,6.4941,6.5036,6.5155,6.5221,6.5237,6.5277,6.5305,6.536,6.536,6.2179,6.2179,6.2283,6.2334,6.2316,6.2367,6.2841,6.34,6.3308,6.2918,6.2507,6.2319,6.1807,6.1013,6.116,6.1375,6.1324,6.1533,6.1878,6.1955,6.201,6.201,6.201,6.201,6.201,6.201,6.201,6.201,6.201,6.201,6.1901,6.1792,6.1792,6.1756,6.1503,6.1593,6.1403,6.0938,6.0778,6.0085,5.9086,5.8661,5.8205,5.7484,5.7264,5.7213,5.7188,5.7188,5.7188,5.7188,5.7261,5.7465,5.7447,5.7398,5.7887,5.8363,5.8079,5.811,5.9126,5.8751,5.8769,5.9475,5.971,6.0072,6.0742,6.1032,6.1286,6.1792,6.185,6.1913,6.1982,6.1996,6.1978,6.1978,6.1955,6.1593,6.1141,6.143,6.1593,6.0978,6.1485,6.1842,6.2059,6.2229,6.2397,6.2647,6.2848,6.2996,6.3183,6.3342,6.3412,6.3522,6.365,6.3823,6.3902,6.3979,6.4123,6.4205,6.4274,6.4304,6.4314,6.4355,6.4394,6.4472,6.4587,6.4698,6.4817,6.4934,6.5019,6.5114,6.5139,6.5172,6.5213,6.5269,6.5301,6.1361,6.1429,6.2156,6.2451,6.2481,6.257,6.3026,6.3639,6.2979,6.2615,6.2421,6.2331,6.1507,6.0354,6.0408,6.0248,6.0173,6.0733,6.1231,6.1992,6.201,6.201,6.201,6.201,6.201,6.201,6.201,6.201,6.201,6.1955,6.1684,6.1213,6.1177,6.076,6.0326,6.0362,6.0086,5.9921,5.9994,5.9517,5.8711,5.8458,5.8106,5.7342,5.7201,5.7188,5.7188,5.7188,5.7188,5.7333,5.7683,5.7898,5.7942,5.8385,5.8747,5.8765,5.839,5.8448,5.9232,5.9064,5.904,6.0331,6.0553,6.0869,6.163,6.1657,6.1761,6.1978,6.1969,6.1837,6.1846,6.1863,6.1877,6.1932,6.1978,6.1688,6.1068,6.0996,6.105,6.0887,6.0923,6.1064,6.1158,6.1675,6.1967,6.2329,6.2521,6.2667,6.2898,6.3123,6.3272,6.3366,6.359,6.3758,6.3826,6.3934,6.405,6.4143,6.4224,6.4294,6.4294,6.4314,6.4335,6.4385,6.4443,6.4549,6.468,6.4763,6.4843,6.4932,6.501,6.5072,6.5122,6.5172,6.5213,6.1661,6.1697,6.2215,6.2195,6.1888,6.1911,6.2206,6.2543,6.2597,6.2233,6.1905,6.1807,6.1122,6.001,5.9727,5.9582,5.9968,6.0733,6.147,6.1928,6.201,6.201,6.201,6.201,6.201,6.1992,6.201,6.201,6.201,6.1955,6.1811,6.134,6.0978,6.0706,6.0109,5.9742,5.9421,5.9108,5.9087,5.872,5.7992,5.7886,5.7802,5.7291,5.7188,5.7188,5.7188,5.7188,5.7188,5.7284,5.7572,5.7769,5.7761,5.8088,5.8428,5.8681,5.8434,5.8798,5.9487,5.9727,5.9917,6.1136,6.1208,6.1401,6.1708,6.1816,6.1582,6.1351,6.1151,6.1124,6.1225,6.1284,6.1393,6.1845,6.1969,6.1765,6.1398,6.1317,6.0978,6.0616,6.0561,6.0507,6.0652,6.0996,6.1186,6.1399,6.1745,6.196,6.2667,6.2904,6.3153,6.3319,6.3545,6.3702,6.3791,6.387,6.3987,6.4071,6.4143,6.4234,6.4284,6.4294,6.4314,6.4335,6.4385,6.4424,6.453,6.4587,6.4689,6.478,6.4869,6.495,6.501,6.5053,6.5086,6.2155,6.2138,6.2168,6.1807,6.125,6.1244,6.1342,6.1446,6.203,6.1919,6.125,6.1163,6.0503,5.9724,5.9051,5.9261,6.0082,6.1015,6.1602,6.1978,6.201,6.1865,6.1811,6.1865,6.1756,6.172,6.1684,6.1756,6.1901,6.1738,6.1286,6.1358,6.0724,6.0,5.9941,5.9579,5.88,5.8306,5.8451,5.8143,5.7532,5.7436,5.7478,5.7156,5.7138,5.7112,5.7154,5.7275,5.7386,5.7362,5.7356,5.7423,5.743,5.7307,5.741,5.8172,5.8268,5.9087,6.0129,6.0435,6.0731,6.1702,6.1658,6.1583,6.1601,6.1615,6.1382,6.0875,6.06,6.0435,6.0534,6.059,6.1015,6.154,6.1872,6.1868,6.184,6.1895,6.1231,6.0362,6.0416,6.0507,6.0181,6.0181,6.0326,6.0511,6.089,6.1368,6.2099,6.2705,6.2953,6.3213,6.3442,6.3613,6.3702,6.3802,6.3921,6.3966,6.405,6.4133,6.4224,6.4234,6.4244,6.4286,6.4335,6.4375,6.4424,6.4473,6.4558,6.4652,6.4734,6.4815,6.4887,6.4931,6.4974,6.1481,6.1481,6.1659,6.1666,6.1694,6.1676,6.1704,6.1816,6.1785,6.166,6.1405,6.0558,5.9781,5.8966,5.8286,5.8618,5.9699,6.0711,6.1448,6.1906,6.1992,6.1774,6.1412,6.1756,6.1394,6.0471,6.0688,6.1358,6.1394,6.076,6.0435,5.9964,5.933,5.8728,5.8275,5.7659,5.7768,5.7677,5.7985,5.784,5.7496,5.7641,5.7644,5.7134,5.7067,5.7015,5.71,5.7603,5.8034,5.8093,5.8658,5.8892,5.8676,5.8132,5.7998,5.821,5.87,5.9452,6.0358,6.0624,6.0947,6.1428,6.1577,6.1577,6.1577,6.1559,6.1383,6.1067,6.0547,6.0361,6.1275,6.0635,6.0693,6.1285,6.1644,6.1718,6.1774,6.174,6.1502,6.0638,6.0616,6.0507,6.0054,5.9796,6.0,6.0217,6.0491,6.0951,6.1581,6.2268,6.2793,6.3051,6.3296,6.3477,6.3613,6.3732,6.3831,6.3856,6.3913,6.4008,6.4071,6.4131,6.4172,6.4215,6.4284,6.4324,6.4355,6.4404,6.4434,6.4511,6.4596,6.4697,6.4779,6.4852,6.4922,6.1197,6.1211,6.1299,6.139,6.143,6.143,6.1516,6.163,6.1605,6.1534,6.1211,6.0515,5.9617,5.8834,5.8438,5.8894,5.9866,6.0791,6.1493,6.195,6.1973,6.1865,6.1394,6.1847,6.1557,6.1014,6.0923,6.0742,6.076,6.0525,5.9959,5.9488,5.88,5.8202,5.7804,5.7496,5.7279,5.7351,5.7587,5.7659,5.7261,5.7659,5.7433,5.7167,5.7003,5.6964,5.7082,5.7708,5.8197,5.8385,5.8925,5.9038,5.8871,5.8687,5.8556,5.8682,5.9033,5.96,6.0388,6.0752,6.1128,6.1354,6.1386,6.1346,6.1375,6.1368,6.1283,6.0734,6.0006,5.9602,6.0098,6.0149,6.0397,6.0762,6.1246,6.1569,6.1672,6.1728,6.1334,6.0829,6.0711,6.0367,5.9778,5.9651,5.9801,5.9964,6.0127,6.0579,6.1086,6.1914,6.2667,6.2978,6.326,6.3477,6.359,6.3665,6.3743,6.3769,6.3812,6.3881,6.3977,6.4029,6.4111,6.4172,6.4213,6.4264,6.4304,6.4354,6.4365,6.4404,6.4492,6.4586,6.4689,6.477,6.4861,6.1138,6.1138,6.1138,6.1167,6.1182,6.1152,6.1241,6.1372,6.1491,6.1491,6.1293,6.0633,5.9816,5.9127,5.8934,5.9276,6.0182,6.0814,6.1301,6.1823,6.1743,6.172,6.1756,6.1901,6.1702,6.0978,6.1322,6.0688,6.0561,6.0326,6.0163,5.9868,5.909,5.8655,5.8497,5.8184,5.7732,5.7677,5.7659,5.7641,5.7478,5.7442,5.7239,5.699,5.6964,5.6997,5.7198,5.8016,5.8631,5.9019,5.943,5.9596,5.9083,5.8983,5.9133,5.9342,5.9327,5.9731,6.022,6.0963,6.1235,6.127,6.1167,6.1123,6.1141,6.1172,6.1048,6.03,5.9606,5.9363,5.9913,5.9899,6.0157,6.0511,6.1046,6.1415,6.1257,6.113,6.0899,6.063,6.0603,6.0082,5.9335,5.9035,5.909,5.9162,5.9325,6.0054,6.0674,6.183,6.2565,6.2941,6.3248,6.3488,6.359,6.359,6.3676,6.3702,6.3736,6.3791,6.387,6.3966,6.4029,6.4131,6.4172,6.4224,6.4254,6.4314,6.4365,6.4414,6.4434,6.4521,6.467,6.4752,6.4843,6.1267,6.1285,6.1285,6.1372,6.1491,6.1343,6.1386,6.1534,6.1415,6.1448,6.1451,6.0626,6.0089,5.9724,5.9097,5.9036,5.9322,5.9735,6.0539,6.1362,6.1154,6.0978,6.1104,6.172,6.1254,6.0838,6.1417,6.1756,6.1286,6.0398,6.0145,6.0186,5.971,5.9403,5.9213,5.904,5.933,5.9258,5.918,5.88,5.8239,5.8081,5.7578,5.7061,5.6843,5.7065,5.7536,5.8412,5.9231,6.0041,6.0917,6.136,6.1147,5.9755,5.9677,5.9985,6.025,6.0212,6.0289,6.0769,6.1202,6.1146,6.1108,6.1093,6.1123,6.1123,6.1125,6.1192,6.0306,5.9995,6.0311,6.0267,6.0406,6.0634,6.1011,6.0905,6.0691,6.1099,6.078,6.021,6.0111,5.9432,5.8694,5.8497,5.8311,5.8383,5.8637,5.9457,6.0392,6.162,6.2423,6.2798,6.3153,6.3419,6.3534,6.3545,6.3602,6.3635,6.3688,6.3702,6.3791,6.387,6.4008,6.409,6.4131,6.4203,6.4264,6.4334,6.4375,6.4405,6.4444,6.4558,6.4679,6.4761,6.4835,6.1241,6.1314,6.1314,6.1357,6.1415,6.1325,6.1415,6.1534,6.1386,6.1343,6.1347,6.0999,6.0544,5.9913,5.8906,5.8698,5.9123,5.9276,5.9745,6.0418,6.0304,6.0362,6.077,6.1109,6.0793,6.124,6.1489,6.1833,6.1552,6.091,6.0335,5.9979,5.9779,5.9495,5.9582,5.958,5.9258,5.8872,5.8456,5.8076,5.7809,5.7655,5.7381,5.6843,5.6782,5.7142,5.7813,5.8649,5.9563,6.0382,6.123,6.1406,6.0982,6.0086,5.9576,5.881,5.9362,5.9697,6.0071,6.0433,6.0672,6.1031,6.1072,6.1141,6.1185,6.1138,6.1152,6.1281,6.0951,6.0761,6.0711,6.0657,6.0527,6.0638,6.0977,6.0943,6.0776,6.096,6.0925,6.024,5.9547,5.8929,5.8412,5.8223,5.8303,5.8637,5.8945,5.9615,6.0546,6.1661,6.2251,6.2609,6.2984,6.3319,6.3419,6.3465,6.3557,6.3602,6.3632,6.3647,6.3691,6.3783,6.3921,6.4027,6.4061,6.4143,6.4264,6.4334,6.4355,6.4395,6.4444,6.4568,6.467,6.4725,6.5035,6.1285,6.1372,6.1285,6.1255,6.1237,6.1237,6.1328,6.1448,6.1314,6.1252,6.1224,6.1009,6.0418,5.9473,5.8395,5.8195,5.8907,5.883,5.9172,5.9342,5.9516,5.991,6.0498,6.0793,6.1168,6.1942,6.1434,6.1493,6.1285,6.0793,6.0075,5.9926,6.0056,5.9849,5.9741,5.9808,5.9718,5.9676,5.9172,5.8764,5.8394,5.82,5.777,5.7387,5.7267,5.7545,5.8169,5.9059,5.9905,6.035,6.0886,6.0868,6.0174,5.9775,5.9321,5.8675,5.8737,5.9004,5.9437,5.9799,6.0031,6.0352,6.0808,6.0819,6.1214,6.1152,6.1152,6.1299,6.1205,6.0821,6.0592,6.094,6.0828,6.0777,6.0881,6.0994,6.1019,6.0945,6.0551,5.9727,5.9096,5.8673,5.8244,5.8055,5.8265,5.8805,5.9325,5.9814,6.0704,6.1703,6.2162,6.2519,6.2898,6.3177,6.3177,6.3272,6.3431,6.3545,6.3564,6.3643,6.3691,6.3725,6.3802,6.3899,6.3987,6.4071,6.4172,6.4245,6.4335,6.4395,6.4463,6.4587,6.4661,6.4726,6.5112,6.1562,6.1566,6.1259,6.1123,6.1123,6.1108,6.1123,6.1182,6.1138,6.1161,6.1052,6.0472,5.938,5.8252,5.7824,5.7642,5.7904,5.7258,5.8011,5.8684,5.8957,5.9467,6.0146,6.0662,6.0987,6.1593,6.1058,6.066,6.0526,5.9966,6.038,6.1301,6.0327,6.0331,6.0132,5.9825,6.025,6.0372,6.0309,6.0273,5.9975,5.9677,5.9132,5.8398,5.8592,5.9046,5.9118,5.9751,6.015,6.0348,6.065,6.0226,5.961,5.9482,5.9163,5.8679,5.8148,5.8425,5.8829,5.8923,5.8877,5.9098,5.9544,6.0219,6.0656,6.0998,6.1131,6.1148,6.1119,6.1176,6.1054,6.1143,6.1042,6.0995,6.0938,6.0846,6.0803,6.0553,6.0075,5.9201,5.8814,5.8758,5.8277,5.8126,5.7658,5.8089,5.909,5.9615,6.0651,6.1587,6.207,6.2467,6.2842,6.3002,6.2892,6.3033,6.326,6.3396,6.3431,6.3598,6.3743,6.3754,6.3714,6.3812,6.3921,6.3995,6.4071,6.4184,6.4296,6.4405,6.4483,6.4558,6.4793,6.496,6.5337,6.1346,6.1386,6.12,6.1152,6.1208,6.1208,6.1226,6.1211,6.1138,6.0819,6.0381,5.9574,5.8719,5.788,5.7181,5.7047,5.7141,5.7058,5.7443,5.7833,5.8223,5.8941,5.9641,5.9944,6.0104,6.0655,6.0122,5.968,5.9663,5.9181,5.941,5.9833,5.9748,5.9707,5.9508,5.9288,5.9568,5.9753,5.952,5.9006,5.9668,5.8705,5.8304,5.8847,5.8145,5.8846,5.9477,5.997,6.0103,6.0236,6.0615,5.9977,5.9251,5.9344,5.9143,5.8566,5.7985,5.8134,5.8238,5.8248,5.8203,5.8692,5.9027,5.9384,5.9901,6.0112,6.0341,6.0527,6.0961,6.1193,6.1152,6.1179,6.119,6.1152,6.1034,6.0888,6.0745,6.0548,6.0456,5.9939,5.9665,5.9513,5.888,5.824,5.7706,5.7387,5.8446,5.9501,6.0501,6.1475,6.1963,6.2283,6.2616,6.2717,6.2622,6.2848,6.3129,6.3208,6.3267,6.3431,6.3568,6.3676,6.3676,6.3758,6.3845,6.3921,6.4008,6.4143,6.4247,6.4356,6.4453,6.4511,6.4803,6.512,6.5554,6.127,6.1299,6.1197,6.1197,6.1241,6.1237,6.1255,6.1226,6.1138,6.0487,5.9526,5.8902,5.8174,5.7413,5.6854,5.6618,5.6774,5.6825,5.6886,5.7159,5.7569,5.8267,5.8673,5.8983,5.9212,5.9629,5.9165,5.8703,5.8771,5.8515,5.8303,5.8225,5.8307,5.8333,5.853,5.8258,5.834,5.861,5.8417,5.7954,5.8988,5.8309,5.7895,5.8962,5.8703,5.9083,5.9888,6.0354,6.0314,6.0307,6.026,5.9874,5.9381,5.9109,5.9152,5.8597,5.824,5.8385,5.8381,5.7981,5.8031,5.8595,5.8724,5.8902,5.917,5.974,6.0469,6.0466,6.0932,6.1197,6.1093,6.1152,6.1182,6.1123,6.1138,6.1045,6.1031,6.0923,6.0962,6.0831,6.044,5.9841,5.9535,5.8813,5.7942,5.7709,5.8572,5.9439,6.0086,6.1041,6.1924,6.2154,6.2323,6.2336,6.2328,6.266,6.2923,6.2848,6.2947,6.3153,6.3307,6.3431,6.3534,6.3602,6.3702,6.3834,6.3934,6.404,6.4184,6.4335,6.4405,6.4482,6.4661,6.4988,6.5507,6.1462,6.1314,6.1281,6.1226,6.1123,6.1108,6.1108,6.1105,6.1019,6.0186,5.8938,5.8638,5.7832,5.6803,5.6459,5.6523,5.6568,5.6622,5.6689,5.6853,5.7167,5.7509,5.7873,5.8232,5.8487,5.8807,5.8316,5.7786,5.7813,5.7302,5.6862,5.6763,5.6983,5.7112,5.7602,5.7745,5.819,5.8872,5.8948,5.8867,5.906,5.8758,5.8748,5.9195,5.9469,5.9835,6.0357,6.0798,6.0647,6.0203,6.0242,5.9588,5.8374,5.9288,5.9434,5.8922,5.9309,5.9645,5.9849,5.8574,5.8397,5.8524,5.8495,5.8599,5.9598,6.0362,6.0719,6.0433,6.098,6.1105,6.1093,6.1093,6.1108,6.1108,6.1138,6.1138,6.1123,6.1167,6.1167,6.12,6.0545,5.9931,5.9834,5.9414,5.8399,5.8243,5.8903,5.9498,6.0036,6.0851,6.1865,6.2064,6.2168,6.2168,6.2235,6.2519,6.2698,6.2596,6.266,6.288,6.3063,6.3201,6.3307,6.34,6.3481,6.3561,6.375,6.3923,6.4063,6.4206,6.4336,6.4453,6.4615,6.482,6.5262,6.1244,6.1167,6.1167,6.1138,6.1093,6.1093,6.1093,6.1004,6.0522,5.9687,5.8759,5.8238,5.7435,5.6633,5.6396,5.6442,5.6465,5.6586,5.6653,5.6702,5.7075,5.7559,5.7796,5.776,5.7866,5.782,5.7318,5.6943,5.6858,5.6517,5.645,5.6414,5.6414,5.6539,5.6753,5.6929,5.731,5.7893,5.7823,5.7796,5.8823,5.857,5.8636,5.9534,5.9871,6.0243,6.0765,6.1122,6.0786,6.0253,6.029,5.9844,5.8774,5.9509,5.9555,5.9041,5.9152,5.938,5.9749,5.9384,5.9109,5.8709,5.8135,5.8206,5.8956,5.9277,5.9723,6.0397,6.0897,6.1022,6.1093,6.1093,6.1093,6.1093,6.1108,6.1108,6.1123,6.1211,6.1255,6.1285,6.0894,6.0608,6.044,6.0226,5.9344,5.8956,5.9519,5.9888,6.0367,6.1141,6.201,6.201,6.2064,6.2064,6.2141,6.2354,6.248,6.2428,6.2493,6.2654,6.283,6.2966,6.3117,6.3237,6.326,6.3289,6.3572,6.3805,6.3937,6.4065,6.4176,6.4326,6.4492,6.4624,6.482,6.1093,6.1093,6.1093,6.0933,6.0719,6.0683,6.0543,6.0222,5.9687,5.9045,5.8328,5.7771,5.7146,5.6593,5.6396,5.6396,5.6414,5.6496,5.6532,5.6604,5.6997,5.7176,5.7221,5.7291,5.717,5.7039,5.6771,5.6432,5.6499,5.6432,5.6396,5.6396,5.6414,5.6664,5.6736,5.6852,5.6723,5.7127,5.7015,5.7266,5.7964,5.824,5.8466,5.9427,6.0005,6.0251,6.0843,6.1004,6.0861,6.0594,6.054,6.0469,5.9758,5.9687,5.983,5.9384,5.9473,5.9812,6.023,6.0006,5.9738,5.9684,5.8274,5.8203,5.8991,5.9633,5.9972,6.0469,6.0826,6.1001,6.1108,6.1108,6.1108,6.1108,6.1093,6.1108,6.1108,6.1197,6.1241,6.127,6.1289,6.1099,6.1025,6.0806,6.0373,6.0215,6.0165,6.0341,6.0516,6.12,6.1756,6.1774,6.1829,6.186,6.1915,6.2091,6.2181,6.2243,6.2349,6.2436,6.2565,6.2705,6.2867,6.3057,6.3153,6.3272,6.3481,6.3673,6.3775,6.3851,6.3934,6.4104,6.4336,6.4482,6.4586,6.1093,6.1093,6.1093,6.0665,5.9972,5.9844,5.9366,5.8763,5.8688,5.8278,5.7628,5.7574,5.7039,5.6504,5.6396,5.6396,5.6396,5.6428,5.6442,5.6442,5.6616,5.6634,5.6723,5.6749,5.6914,5.6686,5.6525,5.6611,5.645,5.6396,5.6396,5.6396,5.6396,5.6682,5.6843,5.6736,5.662,5.6818,5.6957,5.7149,5.7511,5.8075,5.8662,5.9498,5.9987,6.0451,6.0897,6.1058,6.1058,6.1004,6.1022,6.0611,6.0451,6.0701,6.0436,6.0365,6.0632,6.0808,6.0826,6.0373,6.0412,6.0487,6.0115,5.999,5.9972,6.024,6.0415,6.0698,6.1051,6.1087,6.1123,6.1123,6.1138,6.1123,6.1108,6.1108,6.1093,6.1123,6.1152,6.1182,6.1241,6.1236,6.1392,6.1283,6.0662,6.0427,6.0088,5.9739,6.0028,6.0729,6.1195,6.1322,6.143,6.163,6.1684,6.1575,6.1693,6.1687,6.2041,6.2177,6.231,6.2462,6.2641,6.283,6.3057,6.3189,6.3237,6.3377,6.3579,6.3658,6.3695,6.3905,6.4147,6.4306,6.45,6.1182,6.1108,6.1197,6.0717,5.9791,5.8738,5.8399,5.8602,5.8185,5.7753,5.7588,5.6972,5.665,5.6401,5.6396,5.6396,5.6432,5.641,5.6465,5.6482,5.6495,5.6871,5.7086,5.7152,5.7231,5.7217,5.7146,5.6918,5.6521,5.6432,5.6396,5.6396,5.6396,5.6628,5.6736,5.6525,5.688,5.7171,5.7296,5.7157,5.7586,5.8355,5.8991,5.9452,6.029,6.0772,6.1004,6.1093,6.1093,6.1093,6.1093,6.0879,6.0897,6.0986,6.0879,6.0861,6.0986,6.1075,6.1058,6.0879,6.0826,6.1004,6.0808,6.0826,6.0719,6.0611,6.0683,6.093,6.101,6.0953,6.095,6.0982,6.0964,6.0979,6.1021,6.1152,6.1167,6.1197,6.1193,6.1213,6.1275,6.115,6.1362,6.1068,6.0516,6.0317,5.9987,5.9516,5.9498,6.0181,6.0579,6.0706,6.0724,6.0869,6.0851,6.076,6.096,6.1172,6.1643,6.2033,6.2177,6.2336,6.2449,6.2629,6.2873,6.2886,6.2818,6.3026,6.3342,6.34,6.3481,6.372,6.3947,6.4083,6.4255,6.0615,6.0624,6.1101,6.0644,5.9359,5.782,5.74,5.7653,5.7311,5.7128,5.7057,5.6633,5.6396,5.6396,5.6401,5.6561,5.6914,5.6575,5.6584,5.6951,5.6652,5.6719,5.7072,5.7291,5.7285,5.7449,5.7539,5.7324,5.6825,5.6486,5.6396,5.6396,5.6396,5.6811,5.7029,5.6989,5.737,5.7719,5.7827,5.7416,5.7938,5.8781,5.9127,5.9794,6.0736,6.0968,6.1093,6.1093,6.1093,6.1093,6.1093,6.1093,6.1075,6.1093,6.1093,6.1058,6.1075,6.1093,6.1075,6.1093,6.1075,6.1093,6.1093,6.1058,6.0968,6.0808,6.0897,6.1019,6.0828,6.0693,6.074,6.0769,6.078,6.0776,6.0984,6.119,6.1255,6.1299,6.1304,6.1304,6.1189,6.0992,6.0824,6.053,6.0235,5.9891,5.9475,5.9004,5.9022,5.9511,5.9855,6.0018,5.9982,5.9995,6.0,6.0272,6.0797,6.1231,6.172,6.2046,6.2128,6.2217,6.2362,6.25,6.2692,6.2679,6.2667,6.2867,6.3111,6.3159,6.3213,6.3347,6.3591,6.3883,6.4052,5.9713,5.9817,6.0756,6.0386,5.8982,5.7434,5.6736,5.6517,5.6692,5.6539,5.6611,5.6436,5.6468,5.6611,5.6549,5.6874,5.7102,5.6959,5.7183,5.766,5.7235,5.7106,5.7094,5.6718,5.736,5.7556,5.7521,5.7396,5.7235,5.6807,5.6396,5.6414,5.6579,5.7061,5.7743,5.735,5.7753,5.8609,5.8074,5.7467,5.8349,5.8959,5.9494,6.0576,6.0971,6.1078,6.1093,6.1093,6.1093,6.1093,6.1093,6.1093,6.1093,6.1093,6.1093,6.1093,6.1093,6.1093,6.1093,6.1093,6.1093,6.1093,6.1093,6.1093,6.1004,6.0968,6.1022,6.1019,6.0881,6.0782,6.0794,6.0859,6.0881,6.0877,6.0974,6.1046,6.1021,6.0995,6.0895,6.0771,6.036,6.02,6.0232,5.9943,5.9472,5.9245,5.8818,5.8329,5.842,5.8818,5.8986,5.9167,5.9017,5.9072,5.9742,6.0109,6.0833,6.1358,6.172,6.2005,6.206,6.2168,6.2257,6.2428,6.2583,6.2603,6.2654,6.2805,6.2874,6.2917,6.2972,6.2984,6.32,6.3527,6.3786,5.9681,5.9713,6.01,6.0049,5.9702,5.8634,5.7862,5.7472,5.7472,5.7417,5.7213,5.6771,5.6789,5.7263,5.6917,5.7149,5.7473,5.7654,5.8013,5.8283,5.8102,5.7874,5.8194,5.791,5.7935,5.7646,5.7521,5.7414,5.7057,5.6682,5.645,5.6508,5.6847,5.7614,5.8167,5.7774,5.8456,5.933,5.8742,5.8242,5.8834,5.9742,6.0499,6.0594,6.0555,6.0965,6.1031,6.1093,6.1093,6.1093,6.1093,6.1093,6.1093,6.1093,6.1093,6.1093,6.1093,6.1093,6.1093,6.1093,6.1093,6.1093,6.1093,6.1093,6.1093,6.1093,6.109,6.1051,6.0956,6.0857,6.0805,6.0866,6.0877,6.0841,6.0837,6.0775,6.0714,6.0544,6.0396,6.0055,5.9578,5.9421,5.9452,5.9271,5.8786,5.8332,5.7846,5.7496,5.7569,5.7804,5.7931,5.8021,5.7822,5.8039,5.8945,5.9669,6.0235,6.0887,6.1286,6.1611,6.1919,6.21,6.219,6.2323,6.2454,6.2493,6.2521,6.2574,6.2655,6.2608,6.2622,6.2604,6.28,6.3107,6.3421,5.9471,5.9501,5.9636,5.9851,5.9892,5.9099,5.8583,5.8438,5.8411,5.8388,5.818,5.7534,5.7475,5.8119,5.7808,5.7683,5.815,5.8291,5.845,5.8716,5.8902,5.8695,5.8784,5.882,5.8845,5.8506,5.8167,5.7846,5.7239,5.665,5.649,5.686,5.7449,5.7931,5.836,5.8795,5.9152,5.9776,5.9402,5.9402,5.9526,6.0163,6.0597,6.0445,6.0731,6.1001,6.1031,6.1093,6.1093,6.1093,6.1093,6.1093,6.1093,6.1093,6.1093,6.1093,6.1093,6.1093,6.1093,6.1093,6.1093,6.1093,6.1093,6.1093,6.1093,6.1093,6.1093,6.1034,6.0516,6.0349,6.0196,6.0189,5.9952,5.9837,5.9869,5.9861,5.9647,5.9433,5.9596,5.9817,5.9167,5.8418,5.8543,5.8867,5.8399,5.7965,5.7406,5.7424,5.7369,5.7188,5.7188,5.7248,5.7284,5.7587,5.851,5.9035,5.9398,6.0054,6.0797,6.0973,6.1222,6.1788,6.2154,6.2139,6.2214,6.2389,6.2417,6.2429,6.2209,6.2065,6.2144,6.2212,6.2463,6.2751,6.2995,5.9267,5.9351,5.9522,5.9835,6.006,5.9341,5.9116,5.9278,5.932,5.932,5.9207,5.8514,5.8594,5.8781,5.8996,5.8982,5.8986,5.904,5.9044,5.9049,5.9166,5.922,5.9113,5.8956,5.9116,5.9098,5.8795,5.8492,5.8113,5.7346,5.6985,5.7432,5.7899,5.8381,5.9188,5.958,5.9705,6.0347,6.0451,6.0454,6.049,6.0454,6.06,6.0849,6.1078,6.1064,6.1064,6.1093,6.1093,6.1034,6.1019,6.1016,6.1064,6.1064,6.1093,6.1093,6.1093,6.1093,6.1093,6.1093,6.1093,6.1093,6.1093,6.1093,6.1093,6.1093,6.1093,6.0879,6.0362,6.0037,5.9866,5.9849,5.9563,5.9167,5.9199,5.9335,5.9077,5.8781,5.9087,5.9495,5.8727,5.7856,5.8066,5.8389,5.8285,5.7827,5.7605,5.7623,5.7587,5.7333,5.7188,5.7344,5.7481,5.7874,5.8334,5.8588,5.8914,5.9493,6.0181,6.0285,6.0475,6.0922,6.1365,6.1774,6.1873,6.1974,6.2152,6.2214,6.1952,6.174,6.1796,6.1979,6.2273,6.2512,6.2646,5.9495,6.0182,6.032,6.0577,6.0778,6.0397,6.0125,5.9935,5.9938,5.9924,5.9894,5.9925,5.9695,5.9,5.8986,5.9011,5.9134,5.9445,5.971,5.9734,5.9883,5.9919,5.9705,5.933,5.9277,5.9152,5.8902,5.8452,5.8256,5.765,5.711,5.6914,5.8153,5.867,5.9027,5.9616,6.0594,6.0968,6.0968,6.0915,6.087,6.0838,6.0844,6.0935,6.0956,6.0893,6.0893,6.1034,6.0914,6.0823,6.0836,6.0893,6.0953,6.1049,6.1078,6.1093,6.1093,6.1093,6.1093,6.1093,6.1093,6.1093,6.1093,6.1093,6.1093,6.1093,6.1093,6.1093,6.0665,6.0344,6.0245,6.0546,6.0404,5.9641,5.9328,5.9667,5.9719,5.9294,5.9146,5.8991,5.8468,5.8218,5.8399,5.8756,5.9052,5.8645,5.834,5.8285,5.7822,5.7514,5.7188,5.7368,5.7564,5.7975,5.8376,5.8394,5.8684,5.9203,5.9561,5.9646,5.9771,5.9953,6.0383,6.0979,6.1265,6.1376,6.1584,6.1715,6.1974,6.1807,6.1679,6.1777,6.2077,6.2352,6.2536]}]]